[[{"header":{"parameterUnit":"m.s-1","parameterCategory":1,"la1":30.6,"la2":28.766,"lo1":-90.7593,"lo2":-88.6598,"dy":0.0162,"dx":0.0183,"nx":116,"ny":114,"refTime":"2023-04-30T00:00:00:Z","depth":0,"parameterNumber":2,"parameterNumberName":"U-component_of_WINDS"},"data":[0.0,0.0,0.0,0.0,0.0,0.0,0.0,0.0,0.0,0.0,0.0,0.0,0.0,0.0,0.0,0.0,0.0,0.0,0.0,0.0,0.0,0.0,0.0,0.0,0.0,0.0,0.0,0.0,0.0,0.0,0.0,0.0,0.0,0.0,0.0,0.0,0.0,0.0,0.0,0.0,0.0,0.0,0.0,0.0,0.0,0.0,0.0,0.0,0.0,0.0,0.0,0.0,0.0,0.0,0.0,0.0,0.0,0.0,0.0,0.0,0.0,0.0,0.0,0.0,0.0,0.0,0.0,0.0,0.0,0.0,0.0,0.0,0.0,0.0,0.0,0.0,0.0,0.0,0.0,0.0,0.0,0.0,0.0,0.0,0.0,0.0,0.0,0.0,0.0,0.0,0.0,0.0,0.0,0.0,0.0,0.0,0.0,0.0,0.0,0.0,0.0,0.0,0.0,0.0,0.0,0.0,0.0,0.0,0.0,0.0,0.0,0.0,0.0,0.0,0.0,0.0,0.0,0.0,0.0,0.0,0.0,0.0,0.0,0.0,0.0,0.0,0.0,0.0,0.0,0.0,0.0,0.0,0.0,0.0,0.0,0.0,0.0,0.0,0.0,0.0,0.0,0.0,0.0,0.0,0.0,0.0,0.0,0.0,0.0,0.0,0.0,0.0,0.0,0.0,0.0,0.0,0.0,0.0,0.0,0.0,0.0,0.0,0.0,0.0,0.0,0.0,0.0,0.0,0.0,0.0,0.0,0.0,0.0,0.0,0.0,0.0,0.0,0.0,0.0,0.0,0.0,0.0,0.0,0.0,0.0,0.0,0.0,0.0,0.0,0.0,0.0,0.0,0.0,0.0,0.0,0.0,0.0,0.0,0.0,0.0,0.0,0.0,0.0,0.0,0.0,0.0,0.0,0.0,0.0,0.0,0.0,0.0,0.0,0.0,0.0,0.0,0.0,0.0,0.0,0.0,0.0,0.0,0.0,0.0,0.0,0.0,0.0,0.0,0.0,0.0,0.0,0.0,0.0,0.0,0.0,0.0,0.0,0.0,0.0,0.0,0.0,0.0,0.0,0.0,0.0,0.0,0.0,0.0,0.0,0.0,0.0,0.0,0.0,0.0,0.0,0.0,0.0,0.0,0.0,0.0,0.0,0.0,0.0,0.0,0.0,0.0,0.0,0.0,0.0,0.0,0.0,0.0,0.0,0.0,0.0,0.0,0.0,0.0,0.0,0.0,0.0,0.0,0.0,0.0,0.0,0.0,0.0,0.0,0.0,0.0,0.0,0.0,0.0,0.0,0.0,0.0,0.0,0.0,0.0,0.0,0.0,0.0,0.0,0.0,0.0,0.0,0.0,0.0,0.0,0.0,0.0,0.0,0.0,0.0,0.0,0.0,0.0,0.0,0.0,0.0,0.0,0.0,0.0,0.0,0.0,0.0,0.0,0.0,0.0,0.0,0.0,0.0,0.0,0.0,0.0,0.0,0.0,0.0,0.0,0.0,0.0,0.0,0.0,0.0,0.0,0.0,0.0,0.0,0.0,0.0,0.0,0.0,0.0,0.0,0.0,0.0,0.0,0.0,0.0,0.0,0.0,0.0,0.0,0.0,0.0,0.0,0.0,0.0,0.0,0.0,0.0,0.0,0.0,0.0,0.0,0.0,0.0,0.0,0.0,0.0,0.0,0.0,0.0,0.0,0.0,0.0,0.0,0.0,0.0,0.0,0.0,0.0,0.0,0.0,0.0,0.0,0.0,0.0,0.0,0.0,0.0,0.0,0.0,0.0,0.0,0.0,0.0,0.0,0.0,0.0,0.0,0.0,0.0,0.0,0.0,0.0,0.0,0.0,0.0,0.0,0.0,0.0,0.0,0.0,0.0,0.0,0.0,0.0,0.0,0.0,0.0,0.0,0.0,0.0,0.0,0.0,0.0,0.0,0.0,0.0,0.0,0.0,0.0,0.0,0.0,0.0,0.0,0.0,0.0,0.0,0.0,0.0,0.0,0.0,0.0,0.0,0.0,0.0,0.0,0.0,0.0,0.0,0.0,0.0,0.0,0.0,0.0,0.0,0.0,0.0,0.0,0.0,0.0,0.0,0.0,0.0,0.0,0.0,0.0,0.0,0.0,0.0,0.0,0.0,0.0,0.0,0.0,0.0,0.0,0.0,0.0,0.0,0.0,0.0,0.0,0.0,0.0,0.0,0.0,0.0,0.0,0.0,0.0,0.0,0.0,0.0,0.0,0.0,0.0,0.0,0.0,0.0,0.0,0.0,0.0,0.0,0.0,0.0,0.0,0.0,0.0,0.0,0.0,0.0,0.0,0.0,0.0,0.0,0.0,0.0,0.0,0.0,0.0,0.0,0.0,0.0,0.0,0.0,0.0,0.0,0.0,0.0,0.0,0.0,0.0,0.0,0.0,0.0,0.0,0.0,0.0,0.0,0.0,0.0,0.0,0.0,0.0,0.0,0.0,0.0,0.0,0.0,0.0,0.0,0.0,0.0,0.0,0.0,0.0,0.0,0.0,0.0,0.0,0.0,0.0,0.0,0.0,0.0,0.0,0.0,0.0,0.0,0.0,0.0,0.0,0.0,0.0,0.0,0.0,0.0,0.0,0.0,0.0,0.0,0.0,0.0,0.0,0.0,0.0,0.0,0.0,0.0,0.0,0.0,0.0,0.0,0.0,0.0,0.0,0.0,0.0,0.0,0.0,0.0,0.0,0.0,0.0,0.0,0.0,0.0,0.0,0.0,0.0,0.0,0.0,0.0,0.0,0.0,0.0,0.0,0.0,0.0,0.0,0.0,0.0,0.0,0.0,0.0,0.0,0.0,0.0,0.0,0.0,0.0,0.0,0.0,0.0,0.0,0.0,0.0,0.0,0.0,0.0,0.0,0.0,0.0,0.0,0.0,0.0,0.0,0.0,0.0,0.0,0.0,0.0,0.0,0.0,0.0,0.0,0.0,0.0,0.0,0.0,0.0,0.0,0.0,0.0,0.0,0.0,0.0,0.0,0.0,0.0,0.0,0.0,0.0,0.0,0.0,0.0,0.0,0.0,0.0,0.0,0.0,0.0,0.0,0.0,0.0,0.0,0.0,0.0,0.0,0.0,0.0,0.0,0.0,0.0,0.0,0.0,0.0,0.0,0.0,0.0,0.0,0.0,0.0,0.0,0.0,0.0,0.0,0.0,0.0,0.0,0.0,0.0,0.0,0.0,0.0,0.0,0.0,0.0,0.0,0.0,0.0,0.0,0.0,0.0,0.0,0.0,0.0,0.0,0.0,0.0,0.0,0.0,0.0,0.0,0.0,0.0,0.0,0.0,0.0,0.0,0.0,0.0,0.0,0.0,0.0,0.0,0.0,0.0,0.0,0.0,0.0,0.0,0.0,0.0,0.0,0.0,0.0,0.0,0.0,0.0,0.0,0.0,0.0,0.0,0.0,0.0,0.0,0.0,0.0,0.0,0.0,0.0,0.0,0.0,0.0,0.0,0.0,0.0,0.0,0.0,0.0,0.0,0.0,0.0,0.0,0.0,0.0,0.0,0.0,0.0,0.0,0.0,0.0,0.0,0.0,0.0,0.0,0.0,0.0,0.0,0.0,0.0,0.0,0.0,0.0,0.0,0.0,0.0,0.0,0.0,0.0,0.0,0.0,0.0,0.0,0.0,0.0,0.0,0.0,0.0,0.0,0.0,0.0,0.0,0.0,0.0,0.0,0.0,0.0,0.0,0.0,0.0,0.0,0.0,0.0,0.0,0.0,0.0,0.0,0.0,0.0,0.0,0.0,0.0,0.0,0.0,0.0,0.0,0.0,0.0,0.0,0.0,0.0,0.0,0.0,0.0,0.0,0.0,0.0,0.0,0.0,0.0,0.0,0.0,0.0,0.0,0.0,0.0,0.0,0.0,0.0,0.0,0.0,0.0,0.0,0.0,0.0,0.0,0.0,0.0,0.0,0.0,0.0,0.0,0.0,0.0,0.0,0.0,0.0,0.0,0.0,0.0,0.0,0.0,0.0,0.0,0.0,0.0,0.0,0.0,0.0,0.0,0.0,0.0,0.0,0.0,0.0,0.0,0.0,0.0,0.0,0.0,0.0,0.0,0.0,0.0,0.0,0.0,0.0,0.0,0.0,0.0,0.0,0.0,0.0,0.0,0.0,0.0,0.0,0.0,0.0,0.0,0.0,0.0,0.0,0.0,0.0,0.0,0.0,0.0,0.0,0.0,0.0,0.0,0.0,0.0,0.0,0.0,0.0,0.0,0.0,0.0,0.0,0.0,0.0,0.0,0.0,0.0,0.0,0.0,0.0,0.0,0.0,0.0,0.0,0.0,0.0,0.0,0.0,0.0,0.0,0.0,0.0,0.0,0.0,0.0,0.0,0.0,0.0,0.0,0.0,0.0,0.0,0.0,0.0,0.0,0.0,0.0,0.0,0.0,0.0,0.0,0.0,0.0,0.0,0.0,0.0,0.0,0.0,0.0,0.0,0.0,0.0,0.0,0.0,0.0,0.0,0.0,0.0,0.0,0.0,0.0,0.0,0.0,0.0,0.0,0.0,0.0,0.0,0.0,0.0,0.0,0.0,0.0,0.0,0.0,0.0,0.0,0.0,0.0,0.0,0.0,0.0,0.0,0.0,0.0,0.0,0.0,0.0,0.0,0.0,0.0,0.0,0.0,0.0,0.0,0.0,0.0,0.0,0.0,0.0,0.0,0.0,0.0,0.0,0.0,0.0,0.0,0.0,0.0,0.0,0.0,0.0,0.0,0.0,0.0,0.0,0.0,0.0,0.0,0.0,0.0,0.0,0.0,0.0,0.0,0.0,0.0,0.0,0.0,0.0,0.0,0.0,0.0,0.0,0.0,0.0,0.0,0.0,0.0,0.0,0.0,0.0,0.0,0.0,0.0,0.0,0.0,0.0,0.0,0.0,0.0,0.0,0.0,0.0,0.0,0.0,0.0,0.0,0.0,0.0,0.0,0.0,0.0,0.0,0.0,0.0,0.0,0.0,0.0,0.0,0.0,0.0,0.0,0.0,0.0,0.0,0.0,0.0,0.0,0.0,0.0,0.0,0.0,0.0,0.0,0.0,0.0,0.0,0.0,0.0,0.0,0.0,0.0,0.0,0.0,0.0,0.0,0.0,0.0,0.0,0.0,0.0,0.0,0.0,0.0,0.0,0.0,0.0,0.0,0.0,0.0,0.0,0.0,0.0,0.0,0.0,0.0,0.0,0.0,0.0,0.0,0.0,0.0,0.0,0.0,0.0,0.0,0.0,0.0,0.0,0.0,0.0,0.0,0.0,0.0,0.0,0.0,0.0,0.0,0.0,0.0,0.0,0.0,0.0,0.0,0.0,0.0,0.0,0.0,0.0,0.0,0.0,0.0,0.0,0.0,0.0,0.0,0.0,0.0,0.0,0.0,0.0,0.0,0.0,0.0,0.0,0.0,0.0,0.0,0.0,0.0,0.0,0.0,0.0,0.0,0.0,0.0,0.0,0.0,0.0,0.0,0.0,0.0,0.0,0.0,0.0,0.0,0.0,0.0,0.0,0.0,0.0,0.0,0.0,0.0,0.0,0.0,0.0,0.0,0.0,0.0,0.0,0.0,0.0,0.0,0.0,0.0,0.0,0.0,0.0,0.0,0.0,0.0,0.0,0.0,0.0,0.0,0.0,0.0,0.0,0.0,0.0,0.0,0.0,0.0,0.0,0.0,0.0,0.0,0.0,0.0,0.0,0.0,0.0,0.0,0.0,0.0,0.0,0.0,0.0,0.0,0.0,0.0,0.0,0.0,0.0,0.0,0.0,0.0,0.0,0.0,0.0,0.0,0.0,0.0,0.0,0.0,0.0,0.0,0.0,0.0,0.0,0.0,0.0,0.0,0.0,0.0,0.0,0.0,0.0,0.0,0.0,0.0,0.0,0.0,0.0,0.0,0.0,0.0,0.0,0.0,0.0,0.0,0.0,0.0,0.0,0.0,0.0,0.0,0.0,0.0,0.0,0.0,0.0,0.0,0.0,0.0,0.0,0.0,0.0,0.0,0.0,0.0,0.0,0.0,0.0,0.0,0.0,0.0,0.0,0.0,0.0,0.0,0.0,0.0,0.0,-2.8245,0.0,0.0,0.0,0.0,0.0,0.0,0.0,0.0,0.0,0.0,0.0,0.0,0.0,0.0,0.0,0.0,0.0,0.0,0.0,0.0,0.0,0.0,0.0,0.0,0.0,0.0,0.0,0.0,0.0,0.0,0.0,0.0,0.0,0.0,0.0,0.0,0.0,0.0,0.0,0.0,0.0,0.0,0.0,0.0,0.0,0.0,0.0,0.0,0.0,0.0,0.0,0.0,0.0,0.0,0.0,0.0,0.0,0.0,0.0,0.0,0.0,0.0,0.0,0.0,0.0,0.0,0.0,0.0,0.0,0.0,0.0,0.0,0.0,0.0,0.0,0.0,0.0,0.0,0.0,0.0,0.0,0.0,0.0,0.0,0.0,0.0,0.0,0.0,0.0,0.0,0.0,0.0,0.0,0.0,0.0,0.0,0.0,0.0,0.0,0.0,0.0,0.0,0.0,0.0,0.0,0.0,0.0,0.0,0.0,0.0,0.0,0.0,0.0,0.0,0.0,0.0,-2.778,0.0,0.0,0.0,0.0,0.0,0.0,0.0,0.0,0.0,0.0,0.0,0.0,0.0,0.0,0.0,0.0,0.0,0.0,0.0,0.0,0.0,0.0,0.0,0.0,0.0,0.0,0.0,0.0,0.0,0.0,0.0,0.0,0.0,0.0,0.0,0.0,0.0,0.0,0.0,0.0,0.0,0.0,0.0,0.0,0.0,0.0,0.0,0.0,0.0,0.0,0.0,0.0,0.0,0.0,0.0,0.0,0.0,0.0,0.0,0.0,0.0,0.0,0.0,0.0,0.0,0.0,0.0,0.0,0.0,0.0,0.0,0.0,0.0,0.0,0.0,0.0,0.0,0.0,0.0,0.0,0.0,0.0,0.0,0.0,0.0,0.0,0.0,0.0,0.0,0.0,0.0,0.0,0.0,0.0,0.0,0.0,0.0,0.0,0.0,0.0,0.0,0.0,0.0,0.0,0.0,0.0,0.0,0.0,-3.0856,-3.0988,-3.0988,-3.0988,-3.0227,-2.8998,-3.0354,-3.1216,-3.1512,-2.9728,0.0,0.0,0.0,0.0,0.0,0.0,0.0,0.0,0.0,0.0,0.0,0.0,0.0,0.0,0.0,0.0,0.0,0.0,0.0,0.0,0.0,0.0,0.0,0.0,0.0,0.0,0.0,0.0,0.0,0.0,0.0,0.0,0.0,0.0,0.0,0.0,0.0,0.0,-3.0322,-3.038,-3.024,-3.0,-3.1421,0.0,0.0,0.0,0.0,0.0,0.0,0.0,0.0,0.0,0.0,0.0,0.0,0.0,0.0,0.0,0.0,0.0,0.0,0.0,0.0,0.0,0.0,0.0,0.0,0.0,0.0,0.0,0.0,0.0,0.0,0.0,0.0,0.0,0.0,0.0,0.0,0.0,0.0,0.0,0.0,0.0,0.0,0.0,-2.6571,-2.8793,0.0,0.0,0.0,0.0,0.0,0.0,0.0,0.0,0.0,0.0,0.0,0.0,0.0,-3.0629,-3.1269,-3.3043,-3.3944,-3.3974,-3.5439,-3.6115,-3.6115,-3.6115,-3.6002,-3.5653,-3.3052,0.0,-2.9944,-3.1175,0.0,0.0,0.0,0.0,0.0,0.0,0.0,0.0,0.0,0.0,0.0,0.0,0.0,0.0,0.0,0.0,0.0,0.0,0.0,0.0,0.0,0.0,0.0,0.0,0.0,0.0,0.0,0.0,0.0,0.0,0.0,0.0,0.0,0.0,0.0,0.0,-3.1518,-3.2384,-3.2879,-3.2896,-3.2912,-3.2942,-3.3614,-3.2688,-3.0654,-3.1094,0.0,0.0,0.0,0.0,0.0,0.0,0.0,0.0,0.0,0.0,0.0,0.0,0.0,0.0,0.0,0.0,0.0,0.0,0.0,0.0,0.0,0.0,0.0,0.0,0.0,0.0,0.0,0.0,0.0,0.0,0.0,0.0,0.0,0.0,0.0,0.0,0.0,0.0,0.0,-2.7192,-2.8688,-2.9853,-2.9538,-2.8825,0.0,0.0,0.0,0.0,0.0,0.0,0.0,0.0,0.0,-3.0777,-3.2185,-3.2881,-3.2779,-3.4921,-3.6021,-3.6021,-3.6753,-3.711,-3.711,-3.711,-3.711,-3.7016,-3.5507,-3.4412,-3.3593,-3.2054,-3.1669,-3.1909,0.0,0.0,0.0,0.0,-2.7401,-2.8017,0.0,0.0,0.0,0.0,0.0,0.0,0.0,0.0,0.0,0.0,0.0,0.0,0.0,0.0,0.0,-3.1879,0.0,0.0,0.0,0.0,0.0,0.0,0.0,0.0,0.0,0.0,0.0,-3.1627,-3.3323,-3.4482,-3.5129,-3.5119,-3.5127,-3.5127,-3.5127,-3.379,-3.1575,-3.1726,-3.1096,0.0,0.0,0.0,0.0,0.0,0.0,0.0,0.0,0.0,0.0,0.0,0.0,0.0,0.0,0.0,0.0,0.0,0.0,0.0,0.0,0.0,0.0,0.0,0.0,0.0,0.0,0.0,0.0,0.0,0.0,0.0,0.0,0.0,0.0,0.0,0.0,0.0,0.0,-2.9439,-3.0768,-3.1444,-3.1351,-3.083,0.0,0.0,0.0,0.0,0.0,0.0,-3.2672,-3.2751,-3.276,-3.2705,-3.455,-3.5341,-3.4918,-3.6798,-3.7749,-3.7749,-3.7749,-3.7749,-3.7749,-3.7749,-3.7749,-3.773,-3.7452,-3.7316,-3.7049,-3.3732,-3.274,-3.3245,-3.2772,-3.1816,-3.0592,-2.9781,-2.9754,-2.9891,0.0,0.0,0.0,0.0,0.0,0.0,0.0,0.0,0.0,0.0,0.0,0.0,0.0,0.0,-3.1002,-3.2588,-3.1917,-3.071,0.0,0.0,0.0,0.0,0.0,0.0,0.0,0.0,0.0,-3.2523,-3.4279,-3.5162,-3.52,-3.5185,-3.5201,-3.5201,-3.5201,-3.4206,-3.2523,-3.2532,-3.1559,-2.9937,0.0,0.0,0.0,0.0,0.0,0.0,0.0,0.0,0.0,0.0,0.0,0.0,0.0,0.0,0.0,0.0,0.0,0.0,0.0,0.0,0.0,0.0,0.0,0.0,0.0,0.0,0.0,0.0,0.0,0.0,0.0,0.0,0.0,0.0,0.0,0.0,0.0,0.0,0.0,-3.3763,-3.5448,0.0,0.0,0.0,0.0,-3.1992,-3.1954,-3.2663,-3.4206,-3.4357,-3.5439,-3.7753,-3.8001,-3.8488,-3.9289,-3.9401,-3.9458,-3.9458,-3.9458,-3.9458,-3.9458,-3.9458,-3.9458,-3.942,-3.8601,-3.8208,-3.8053,-3.7025,-3.6572,-3.641,-3.4808,-3.4102,-3.3596,-3.0522,-3.0921,-3.2728,0.0,0.0,0.0,0.0,0.0,0.0,0.0,0.0,0.0,0.0,0.0,0.0,0.0,-3.0963,-3.2986,-3.3574,-3.381,-3.3233,-3.1629,0.0,0.0,0.0,0.0,0.0,0.0,0.0,-3.2321,-3.3448,-3.4615,-3.5204,-3.5204,-3.5201,-3.5209,-3.5209,-3.5209,-3.4849,-3.4263,-3.4276,-3.3246,-3.1585,-3.1301,-2.9856,0.0,0.0,0.0,0.0,0.0,0.0,0.0,0.0,0.0,0.0,0.0,0.0,0.0,0.0,0.0,0.0,0.0,0.0,0.0,0.0,0.0,0.0,0.0,0.0,0.0,0.0,0.0,0.0,0.0,0.0,0.0,0.0,0.0,0.0,0.0,0.0,0.0,-3.4809,-3.518,0.0,-3.5186,-3.5184,-3.5182,-3.5168,-3.6183,-3.7323,-3.8452,-3.8533,-3.9202,-4.0609,-4.0659,-4.0822,-4.1135,-4.1135,-4.1135,-4.1135,-4.1135,-4.1135,-4.1135,-4.1135,-4.1135,-4.1122,-4.0765,-4.0607,-4.0506,-3.9642,-3.8333,-3.6796,-3.6217,-3.5962,-3.5801,-3.4645,-3.4654,-3.5174,0.0,0.0,0.0,0.0,0.0,0.0,0.0,0.0,0.0,0.0,0.0,-2.9801,-2.9189,-3.2346,-3.4515,-3.4548,-3.4963,-3.4309,-3.2127,0.0,0.0,0.0,0.0,0.0,0.0,-3.1813,-3.3233,-3.4348,-3.4926,-3.5209,-3.5209,-3.5488,-3.5641,-3.5649,-3.5962,-3.6109,-3.6109,-3.6167,-3.5089,-3.3337,-3.276,-3.0848,-2.8297,0.0,0.0,0.0,0.0,0.0,0.0,0.0,0.0,0.0,0.0,0.0,0.0,0.0,0.0,0.0,0.0,0.0,0.0,0.0,0.0,0.0,0.0,0.0,0.0,0.0,0.0,0.0,0.0,0.0,0.0,0.0,0.0,0.0,0.0,0.0,-3.412,-3.5777,-3.6,-3.6249,-3.6839,-3.7131,-3.753,-3.8097,-3.9455,-4.0491,-4.1068,-4.1132,-4.1389,-4.1959,-4.1991,-4.2004,-4.2004,-4.2004,-4.2004,-4.2004,-4.2004,-4.2004,-4.2004,-4.2004,-4.1691,-4.119,-4.1708,-4.1606,-4.106,-4.1033,-4.004,-3.8456,-3.7941,-3.7717,-3.7654,-3.7374,-3.7128,-3.6909,0.0,0.0,0.0,0.0,0.0,0.0,0.0,0.0,0.0,0.0,-2.9315,-2.9948,-3.1523,-3.3852,-3.5323,-3.5386,-3.5223,-3.3726,-3.0489,-3.0226,0.0,0.0,0.0,0.0,-3.2534,-3.2721,-3.3573,-3.5209,-3.5229,-3.5248,-3.5267,-3.6137,-3.6538,-3.6585,-3.7487,-3.7906,-3.7914,-3.8047,-3.6965,-3.5053,-3.3415,-3.1686,-2.9893,0.0,0.0,0.0,0.0,0.0,0.0,0.0,0.0,0.0,0.0,0.0,0.0,0.0,0.0,0.0,0.0,0.0,0.0,0.0,0.0,0.0,0.0,0.0,0.0,0.0,0.0,0.0,0.0,0.0,0.0,0.0,0.0,0.0,-2.9518,-3.3689,-3.6699,-3.6811,-3.8258,-3.9312,-3.9447,-4.0176,-4.0624,-4.0643,-4.1302,-4.1725,-4.1791,-4.1773,-4.1824,-4.1948,-4.2015,-4.2042,-4.2042,-4.2117,-4.2155,-4.2155,-4.2155,-4.2155,-4.2155,-4.2155,-4.1278,-3.9833,-4.1428,-4.1151,-3.9717,-4.1298,-4.188,-4.1605,-4.0069,-3.9389,-3.9178,-3.8359,-3.8061,-3.7899,0.0,0.0,0.0,0.0,0.0,0.0,0.0,0.0,0.0,0.0,-2.9858,-3.0601,-3.153,-3.3864,-3.5372,-3.5405,-3.5297,-3.4351,-3.2218,0.0,0.0,0.0,0.0,0.0,-3.2619,-3.3867,-3.4735,-3.5209,-3.5832,-3.6137,-3.6156,-3.6986,-3.7368,-3.7396,-3.7736,-3.7906,-3.7914,-3.8047,-3.7713,-3.7099,-3.6619,-3.5297,-3.3551,0.0,0.0,0.0,0.0,0.0,0.0,0.0,0.0,0.0,0.0,0.0,0.0,0.0,0.0,0.0,0.0,0.0,0.0,0.0,0.0,0.0,0.0,0.0,0.0,0.0,0.0,0.0,0.0,0.0,0.0,0.0,0.0,-3.4456,-3.4734,-3.5423,-3.6782,-3.9183,-3.9867,-4.037,-4.0937,-4.1198,-4.1371,-4.1451,-4.1661,-4.2357,-4.3666,-4.2004,-4.156,-4.2786,-4.2924,-4.2924,-4.287,-4.4744,-4.566,-4.5627,-4.5627,-4.5651,-4.5702,-4.5702,-4.5471,-4.506,-4.4907,-4.4565,-4.4049,-4.3243,-4.2856,-4.2665,-4.1516,-4.1022,-4.0839,-4.0039,-3.9361,-3.8596,0.0,0.0,0.0,0.0,0.0,0.0,0.0,0.0,0.0,0.0,-3.082,-3.154,-3.2589,-3.4297,-3.5361,-3.5364,-3.5293,-3.4243,-3.1828,0.0,0.0,0.0,0.0,-3.2026,-3.3707,-3.4697,-3.5373,-3.5736,-3.6252,-3.6672,-3.7024,-3.7912,-3.8328,-3.8356,-3.8903,-3.9167,-3.9173,-3.9296,-3.927,-3.9161,-3.9161,-3.7497,-3.5047,-3.5082,-3.401,-3.2495,-3.2537,-3.2492,-3.2374,-3.1935,0.0,0.0,0.0,0.0,0.0,0.0,0.0,0.0,0.0,0.0,0.0,0.0,0.0,0.0,0.0,0.0,0.0,0.0,0.0,0.0,0.0,0.0,0.0,0.0,-3.508,-3.7646,-3.882,-3.8214,-3.8484,-4.0738,-4.1027,-4.1329,-4.2076,-4.25,-4.2909,-4.3357,-4.3665,-4.4354,-4.5533,-4.4204,-4.3364,-4.3335,-4.4385,-4.4423,-4.3335,-4.5861,-4.7118,-4.7076,-4.7076,-4.7104,-4.7127,-4.7127,-4.6764,-4.6118,-4.6299,-4.5984,-4.5334,-4.4988,-4.4599,0.0,0.0,0.0,0.0,0.0,-4.0611,-4.0011,0.0,0.0,0.0,0.0,0.0,0.0,0.0,0.0,0.0,0.0,0.0,-3.2483,-3.4039,-3.4851,-3.5316,-3.5308,-3.5073,-3.3568,0.0,0.0,0.0,-3.2558,-3.2699,-3.3486,-3.5151,-3.5204,-3.5621,-3.65,-3.6596,-3.7063,-3.7874,-3.8881,-3.9354,-3.9388,-4.0441,-4.0907,-4.0912,-4.1038,-4.1027,-4.0907,-4.0907,-3.8813,-3.5687,-3.5696,-3.4764,-3.3435,-3.3451,-3.3399,-3.3346,-3.3198,0.0,0.0,0.0,0.0,0.0,0.0,0.0,0.0,0.0,0.0,0.0,0.0,0.0,0.0,0.0,0.0,0.0,0.0,0.0,0.0,0.0,0.0,0.0,0.0,-3.6976,-3.9311,-4.1811,-4.1477,-4.1208,-4.1917,-4.2128,-4.252,-4.3252,-4.4076,-4.4894,-4.5723,-4.645,-4.7031,-4.7368,0.0,0.0,0.0,0.0,-4.6291,-4.4076,-4.6536,-4.7763,-4.7763,-4.7763,-4.7763,-4.7777,-4.7682,-4.6787,-4.5407,-4.6647,-4.6365,-4.5149,-4.6483,-4.6557,-4.5618,-4.3137,-4.2039,-4.1818,-4.1467,-4.1481,-4.1562,0.0,0.0,0.0,0.0,0.0,0.0,0.0,0.0,0.0,-3.1692,-3.1895,-3.2483,-3.4039,-3.4901,-3.5357,-3.5289,-3.404,-3.2383,0.0,0.0,-2.9858,-3.2585,-3.2699,-3.3474,-3.5155,-3.5201,-3.5621,-3.65,-3.7158,-3.7903,-3.8763,-3.9783,-4.0246,-4.0281,-4.0713,-4.0907,-4.0912,-4.1038,-4.1027,-4.0907,-4.0907,-4.0262,-3.9308,-3.9402,-3.9094,-3.8583,-3.869,-3.869,-3.8432,-3.7081,-3.6624,-3.6624,-3.6633,0.0,0.0,0.0,0.0,0.0,0.0,0.0,0.0,0.0,0.0,0.0,0.0,0.0,0.0,0.0,0.0,0.0,0.0,0.0,0.0,-3.8426,-4.0039,-4.1614,-4.2942,-4.3531,-4.382,-4.3867,-4.4466,-4.5163,-4.5891,-4.6115,-4.6409,-4.6784,-4.7536,-4.8332,-4.915,-4.7858,-4.7203,-4.7429,-4.7966,-4.7985,-4.7462,-5.0033,-5.1294,-5.1216,0.0,0.0,-5.1286,-5.0586,-5.0128,-4.9862,-4.8772,-4.8102,-4.7794,-4.7353,-4.7019,-4.6629,-4.4626,-4.3384,-4.2496,-4.0495,-4.0561,-4.1404,0.0,0.0,0.0,0.0,0.0,0.0,0.0,0.0,0.0,0.0,-3.1683,-3.2396,-3.3572,-3.3644,-3.3747,-3.4129,-3.2478,0.0,0.0,-3.1011,-3.171,-3.3864,-3.3941,-3.4342,-3.519,-3.5586,-3.6226,-3.7104,-3.7933,-3.8835,-3.9753,-4.033,-4.0629,-4.0706,-4.0917,-4.0996,-4.0996,-4.1075,-4.1068,-4.0996,-4.0996,-4.081,-4.0545,-4.0582,-4.0508,-4.0353,-4.0341,-4.0316,-4.0119,-3.9233,-3.8974,-3.9007,-3.9033,-3.8482,-3.7475,0.0,0.0,0.0,0.0,0.0,0.0,0.0,0.0,0.0,0.0,0.0,0.0,0.0,0.0,-3.5382,0.0,0.0,-3.8107,-3.9486,-4.0979,-4.2647,-4.4491,-4.5755,-4.6158,-4.5205,-4.5829,-4.6809,-4.7934,-4.8115,-4.8563,-4.9592,-5.0021,-5.0499,-5.1017,-5.0227,-4.9381,-4.8569,-4.9783,-4.9839,-4.855,-5.1083,-5.2328,-5.2303,-5.2303,-5.2332,-5.2342,-5.1907,-5.1732,-5.1722,-5.0355,-4.9807,-4.9805,-4.845,-4.788,-4.7711,-4.6309,-4.5152,-4.4096,-4.2455,-4.2338,-4.2766,0.0,0.0,0.0,0.0,0.0,0.0,0.0,0.0,0.0,0.0,-3.1556,-3.2233,-3.2885,-3.2268,-3.1887,0.0,0.0,0.0,0.0,-3.2603,-3.3549,-3.51,-3.5193,-3.5201,-3.5185,-3.5827,-3.6677,-3.7688,-3.8428,-3.9372,-4.0496,-4.0662,-4.0807,-4.0912,-4.1038,-4.1107,-4.1107,-4.1107,-4.1107,-4.1107,-4.1107,-4.1007,-4.0844,-4.0798,-4.0736,-4.0675,-4.0566,-4.05,-4.0454,-4.0396,-4.0419,-4.0477,-4.0508,-4.0595,-4.0062,-3.698,-3.7013,0.0,0.0,0.0,0.0,0.0,0.0,0.0,0.0,0.0,-3.6104,-3.6329,-3.6761,-3.7159,-3.7378,-3.7962,-3.8983,-4.0736,-4.2065,-4.3699,-4.6019,-4.7713,-4.8168,-4.6759,-4.7335,-4.8384,-4.9811,-5.0045,-5.0685,-5.213,-5.2394,-5.2548,-5.2651,-5.2802,-5.1964,-4.9955,-5.185,-5.1926,-4.9917,-5.1888,-5.2878,-5.2878,-5.2878,-5.2878,-5.2878,-5.2707,-5.2651,-5.2594,-5.1456,-5.1055,-5.1078,-4.9503,-4.8845,-4.8756,-4.7851,-4.6958,-4.6077,-4.5242,-4.4772,-4.4489,0.0,0.0,0.0,0.0,0.0,0.0,0.0,0.0,0.0,0.0,0.0,0.0,0.0,0.0,0.0,0.0,0.0,0.0,-3.0519,-3.2484,-3.4092,-3.5072,-3.5168,-3.5168,-3.511,-3.5255,-3.612,-3.7688,-3.7926,-3.8873,-4.0504,-4.0754,-4.0898,-4.0912,-4.1038,-4.1107,-4.1107,-4.1107,-4.1107,-4.1107,-4.1107,-4.1085,-4.1075,-4.1068,-4.0878,-4.063,-4.0668,-4.0668,-4.0668,-4.0655,-4.0655,-4.0668,-4.0675,-4.0604,-4.0171,-3.8353,0.0,-3.7102,-3.3795,-3.1851,-3.1083,-3.2473,-3.4383,-3.5698,0.0,0.0,-4.0578,-3.8469,-3.9771,-4.1561,-4.2422,-4.2661,-4.3302,-4.5092,-4.5539,-4.6038,-4.7099,-4.8672,-4.9657,-4.9454,-5.0062,-5.0862,-5.1786,-5.19,-5.2035,-5.2338,-5.3091,-5.3541,-5.3556,-5.4238,-5.4484,-5.4219,-5.4484,-5.4484,-5.4219,-5.4484,-5.4617,-5.4617,-5.4617,-5.4617,-5.4598,-5.3878,-5.3556,-5.348,-5.186,-5.1178,-5.1116,-5.0144,-4.9746,-4.9671,-4.8842,-4.841,-4.8158,-4.7151,-4.6304,-4.5618,0.0,0.0,0.0,0.0,0.0,0.0,0.0,0.0,0.0,0.0,0.0,0.0,0.0,0.0,0.0,0.0,0.0,0.0,-3.0203,-3.2489,-3.423,-3.5054,-3.5127,-3.5153,-3.5151,-3.5637,-3.6493,-3.7705,-3.8306,-3.9292,-4.0616,-4.0729,-4.0869,-4.102,-4.1067,-4.1095,-4.1095,-4.1095,-4.1095,-4.1095,-4.1109,-4.1106,-4.1103,-4.1094,-4.1007,-4.0752,-3.9689,-3.93,0.0,0.0,-3.9245,-3.9474,-4.0488,-4.015,-3.9194,-3.854,-3.7547,0.0,-3.5345,-3.5545,0.0,0.0,-3.8137,-3.9442,-3.9048,-4.0541,-4.1854,-4.1323,-4.2412,-4.3603,-4.4062,-4.3767,-4.4051,0.0,-4.5729,-4.6215,-4.8534,-4.9879,-5.1016,-5.2002,-5.149,-5.1012,-5.0875,-5.2199,-5.2687,-5.176,-5.3385,-5.4408,-5.4408,-5.4731,-5.4901,-5.4901,-5.4901,-5.4901,-5.4901,-5.4901,-5.4901,-5.4901,-5.4901,-5.4901,-5.4901,-5.456,-5.4143,-5.3669,-5.2968,-5.2115,-5.1173,-5.0808,-5.0353,-4.9874,-4.9533,-4.9386,-4.9175,-4.7743,-4.6957,-4.6614,0.0,0.0,0.0,0.0,0.0,0.0,0.0,0.0,0.0,0.0,0.0,0.0,0.0,0.0,0.0,0.0,0.0,0.0,0.0,-3.2553,-3.4284,-3.5063,-3.5119,-3.5117,-3.5115,-3.5717,-3.6458,-3.7332,-3.8297,-3.933,-4.0366,-4.0632,-4.0885,-4.1093,-4.1093,-4.1093,-4.1093,-4.1093,-4.1093,-4.1093,-4.1103,-4.1095,-4.107,-4.1081,-4.0799,-4.0202,-3.8844,-3.8358,0.0,0.0,-3.769,-3.8451,-3.8995,-3.8863,-3.8441,-3.8207,-3.7072,-3.5956,-3.625,0.0,0.0,-3.9605,-4.0722,-4.1792,-4.2295,-4.2739,-4.3187,-4.382,-4.4627,-4.5219,-4.5343,-4.4893,-4.5034,-4.6606,-4.6531,-4.7207,-4.9879,-5.1206,-5.2172,-5.293,-5.1945,-5.0491,-4.8672,-5.1419,-5.3025,-5.2286,-5.3878,-5.4901,-5.4901,-5.4901,-5.4901,-5.4901,-5.4901,-5.4901,-5.4901,-5.4901,-5.4901,-5.4901,-5.4901,-5.4901,-5.4901,-5.4901,-5.4579,-5.4029,-5.3802,-5.3006,-5.1836,-5.1381,-5.0827,-5.022,-4.9987,-4.9912,-4.9746,-4.848,-4.7853,-4.761,0.0,0.0,0.0,0.0,0.0,0.0,0.0,0.0,0.0,0.0,0.0,0.0,0.0,0.0,0.0,0.0,0.0,0.0,0.0,-3.2667,-3.4335,-3.5063,-3.516,-3.5107,-3.4898,-3.5067,-3.5576,-3.6439,-3.7436,-3.8484,-3.9552,-4.0464,-4.0974,-4.1093,-4.1093,-4.1093,-4.1093,-4.1093,-4.1093,-4.1093,-4.1093,-4.1059,-4.1013,-4.1089,-4.0045,-3.8575,-3.851,0.0,0.0,0.0,-3.6384,-3.8065,-3.5563,-3.6504,0.0,-3.7487,-3.6609,0.0,0.0,0.0,-3.6094,-3.9131,-4.0373,-4.1267,-4.2881,-4.4458,-4.5604,-4.5622,-4.6317,-4.6951,-4.7005,-4.7066,-4.7399,-4.8375,-4.9213,-5.0069,-5.1035,-5.2589,-5.3044,-5.1471,-5.123,-4.9549,0.0,-4.9478,-5.3086,-5.4674,-5.4863,-5.4901,-5.4901,-5.4901,-5.4901,-5.4901,-5.4901,-5.4901,-5.4901,-5.4901,-5.4901,-5.4901,-5.4901,-5.4901,-5.4901,-5.4901,-5.4901,-5.4825,-5.4048,-5.3669,-5.3499,-5.1869,-5.1173,-5.1092,-5.022,-4.9912,-4.9893,-4.9841,-4.933,-4.8647,0.0,0.0,0.0,0.0,0.0,0.0,0.0,0.0,0.0,0.0,0.0,0.0,0.0,0.0,0.0,0.0,0.0,0.0,0.0,-3.2243,-3.3609,-3.4335,-3.486,-3.5117,-3.5098,-3.511,-3.5538,-3.6392,-3.6838,-3.7861,-3.9439,-3.9842,-4.0413,-4.1093,-4.1093,-4.1083,-4.1028,-4.1028,-4.1028,-4.1025,-4.1036,-4.1026,-4.088,-3.9747,-3.8939,-3.8052,0.0,0.0,0.0,-3.3243,-3.3535,-3.4297,-3.4531,-3.4831,0.0,-3.4079,-3.4717,-3.5766,0.0,0.0,-3.9488,-4.1044,-4.2749,-4.4209,-4.4828,-4.5839,-4.6614,-4.6576,-4.6417,-4.6102,-4.5533,-4.5461,-4.5811,-4.6787,-4.7186,-4.8461,-5.1552,-5.1054,-5.1187,-5.3385,-5.1698,0.0,0.0,0.0,0.0,-4.9957,-5.2977,-5.4901,-5.4901,-5.4901,-5.4901,-5.4901,-5.4901,-5.4636,-5.4105,-5.4105,-5.3821,-5.3252,-5.3252,-5.3252,-5.3271,-5.384,-5.4105,-5.4124,-5.4389,-5.42,-5.3613,-5.2475,-5.1665,-5.1111,-5.0239,-4.9912,-4.9912,-4.9912,-4.9741,-4.9495,0.0,0.0,0.0,0.0,0.0,0.0,0.0,0.0,0.0,0.0,0.0,0.0,0.0,0.0,0.0,0.0,0.0,0.0,0.0,0.0,-3.2889,-3.3619,-3.3799,-3.3882,-3.3904,-3.4174,-3.4596,-3.5177,-3.6176,-3.7336,-3.8587,-3.9307,-3.9997,-4.0658,-4.0951,-4.1081,-4.1044,-4.1044,-4.1044,-4.0986,-4.0374,-4.0126,-3.9916,-3.817,-3.7121,0.0,0.0,0.0,0.0,-3.0442,-3.107,-3.213,-3.2263,-3.28,-3.3334,-3.3028,-3.4605,-3.6584,-3.7153,-3.9586,-4.2192,-4.324,-4.4842,-4.6181,-4.6224,-4.6878,-4.7479,-4.7439,-4.73,-4.6821,-4.5674,-4.5232,-4.5362,-4.6304,-4.6741,-4.8218,-5.185,-5.1505,-5.167,-5.3764,-5.185,-5.0978,0.0,0.0,0.0,-4.878,-5.1978,-5.3996,-5.3981,-5.428,-5.475,-5.5356,-5.5356,-5.4977,-5.4143,-5.384,-5.3271,-5.2385,-5.2385,-5.2385,-5.2419,-5.2987,-5.2911,-5.24,-5.3518,-5.3556,-5.2798,-5.2513,-5.2115,-5.1547,-5.0694,-5.0163,-4.9912,-4.9912,-4.9912,-4.9912,0.0,0.0,0.0,0.0,0.0,0.0,0.0,0.0,0.0,0.0,0.0,0.0,0.0,0.0,0.0,0.0,0.0,0.0,0.0,0.0,0.0,-3.2923,-3.2188,-3.171,-3.1616,-3.2413,-3.2845,-3.2861,-3.5301,-3.6593,-3.688,-3.8582,-3.9435,-3.9584,-4.0444,-4.0834,-4.0833,-4.0833,-4.0833,-4.0696,-3.9096,-3.8417,-3.8171,-3.6433,0.0,0.0,0.0,0.0,0.0,0.0,0.0,0.0,0.0,0.0,-3.3535,-3.4209,-3.6118,-3.8125,-3.8676,-4.1144,-4.3932,-4.5432,-4.6445,-4.7068,-4.7068,-4.7687,-4.8247,-4.8172,-4.866,-4.8623,-4.6936,-4.5994,-4.5781,-4.669,-4.7664,-4.9207,-5.1811,-5.3551,-5.4016,0.0,0.0,0.0,0.0,0.0,0.0,-5.1159,0.0,-5.2579,-5.2574,-5.3413,-5.4617,-5.6209,-5.6209,-5.5773,-5.492,-5.4029,-5.3158,-5.2343,-5.2291,-5.2267,-5.2267,-5.231,-5.1471,-5.0063,-5.1698,-5.1987,-5.1395,-5.2101,-5.2385,-5.231,-5.1514,-5.0675,-4.9912,-4.9912,-4.9912,-4.9912,0.0,0.0,0.0,0.0,0.0,0.0,0.0,0.0,0.0,0.0,0.0,0.0,0.0,0.0,0.0,0.0,0.0,0.0,0.0,0.0,0.0,0.0,0.0,0.0,0.0,0.0,0.0,0.0,0.0,-3.2536,-3.3255,-3.444,-3.5362,-3.6031,-3.687,-3.723,-3.723,-3.723,-3.723,-3.7191,0.0,-3.6579,-3.637,0.0,0.0,0.0,0.0,0.0,0.0,0.0,0.0,0.0,0.0,-3.3657,-3.3496,-3.4302,-3.6187,-3.8163,-3.8966,-4.1762,-4.4719,-4.5754,-4.6962,-4.7894,-4.7894,-4.8593,-4.8901,-4.7644,-4.5693,-4.3668,-4.1876,-4.0429,-4.0378,-4.3083,-4.4725,0.0,-5.0046,-5.0875,0.0,-5.2218,0.0,-5.2376,-5.3135,-5.3682,0.0,0.0,-5.4,-5.5489,-5.608,-5.6341,-5.6645,-5.7081,-5.6412,-5.5693,-5.492,-5.2873,-5.1722,-5.1509,-5.0846,-5.0542,-5.0561,-5.1206,-5.1282,-5.094,-5.1964,-5.2651,-5.3025,-5.2589,-5.2385,-5.231,-5.1514,-5.0675,-4.9912,-4.9912,-4.9912,-4.9912,0.0,0.0,0.0,0.0,0.0,0.0,0.0,0.0,0.0,0.0,0.0,0.0,0.0,0.0,0.0,0.0,0.0,0.0,0.0,0.0,0.0,0.0,0.0,0.0,0.0,0.0,0.0,0.0,0.0,0.0,0.0,-3.2574,-3.3092,-3.3617,-3.4825,-3.5366,-3.539,-3.578,0.0,0.0,0.0,0.0,0.0,0.0,0.0,0.0,0.0,0.0,0.0,0.0,0.0,-3.2678,-3.6003,-3.6117,-3.5385,-3.7318,0.0,-3.9953,-4.1096,-4.3435,-4.5657,-4.615,-4.7124,-4.7795,-4.7042,-4.7282,-4.7081,-4.4991,-4.3452,0.0,-3.97,-3.8515,0.0,0.0,0.0,0.0,-4.93,-5.0123,-5.078,0.0,-5.2328,0.0,-5.4647,-5.5216,-5.5208,0.0,-5.4886,-5.5436,-5.6216,-5.6648,-5.7213,-5.7952,-5.745,-5.645,-5.486,-5.274,-5.149,-5.1093,-5.0282,-4.9912,-4.9931,-5.041,-5.0239,-4.9595,0.0,-5.1585,-5.204,-5.2305,-5.2385,-5.2347,-5.1893,-5.0978,-4.9912,-4.9912,-4.9912,-4.9912,0.0,0.0,0.0,0.0,0.0,0.0,0.0,0.0,0.0,0.0,0.0,0.0,0.0,0.0,0.0,0.0,0.0,0.0,0.0,0.0,0.0,0.0,0.0,0.0,0.0,0.0,0.0,0.0,0.0,0.0,0.0,0.0,0.0,0.0,0.0,0.0,0.0,0.0,0.0,0.0,0.0,0.0,0.0,0.0,0.0,0.0,0.0,0.0,0.0,0.0,-3.4342,-3.3187,-3.7484,-3.8324,-3.8251,-4.0989,-4.1955,-4.2387,-4.3671,-4.5269,-4.657,-4.6684,-4.7209,-4.7322,-4.5861,-4.5277,-4.4321,-4.1826,0.0,-4.0988,-3.888,-3.8498,-3.9547,-4.2784,0.0,-4.4834,-4.862,-5.0032,-5.0987,-5.1857,-5.2151,-5.2945,-5.4632,-5.5428,-5.6269,-5.7308,-5.5492,-5.4667,-5.5447,-5.625,-5.7308,-5.8621,-5.8546,-5.734,-5.4975,-5.329,-5.2061,-5.1305,-5.0563,-5.0212,-5.0193,-5.0093,-4.924,-4.7952,-4.9424,-5.0126,-5.0353,-5.1926,-5.2556,-5.2556,-5.2442,-5.1452,-5.0063,-4.995,-4.9912,-4.9912,0.0,0.0,0.0,0.0,0.0,0.0,0.0,0.0,0.0,0.0,0.0,0.0,0.0,0.0,0.0,0.0,0.0,0.0,0.0,0.0,0.0,0.0,0.0,0.0,0.0,0.0,0.0,0.0,0.0,0.0,0.0,0.0,0.0,0.0,0.0,0.0,0.0,0.0,0.0,0.0,0.0,0.0,0.0,0.0,0.0,0.0,0.0,0.0,0.0,0.0,-3.5137,-3.4931,-3.9276,-4.0545,-4.0386,-4.0234,-4.1622,-4.3296,-4.3602,-4.5189,-4.6934,-4.77,-4.7799,-4.7614,-4.733,-4.5638,0.0,0.0,0.0,-3.6631,-3.6862,-3.7501,0.0,-4.1301,0.0,0.0,0.0,0.0,-4.9956,0.0,0.0,0.0,0.0,0.0,0.0,0.0,0.0,-5.7999,-5.896,-5.9165,-5.9022,-5.8476,-5.7742,-5.6805,-5.563,-5.4016,-5.3138,-5.2971,-5.2175,-5.1813,-5.1775,-5.1097,-5.0653,-5.0388,-5.0799,0.0,-5.204,-5.3063,-5.348,-5.3404,-5.2684,-5.1831,-5.0884,-5.0163,-4.9912,-4.9912,0.0,0.0,0.0,0.0,0.0,0.0,0.0,0.0,0.0,0.0,-2.9593,-3.0174,0.0,0.0,0.0,0.0,0.0,0.0,0.0,0.0,0.0,0.0,0.0,0.0,0.0,0.0,0.0,0.0,0.0,0.0,0.0,0.0,0.0,0.0,0.0,0.0,0.0,0.0,0.0,0.0,0.0,0.0,0.0,0.0,0.0,0.0,0.0,0.0,0.0,0.0,-3.4018,-3.4216,-3.9454,-4.1107,-4.0932,-4.0058,-4.1581,-4.3549,-4.3557,-4.4962,-4.6636,-4.7508,-4.7274,-4.6359,-4.4567,0.0,0.0,0.0,0.0,-3.4135,-3.4058,0.0,0.0,0.0,0.0,0.0,0.0,0.0,0.0,0.0,0.0,0.0,0.0,0.0,0.0,0.0,0.0,-5.8346,-5.9765,-5.977,-5.9513,-5.9031,-5.7735,-5.6853,-5.6425,-5.4369,-5.3346,-5.3346,-5.2567,-5.2201,-5.2183,-5.1798,-5.1389,-5.1036,-5.1552,0.0,-5.0637,-5.2817,-5.2911,-5.1774,-5.2229,-5.1912,-5.1078,-5.022,-4.9912,-4.9912,0.0,0.0,0.0,0.0,0.0,0.0,0.0,-3.0963,-3.0256,-2.8593,-2.8868,-2.9327,-2.957,-3.0371,0.0,0.0,0.0,0.0,0.0,0.0,0.0,0.0,0.0,0.0,0.0,0.0,0.0,0.0,0.0,0.0,0.0,0.0,0.0,0.0,0.0,0.0,0.0,0.0,0.0,0.0,0.0,0.0,0.0,0.0,0.0,0.0,0.0,0.0,0.0,0.0,-3.2937,-3.3261,-3.8386,-3.998,-4.0,-4.0058,-4.1497,-4.3244,-4.4129,-4.5209,-4.6299,-4.7116,-4.6652,-4.5157,-4.19,-4.0208,0.0,0.0,-3.2947,-3.2526,-3.2355,0.0,0.0,0.0,0.0,0.0,0.0,0.0,0.0,0.0,0.0,0.0,0.0,0.0,0.0,0.0,0.0,0.0,-5.9664,-5.9633,-5.9581,-5.9581,-5.7892,-5.6974,-5.6974,-5.4679,-5.3532,-5.3532,-5.2937,-5.2573,-5.2419,-5.2246,-5.1805,-5.1242,-5.1985,0.0,0.0,-5.257,-5.2456,-5.0334,-5.1831,-5.2006,-5.1324,-5.0277,-4.9912,-4.9912,0.0,0.0,0.0,0.0,0.0,0.0,0.0,-3.2164,-3.1111,-2.9483,-2.8723,-2.8641,-2.9512,-3.0371,0.0,0.0,0.0,0.0,0.0,0.0,0.0,0.0,0.0,0.0,0.0,0.0,0.0,0.0,0.0,0.0,0.0,0.0,0.0,0.0,0.0,0.0,0.0,0.0,0.0,0.0,0.0,0.0,0.0,0.0,0.0,0.0,0.0,0.0,0.0,0.0,0.0,-3.3634,-3.5729,-3.6387,-3.698,-4.0078,0.0,0.0,-4.6075,-4.6633,-4.6307,-4.7163,-4.6697,-4.5298,-4.2595,0.0,0.0,0.0,-3.2435,-3.1497,-3.3666,-3.4826,-3.6852,0.0,0.0,0.0,0.0,0.0,0.0,0.0,0.0,0.0,0.0,0.0,0.0,0.0,0.0,0.0,-5.9616,-5.9564,-5.9511,-5.9511,-5.7822,-5.6905,-5.6905,-5.5177,-5.4313,-5.4313,-5.4219,-5.3823,-5.3071,-5.2347,-5.1983,-5.1924,-5.2186,0.0,0.0,-5.3375,-5.3328,-5.1173,-5.2044,-5.2347,-5.2115,-5.0486,-4.9912,-4.9912,0.0,0.0,0.0,0.0,0.0,0.0,0.0,-3.2763,-3.1593,-2.8868,-2.876,-2.8675,-2.7985,-2.9236,-3.0332,0.0,0.0,0.0,0.0,0.0,0.0,0.0,0.0,0.0,0.0,0.0,0.0,0.0,0.0,0.0,0.0,0.0,0.0,0.0,0.0,0.0,0.0,0.0,0.0,0.0,0.0,0.0,0.0,0.0,0.0,0.0,0.0,0.0,0.0,0.0,0.0,0.0,-3.1846,-3.2046,0.0,0.0,-3.9396,-4.2081,-4.3312,-4.4842,-4.6312,-4.7185,-4.6717,-4.5094,-4.1422,0.0,0.0,-3.3601,-3.1618,-3.0835,-3.1825,-3.269,-3.4473,0.0,0.0,0.0,0.0,0.0,0.0,0.0,0.0,0.0,0.0,0.0,0.0,0.0,0.0,0.0,-5.9656,-5.949,-5.9383,-5.9383,-5.7769,-5.6887,-5.6887,-5.5235,-5.4165,-5.3693,-5.3693,-5.3226,-5.24,-5.2094,-5.1957,-5.2024,-5.2649,0.0,0.0,-5.2809,-5.246,-4.9086,-5.1462,-5.2385,-5.221,-5.0505,-4.9912,-4.9912,0.0,0.0,0.0,0.0,0.0,0.0,-3.3614,-3.323,-3.2222,-2.9767,-2.9418,-2.9041,-2.8099,-2.8937,-2.9824,-3.0468,0.0,0.0,0.0,0.0,0.0,0.0,0.0,0.0,0.0,0.0,0.0,0.0,0.0,0.0,0.0,0.0,0.0,0.0,0.0,0.0,0.0,0.0,0.0,0.0,0.0,0.0,0.0,0.0,0.0,0.0,0.0,0.0,0.0,0.0,0.0,0.0,0.0,0.0,0.0,0.0,-3.7714,-4.1279,-4.1711,-4.3934,-4.6275,-4.6894,-4.6184,-4.4258,0.0,0.0,-3.6451,-3.2304,-3.0955,-3.052,-3.0501,-3.0963,-3.2568,0.0,0.0,0.0,0.0,0.0,0.0,0.0,0.0,0.0,0.0,0.0,0.0,0.0,0.0,0.0,-5.9497,-5.9086,-5.8848,-5.8933,-5.7619,-5.6774,-5.6512,-5.4878,-5.3783,-5.3279,-5.3034,-5.2268,-5.1024,-5.1533,-5.1506,-5.1154,-5.2458,0.0,0.0,-5.2651,-5.2254,-4.8626,-5.1306,-5.2357,-5.2182,-5.0505,-4.9912,-4.9912,0.0,0.0,0.0,0.0,0.0,0.0,0.0,-3.3616,-3.3093,-3.305,-3.0927,-2.9749,-3.0664,-3.0006,-2.9528,-2.9606,0.0,0.0,0.0,0.0,0.0,0.0,0.0,0.0,0.0,0.0,0.0,-3.08,-3.0001,0.0,0.0,0.0,0.0,0.0,0.0,0.0,0.0,0.0,0.0,0.0,0.0,0.0,0.0,0.0,0.0,0.0,0.0,0.0,0.0,0.0,0.0,0.0,0.0,0.0,0.0,0.0,-3.6475,-3.928,-4.2663,-4.4851,-4.6196,-4.6215,-4.4857,-4.2626,0.0,0.0,-3.4851,-3.1335,-3.0603,-3.0579,-3.0515,-3.0515,-3.1915,-3.6195,0.0,0.0,0.0,0.0,0.0,0.0,0.0,0.0,0.0,0.0,0.0,0.0,0.0,0.0,-5.9019,-5.8184,-5.784,-5.8107,-5.7319,-5.6493,-5.5612,-5.4015,-5.3314,-5.3493,-5.2693,-5.1114,-4.8995,-5.0653,-5.05,-4.906,0.0,0.0,0.0,-5.335,-5.3182,-5.0956,-5.1914,-5.2303,-5.2109,-5.0491,-4.9912,-4.9912,0.0,0.0,0.0,0.0,0.0,0.0,0.0,-3.5005,-3.4441,-3.3252,-3.1938,-3.0788,-2.9941,-2.9609,-2.9437,-2.9469,0.0,0.0,0.0,0.0,0.0,0.0,0.0,0.0,0.0,0.0,-3.0522,-2.9973,-2.9713,-2.93,-2.8713,0.0,0.0,0.0,0.0,0.0,0.0,0.0,0.0,0.0,0.0,0.0,0.0,0.0,0.0,0.0,0.0,0.0,0.0,0.0,0.0,0.0,0.0,0.0,0.0,0.0,0.0,0.0,-3.8769,-4.0935,-4.2572,-4.1968,-4.1841,-4.0951,-3.7472,0.0,-3.4862,-3.1324,-3.0591,-3.0603,-3.0634,-3.0558,-3.1912,-3.627,-3.7132,0.0,0.0,0.0,0.0,0.0,0.0,0.0,0.0,0.0,0.0,0.0,0.0,0.0,-5.8326,-5.7946,-5.7739,-5.7821,-5.7042,-5.6118,-5.5054,-5.4149,-5.3067,-5.1874,-5.179,-5.0772,-4.9021,-5.0136,-5.0336,0.0,0.0,0.0,0.0,-5.2247,-5.1936,-4.9825,-5.1305,-5.1889,-5.1744,-5.0475,-5.007,-5.0076,0.0,0.0,0.0,0.0,0.0,0.0,0.0,-3.5171,-3.4944,-3.4188,-3.3096,-3.1879,-3.048,-3.0058,-2.9725,-2.9433,0.0,0.0,0.0,0.0,0.0,0.0,0.0,0.0,0.0,-3.037,-2.9938,-2.9115,-2.8778,-2.8344,-2.7795,-2.7464,-2.7034,0.0,0.0,0.0,0.0,0.0,0.0,0.0,0.0,0.0,-3.0349,0.0,0.0,0.0,0.0,0.0,0.0,0.0,0.0,0.0,0.0,0.0,0.0,0.0,-3.0477,0.0,0.0,-3.7881,-3.9575,-3.9322,-3.9205,0.0,0.0,0.0,-3.3706,-3.1154,-3.141,-3.1786,-3.0862,-3.168,-3.3175,-3.5227,-3.7417,0.0,0.0,0.0,0.0,0.0,0.0,0.0,0.0,0.0,0.0,0.0,0.0,0.0,-5.7744,-5.7335,-5.6917,-5.6629,-5.6206,-5.5515,-5.4504,-5.3493,-5.2459,-5.1434,-5.1621,-5.0866,-4.9379,-5.0518,-5.0692,0.0,0.0,0.0,0.0,-5.2004,-5.1863,-5.0572,-5.1338,-5.1647,-5.1535,-5.0562,-5.024,-5.0252,0.0,0.0,0.0,0.0,0.0,0.0,0.0,0.0,0.0,0.0,-3.4156,-3.287,-3.2,-3.1121,-3.0305,0.0,0.0,0.0,0.0,0.0,0.0,0.0,0.0,0.0,0.0,-2.9531,-2.9062,-2.8196,-2.7396,-2.6965,-2.6884,-2.6082,-2.5691,-2.5691,-2.5706,-2.5707,-2.5751,-2.6698,-2.7049,-2.7141,-2.8895,-2.9598,0.0,0.0,0.0,0.0,0.0,0.0,0.0,0.0,0.0,0.0,0.0,0.0,0.0,0.0,0.0,0.0,0.0,0.0,0.0,0.0,0.0,0.0,0.0,0.0,0.0,-3.1128,-3.287,-3.3802,-3.1494,-3.381,-3.5536,-3.3837,0.0,0.0,0.0,0.0,0.0,0.0,0.0,0.0,0.0,0.0,0.0,0.0,0.0,0.0,-5.7037,-5.6272,-5.5498,-5.4744,-5.4897,-5.463,-5.3863,-5.2324,-5.1645,-5.1829,-5.1974,-5.1289,-4.995,-5.1651,-5.1522,0.0,0.0,0.0,0.0,-5.2545,-5.2759,-5.2689,-5.1877,-5.1557,-5.1469,-5.0706,-5.0427,-5.0427,0.0,0.0,0.0,0.0,0.0,0.0,0.0,0.0,0.0,0.0,0.0,-3.2779,-3.1927,-3.1099,0.0,0.0,0.0,0.0,0.0,0.0,0.0,0.0,0.0,0.0,0.0,-2.8849,-2.8097,-2.7226,-2.7019,-2.6575,-2.5933,-2.5779,-2.5661,-2.5621,-2.5681,-2.5661,-2.5718,-2.7263,-2.7906,-2.8058,-2.9781,-3.0483,0.0,0.0,0.0,0.0,-3.0807,-3.0797,0.0,0.0,0.0,0.0,0.0,0.0,0.0,0.0,-2.621,-2.6581,-2.8248,0.0,-3.3176,-3.2641,0.0,0.0,0.0,0.0,0.0,0.0,0.0,0.0,0.0,0.0,0.0,0.0,0.0,0.0,0.0,0.0,0.0,0.0,0.0,0.0,0.0,0.0,0.0,0.0,0.0,-5.4448,-5.4389,-5.4258,-5.4079,-5.3882,-5.3348,-5.2835,-5.2396,-5.226,-5.1482,-5.0105,-5.1645,-5.1508,-4.9989,-5.2361,-5.288,0.0,0.0,0.0,-5.3259,-5.341,-5.3073,-5.2468,-5.2267,-5.179,-5.1189,-5.0827,-5.0745,-5.0745,0.0,0.0,0.0,0.0,0.0,0.0,0.0,0.0,0.0,0.0,0.0,0.0,0.0,0.0,0.0,0.0,0.0,0.0,0.0,0.0,0.0,0.0,0.0,0.0,-2.8868,-2.8022,-2.7172,-2.6298,-2.631,-2.6065,-2.5606,-2.5647,-2.5629,-2.5609,-2.5632,-2.5627,-2.5694,-2.703,-2.7592,-2.7756,-2.9476,0.0,0.0,0.0,0.0,0.0,-3.0755,-3.0526,0.0,-3.0117,-2.9606,-2.883,0.0,0.0,0.0,0.0,-2.5598,-2.5699,-2.6179,-2.8245,-3.0522,-3.1614,-3.2,-3.2295,0.0,0.0,0.0,0.0,0.0,0.0,0.0,0.0,0.0,0.0,0.0,0.0,0.0,0.0,0.0,0.0,0.0,0.0,0.0,0.0,0.0,0.0,0.0,-5.3575,-5.3548,-5.3604,-5.345,-5.3061,-5.3034,-5.2763,-5.2184,-5.2356,-5.153,-4.9767,-5.2451,-5.2835,-5.1205,-5.3395,-5.4143,0.0,0.0,0.0,-5.3578,-5.2018,-5.1783,-5.2408,-5.1972,-5.153,-5.1134,-5.0998,-5.0972,-5.0972,0.0,0.0,0.0,0.0,0.0,0.0,0.0,0.0,0.0,0.0,0.0,0.0,0.0,0.0,0.0,0.0,0.0,0.0,0.0,0.0,0.0,0.0,0.0,-2.8873,-2.8189,-2.7201,-2.6329,-2.5576,-2.544,-2.5451,-2.5608,-2.5453,-2.5477,-2.5599,-2.5599,-2.5666,-2.5859,-2.6738,-2.7173,-2.7422,-2.8985,0.0,0.0,0.0,0.0,0.0,0.0,0.0,0.0,-3.0057,-2.9353,-2.8244,-2.7991,0.0,0.0,0.0,0.0,0.0,-2.5765,-2.7028,-2.9072,-3.2299,-3.1997,-3.1585,0.0,0.0,0.0,0.0,0.0,0.0,0.0,0.0,0.0,0.0,0.0,0.0,0.0,0.0,0.0,0.0,0.0,0.0,0.0,0.0,0.0,0.0,0.0,-5.3236,-5.3236,-5.3294,-5.304,-5.2432,-5.3194,-5.3322,-5.2714,-5.2719,-5.1925,-5.0443,-5.3654,-5.4355,-5.2855,-5.4534,-5.5312,-5.5151,0.0,0.0,-5.3699,-5.0798,-5.0752,-5.2441,-5.1636,-5.1277,-5.1215,-5.115,-5.1128,-5.1128,0.0,0.0,0.0,0.0,0.0,0.0,0.0,0.0,0.0,0.0,0.0,0.0,0.0,0.0,0.0,0.0,0.0,0.0,0.0,0.0,0.0,0.0,-2.8663,-2.8167,-2.8032,-2.6517,-2.5653,-2.5511,-2.4778,-2.482,-2.5587,-2.4846,-2.4895,-2.5603,-2.5603,-2.6009,-2.6765,-2.7627,-2.843,-2.9187,-3.0185,0.0,0.0,0.0,0.0,0.0,0.0,0.0,0.0,-2.7959,-2.7851,-2.8049,-2.6566,0.0,0.0,0.0,0.0,0.0,-2.6519,-2.7967,-2.9758,-3.1702,-3.1994,-3.2493,0.0,0.0,0.0,0.0,0.0,0.0,0.0,0.0,0.0,0.0,0.0,0.0,0.0,0.0,0.0,0.0,0.0,0.0,0.0,0.0,0.0,0.0,0.0,-5.1564,-5.1567,-5.1634,-5.1921,-5.246,-5.2689,-5.3061,-5.3684,-5.3684,-5.3182,-5.2236,-5.4238,-5.4667,-5.3751,-5.5485,-5.6279,-5.626,0.0,-5.5297,-5.4922,-5.4396,-5.3544,-5.2574,-5.2429,-5.1927,-5.1288,-5.1261,-5.128,-5.1248,0.0,0.0,0.0,0.0,0.0,0.0,0.0,0.0,0.0,0.0,0.0,0.0,0.0,0.0,0.0,0.0,0.0,0.0,0.0,0.0,0.0,-2.9345,-2.8474,-2.7778,-2.731,-2.6587,-2.5739,-2.4807,-2.4865,-2.4879,-2.4852,-2.4959,-2.5229,-2.5629,-2.6085,-2.6515,-2.6985,-2.832,-2.9131,-2.9579,0.0,0.0,0.0,0.0,0.0,0.0,0.0,0.0,0.0,0.0,-2.7594,-2.7458,-2.6601,0.0,0.0,0.0,0.0,0.0,-2.6102,-2.7805,-3.0236,-3.3333,-3.3407,-3.3864,0.0,0.0,0.0,0.0,0.0,0.0,0.0,0.0,0.0,0.0,0.0,0.0,0.0,0.0,0.0,0.0,0.0,0.0,0.0,0.0,0.0,0.0,0.0,0.0,-5.1955,-5.2435,-5.2877,-5.3234,-5.3743,-5.4199,-5.4589,-5.5061,-5.4398,-5.2625,-5.4846,-5.5197,-5.397,-5.5704,-5.6507,-5.6409,0.0,-5.4262,-5.5018,-5.2703,-5.208,-5.2547,-5.208,-5.1651,-5.13,-5.13,-5.13,-5.1288,0.0,0.0,0.0,0.0,0.0,0.0,0.0,0.0,0.0,0.0,0.0,0.0,0.0,0.0,0.0,0.0,0.0,0.0,0.0,0.0,-3.0119,-2.904,-2.8363,-2.7585,-2.6721,-2.6378,-2.5549,-2.4196,-2.4486,-2.4381,-2.3934,-2.5063,-2.5609,-2.5621,-2.6304,-2.6704,-2.6996,-2.854,-2.9309,-2.9581,0.0,0.0,0.0,0.0,0.0,0.0,0.0,0.0,0.0,0.0,0.0,0.0,0.0,0.0,0.0,-2.5801,-2.5642,-2.5765,-2.6113,-2.7827,-3.048,-3.4561,0.0,0.0,0.0,0.0,0.0,0.0,0.0,0.0,0.0,0.0,0.0,0.0,0.0,0.0,0.0,0.0,0.0,0.0,0.0,0.0,0.0,0.0,0.0,0.0,0.0,0.0,-5.2892,-5.3533,-5.3985,-5.4199,-5.4842,-5.529,-5.5509,-5.6171,-5.5494,-5.3541,-5.5533,-5.5801,-5.4554,-5.5883,-5.639,-5.6054,-5.3366,-5.3112,-5.4336,-5.1047,-5.0716,-5.2236,-5.1554,-5.13,-5.13,-5.13,-5.13,-5.1288,0.0,0.0,0.0,0.0,0.0,0.0,0.0,0.0,0.0,0.0,0.0,0.0,0.0,0.0,0.0,0.0,0.0,0.0,0.0,0.0,-2.9852,-2.8171,-2.8035,-2.7597,-2.6725,-2.5182,-2.4335,-2.4196,-2.2691,-2.2352,-2.3124,-2.4803,-2.5598,-2.5601,-2.5664,-2.6147,-2.6967,-2.7894,-2.8756,-2.9572,-3.0448,0.0,0.0,0.0,0.0,0.0,0.0,0.0,0.0,0.0,0.0,0.0,0.0,0.0,-2.5684,-2.5625,-2.5657,-2.6035,-2.7597,-2.873,-3.0345,-3.3814,0.0,0.0,0.0,0.0,0.0,0.0,0.0,0.0,0.0,0.0,0.0,0.0,0.0,0.0,0.0,0.0,0.0,0.0,0.0,0.0,0.0,0.0,0.0,0.0,0.0,0.0,-5.381,-5.3868,-5.4277,-5.5076,-5.5173,-5.5587,-5.6409,-5.6468,-5.6409,-5.6215,-5.6409,-5.6429,-5.6312,-5.6448,-5.6054,-5.5271,-5.5037,-5.4102,-5.2762,-5.245,-5.1963,-5.1398,-5.132,-5.13,-5.13,-5.13,-5.13,-5.13,0.0,0.0,0.0,0.0,0.0,0.0,0.0,0.0,0.0,0.0,0.0,0.0,0.0,0.0,0.0,0.0,0.0,0.0,0.0,0.0,-2.9268,-2.8057,-2.7477,-2.6792,-2.5971,-2.5325,-2.4478,-2.3383,-2.2768,-2.2894,-2.376,-2.4981,-2.557,-2.564,-2.6721,-2.7403,-2.7768,-2.8634,-2.9204,-2.9476,-2.9262,-2.8989,0.0,0.0,0.0,0.0,0.0,0.0,0.0,0.0,-2.5641,-2.565,-2.5646,-2.5624,-2.5603,-2.5598,-2.5618,-2.5894,-2.707,-2.8817,-3.1256,-3.5234,0.0,0.0,0.0,0.0,0.0,0.0,0.0,0.0,0.0,0.0,0.0,0.0,0.0,0.0,0.0,0.0,0.0,0.0,0.0,0.0,0.0,0.0,0.0,0.0,0.0,0.0,-5.4706,-5.5217,-5.5665,-5.5996,-5.6015,-5.6171,-5.6507,-5.6507,-5.6507,-5.6507,-5.6507,-5.6507,-5.6487,-5.5937,-5.5509,-5.5134,-5.4043,-5.321,-5.2567,-5.2021,-5.1593,-5.13,-5.13,-5.13,-5.13,-5.13,-5.13,-5.13,0.0,0.0,0.0,0.0,0.0,0.0,0.0,0.0,0.0,0.0,0.0,0.0,0.0,0.0,0.0,0.0,0.0,0.0,0.0,-2.9785,-2.89,-2.8038,-2.7174,-2.6319,-2.5519,-2.5236,-2.4516,-2.331,-2.3595,-2.3895,-2.4231,-2.5673,-2.6227,-2.6065,-2.7546,-2.8206,-2.824,-2.8831,-2.9087,-2.9048,-2.8444,-2.8035,0.0,0.0,0.0,0.0,0.0,0.0,0.0,0.0,-2.5617,-2.56,0.0,-2.5589,-2.56,-2.56,-2.5797,-2.6263,-2.7402,-2.923,-3.176,0.0,0.0,0.0,0.0,0.0,0.0,0.0,0.0,0.0,0.0,0.0,0.0,0.0,0.0,0.0,0.0,0.0,0.0,0.0,0.0,0.0,0.0,0.0,0.0,0.0,0.0,0.0,0.0,-5.6171,-5.6507,-5.6507,-5.6507,-5.6507,-5.6507,-5.6234,-5.6093,-5.6093,-5.5801,-5.5821,-5.6054,-5.5197,-5.4647,-5.4316,-5.3112,-5.245,-5.2138,-5.1554,-5.13,-5.13,-5.13,-5.13,-5.13,-5.13,-5.13,-5.13,0.0,0.0,0.0,0.0,0.0,0.0,0.0,0.0,0.0,0.0,0.0,0.0,0.0,0.0,0.0,0.0,0.0,0.0,-3.0583,-2.9766,-2.8889,-2.8035,-2.7144,-2.6327,-2.5534,-2.4667,-2.4215,-2.4215,-2.5078,-2.5076,-2.431,-2.6946,-2.7731,-2.6933,-2.7831,-2.823,-2.8191,-2.821,-2.821,-2.8191,-2.8171,-2.7665,-2.6885,0.0,0.0,0.0,0.0,0.0,0.0,0.0,-2.5654,-2.5604,0.0,0.0,0.0,-2.5623,-2.6222,-2.7263,-2.9036,-3.0144,-3.1629,0.0,0.0,0.0,0.0,0.0,0.0,0.0,0.0,0.0,0.0,0.0,0.0,0.0,0.0,0.0,0.0,0.0,0.0,0.0,0.0,0.0,0.0,0.0,0.0,0.0,0.0,0.0,0.0,-5.6507,-5.6507,-5.6507,-5.6487,-5.6487,-5.6487,-5.5626,-5.5193,-5.5173,-5.4297,-5.4336,-5.5154,-5.4297,-5.3424,-5.2606,-5.2586,-5.2099,-5.13,-5.13,-5.13,-5.13,-5.13,-5.13,-5.13,-5.13,-5.13,-5.13,0.0,0.0,0.0,0.0,0.0,0.0,0.0,0.0,0.0,0.0,0.0,0.0,0.0,0.0,0.0,0.0,0.0,0.0,0.0,-2.8341,-2.7408,-2.7101,-2.6304,-2.6014,-2.6347,-2.6091,-2.5681,-2.512,-2.5428,-2.6042,-2.6951,-2.7125,-2.7107,-2.7011,-2.9685,-2.954,-2.7411,-2.9243,-2.897,-2.7236,-2.6673,-2.6283,-2.6069,0.0,0.0,0.0,0.0,0.0,0.0,0.0,0.0,0.0,-2.5593,0.0,-2.595,-2.7799,-2.7213,-2.6765,-3.0359,-3.1074,0.0,0.0,0.0,0.0,0.0,0.0,0.0,0.0,0.0,0.0,0.0,0.0,0.0,0.0,0.0,0.0,0.0,0.0,0.0,0.0,0.0,0.0,0.0,0.0,0.0,0.0,0.0,0.0,0.0,-5.6507,-5.6507,-5.6507,-5.5918,-5.5587,-5.5587,-5.473,-5.4297,-5.4277,-5.3405,-5.3444,-5.4258,-5.3385,-5.284,-5.2567,-5.1943,-5.1534,-5.13,-5.13,-5.13,-5.13,-5.13,-5.13,-5.13,-5.13,-5.13,-5.13,0.0,0.0,0.0,0.0,0.0,0.0,0.0,0.0,0.0,0.0,0.0,0.0,0.0,0.0,0.0,0.0,0.0,0.0,0.0,0.0,-2.6912,-2.7202,-2.642,-2.6203,-2.6683,-2.7075,-2.685,-2.6029,-2.6058,-2.6423,-2.7119,-2.7629,-2.7709,-2.753,-3.0294,-3.0185,-2.8015,-2.9243,-2.8658,-2.6827,-2.603,-2.5699,-2.5699,0.0,0.0,0.0,0.0,0.0,0.0,0.0,0.0,0.0,-2.5619,0.0,0.0,-2.7787,-2.7792,-2.8352,-3.1718,0.0,0.0,0.0,0.0,0.0,0.0,0.0,0.0,0.0,0.0,0.0,0.0,0.0,0.0,0.0,0.0,0.0,0.0,0.0,0.0,0.0,0.0,0.0,0.0,0.0,0.0,0.0,0.0,0.0,0.0,-5.5665,-5.547,-5.547,-5.4963,-5.4686,-5.4686,-5.381,-5.3385,-5.3366,-5.2508,-5.2353,-5.2859,-5.2314,-5.208,-5.206,-5.1534,-5.13,-5.13,-5.13,-5.13,-5.13,-5.13,-5.13,-5.13,-5.13,-5.13,-5.13,0.0,0.0,0.0,0.0,0.0,0.0,0.0,0.0,0.0,0.0,0.0,0.0,0.0,0.0,0.0,0.0,0.0,0.0,0.0,0.0,-2.7032,-2.7842,-2.7279,-2.6938,-2.6938,-2.7699,-2.7702,-2.6911,-2.6832,-2.6478,-2.5898,-2.8267,-2.8968,-2.8288,-3.0119,-3.0295,-2.9223,-2.858,-2.7723,-2.6729,-2.5991,-2.5699,-2.5699,-2.5699,0.0,0.0,0.0,0.0,0.0,0.0,0.0,0.0,-2.563,-2.7242,-2.8727,-2.6582,-2.8169,-3.1035,0.0,0.0,0.0,0.0,0.0,0.0,0.0,0.0,0.0,0.0,0.0,0.0,0.0,0.0,0.0,0.0,0.0,0.0,0.0,0.0,0.0,0.0,0.0,0.0,0.0,0.0,0.0,0.0,0.0,0.0,0.0,-5.4336,-5.3907,-5.3907,-5.381,-5.3771,-5.3771,-5.2918,-5.2489,-5.2469,-5.169,-5.13,-5.13,-5.13,-5.13,-5.13,-5.13,-5.13,-5.13,-5.13,-5.13,-5.13,-5.13,-5.13,-5.13,-5.13,-5.13,-5.13,0.0,0.0,0.0,0.0,0.0,0.0,0.0,0.0,0.0,0.0,0.0,0.0,0.0,0.0,0.0,0.0,0.0,0.0,0.0,0.0,-2.615,-2.6946,-2.8103,-2.8741,-2.8741,-2.827,-2.793,-2.7737,-2.7106,-2.7092,-2.7646,-2.822,-2.8372,-2.8308,-3.0745,-3.02,-2.7548,-2.8717,-2.7957,-2.5933,-2.5777,-2.5699,-2.5699,-2.5699,-2.5699,0.0,0.0,0.0,0.0,0.0,0.0,0.0,-2.5677,-2.6065,-2.6805,-2.8242,-2.9177,-3.0575,0.0,0.0,0.0,0.0,0.0,0.0,0.0,0.0,0.0,0.0,0.0,0.0,0.0,0.0,0.0,0.0,0.0,0.0,0.0,0.0,0.0,0.0,0.0,0.0,0.0,0.0,0.0,0.0,0.0,0.0,-5.418,-5.4004,-5.3907,-5.3907,-5.3249,-5.2879,-5.2879,-5.2021,-5.1573,0.0,-5.1398,-5.13,-5.13,-5.13,-5.13,-5.13,-5.13,-5.13,-5.13,-5.13,-5.13,-5.13,-5.13,-5.13,-5.13,-5.13,-5.13,-5.13,0.0,0.0,0.0,0.0,0.0,0.0,0.0,0.0,0.0,0.0,0.0,0.0,0.0,0.0,0.0,0.0,0.0,0.0,0.0,0.0,0.0,-2.7271,-2.8586,-2.9093,-2.8687,-2.7813,-2.7194,-2.6807,-2.6385,0.0,0.0,0.0,0.0,-2.7665,0.0,-2.8992,-2.6963,-2.7879,-2.7275,-2.5699,-2.5699,-2.5699,-2.5699,-2.5699,-2.5699,-2.5699,-2.5699,0.0,0.0,0.0,0.0,0.0,0.0,0.0,-2.753,-2.7657,-2.8537,-3.018,0.0,0.0,0.0,0.0,0.0,0.0,0.0,0.0,0.0,0.0,0.0,0.0,0.0,0.0,0.0,0.0,0.0,0.0,0.0,0.0,0.0,0.0,0.0,0.0,0.0,0.0,0.0,0.0,0.0,-5.3288,-5.3288,-5.2879,-5.2664,-5.2664,-5.2216,-5.1982,-5.1982,-5.1534,-5.13,-5.13,-5.13,-5.13,-5.13,-5.13,-5.13,-5.13,-5.13,-5.13,-5.13,-5.13,-5.13,-5.13,-5.13,-5.13,-5.13,-5.13,-5.13,-5.13,0.0,0.0,0.0,0.0,0.0,0.0,0.0,0.0,0.0,0.0,0.0,0.0,0.0,0.0,0.0,0.0,0.0,0.0,0.0,0.0,0.0,0.0,-2.8745,-2.89,-2.801,-2.7151,-2.6377,-2.57,0.0,0.0,0.0,0.0,0.0,-2.7597,0.0,-2.7996,-2.6885,-2.6749,-2.6303,-2.5699,-2.5699,-2.5699,-2.5699,-2.5699,-2.5699,-2.5699,-2.5699,-2.5699,-2.5699,-2.5699,0.0,0.0,0.0,0.0,-2.8429,-2.629,-2.7493,-2.9889,0.0,0.0,0.0,0.0,0.0,0.0,0.0,0.0,0.0,0.0,0.0,0.0,0.0,0.0,0.0,0.0,0.0,0.0,0.0,0.0,0.0,0.0,0.0,0.0,0.0,0.0,0.0,0.0,0.0,-5.2372,-5.2372,-5.169,-5.13,-5.13,-5.13,-5.13,-5.13,-5.13,-5.13,-5.13,-5.13,-5.13,-5.13,-5.13,-5.13,-5.13,-5.13,-5.13,-5.13,-5.13,-5.13,-5.13,-5.13,-5.13,-5.13,-5.13,-5.13,-5.13,0.0,0.0,0.0,0.0,0.0,0.0,0.0,0.0,0.0,0.0,0.0,0.0,0.0,0.0,0.0,0.0,0.0,0.0,0.0,0.0,0.0,-2.6899,-2.8431,-2.89,-2.801,-2.7151,-2.6644,-2.6551,0.0,0.0,0.0,0.0,0.0,-3.0208,0.0,0.0,-2.6846,-2.6167,-2.5796,-2.5699,-2.5699,-2.5699,-2.5699,-2.5699,-2.5699,-2.5699,-2.5699,-2.5699,-2.5699,-2.5699,-2.5699,0.0,0.0,0.0,-2.6126,-2.5732,-2.7461,0.0,0.0,0.0,0.0,0.0,0.0,0.0,0.0,0.0,0.0,0.0,0.0,0.0,0.0,0.0,0.0,0.0,0.0,0.0,0.0,0.0,0.0,0.0,0.0,0.0,0.0,0.0,0.0,0.0,-5.1534,-5.1476,-5.1476,-5.1359,-5.13,-5.13,-5.13,-5.13,-5.13,-5.13,-5.13,-5.13,-5.13,-5.13,-5.13,-5.13,-5.13,-5.13,-5.13,-5.13,-5.13,-5.13,-5.13,-5.13,-5.13,-5.13,-5.13,-5.13,-5.13,-5.13,0.0,0.0,0.0,0.0,0.0,0.0,0.0,0.0,0.0,0.0,0.0,0.0,0.0,0.0,0.0,0.0,0.0,0.0,0.0,0.0,0.0,-2.7445,-2.7696,-2.7654,-2.729,-2.6455,-2.6029,0.0,0.0,0.0,0.0,-3.1891,-3.1335,0.0,0.0,0.0,0.0,-2.7372,-2.7004,-2.5699,-2.5699,-2.5699,-2.5699,0.0,0.0,0.0,0.0,0.0,0.0,0.0,-2.5699,-2.5699,-2.5699,0.0,0.0,0.0,0.0,0.0,0.0,0.0,0.0,0.0,0.0,0.0,0.0,0.0,0.0,0.0,0.0,0.0,0.0,0.0,0.0,0.0,0.0,0.0,0.0,0.0,0.0,0.0,0.0,0.0,0.0,0.0,0.0,0.0,-5.13,-5.13,-5.13,-5.13,-5.13,-5.13,-5.13,-5.13,-5.13,-5.13,-5.13,-5.13,-5.13,-5.13,-5.13,-5.13,-5.13,-5.13,-5.13,-5.13,-5.13,-5.13,-5.13,-5.13,-5.13,-5.13,-5.13,-5.13,-5.13,-5.13,0.0,0.0,0.0,0.0,0.0,0.0,0.0,0.0,0.0,0.0,0.0,0.0,0.0,0.0,0.0,0.0,0.0,0.0,0.0,0.0,0.0,-2.7372,-2.6921,-2.6588,-2.6397,-2.5777,0.0,0.0,0.0,0.0,-3.214,-3.2851,-3.2162,0.0,-3.2415,-3.1195,0.0,0.0,0.0,-2.6673,-2.6673,-2.6283,-2.5718,0.0,0.0,0.0,0.0,0.0,0.0,0.0,0.0,0.0,0.0,0.0,0.0,0.0,0.0,0.0,0.0,0.0,0.0,0.0,0.0,0.0,0.0,0.0,0.0,0.0,0.0,0.0,0.0,0.0,0.0,0.0,0.0,0.0,0.0,0.0,0.0,0.0,0.0,0.0,0.0,0.0,0.0,0.0,-5.13,-5.13,-5.13,-5.13,-5.13,-5.13,-5.13,-5.13,-5.13,-5.13,-5.13,-5.13,-5.13,-5.13,-5.13,-5.13,-5.13,-5.13,-5.13,-5.13,-5.13,-5.13,-5.13,-5.13,-5.13,-5.13,-5.13,-5.13,-5.13,-5.13,0.0,0.0,0.0,0.0,0.0,0.0,0.0,0.0,0.0,0.0,0.0,0.0,0.0,0.0,-2.7733,-2.7694,0.0,0.0,0.0,0.0,0.0,-2.5704,-2.6265,0.0,-2.5584,-2.5403,0.0,0.0,0.0,0.0,-2.9553,-3.1971,-3.3079,-3.3009,-3.3211,-3.3148,-3.2762,0.0,0.0,0.0,-2.9301,-2.7859,-2.5777,0.0,0.0,0.0,0.0,0.0,0.0,0.0,0.0,0.0,0.0,-2.5699,-2.5699,0.0,0.0,0.0,0.0,0.0,0.0,0.0,0.0,0.0,0.0,0.0,0.0,0.0,0.0,0.0,0.0,0.0,0.0,0.0,0.0,0.0,0.0,0.0,0.0,0.0,0.0,0.0,0.0,0.0,0.0,0.0,-5.13,-5.13,-5.13,-5.13,-5.13,-5.13,-5.13,-5.13,-5.13,-5.13,-5.13,-5.13,-5.13,-5.13,-5.13,-5.13,-5.13,-5.13,-5.13,-5.13,-5.13,-5.13,-5.13,-5.13,-5.13,-5.13,-5.13,-5.13,-5.13,-5.13,0.0,0.0,0.0,0.0,0.0,0.0,0.0,0.0,0.0,0.0,0.0,0.0,0.0,-2.8715,-2.9112,-2.9192,-2.9183,0.0,0.0,0.0,0.0,-2.63,-2.602,-2.5768,-2.5507,-2.5459,0.0,0.0,0.0,-2.6517,-2.8494,-2.9979,-3.155,-3.3287,-3.6615,-3.5387,-3.098,-3.3955,0.0,0.0,-3.2055,-3.1081,-2.7517,0.0,0.0,0.0,0.0,0.0,0.0,0.0,0.0,0.0,-2.6654,-2.6478,-2.6361,-2.5855,0.0,0.0,0.0,0.0,0.0,0.0,0.0,0.0,0.0,0.0,0.0,0.0,0.0,0.0,0.0,0.0,0.0,0.0,0.0,0.0,0.0,0.0,0.0,0.0,0.0,0.0,0.0,0.0,0.0,0.0,0.0,-4.9566,-5.1203,-4.9742,-4.9605,-5.1242,-5.13,-5.13,-5.13,-5.13,-5.13,-5.13,-5.13,-5.13,-5.13,-5.13,-5.13,-5.13,-5.13,-5.13,-5.13,-5.13,-5.13,-5.13,-5.13,-5.13,-5.13,-5.13,-5.13,-5.13,0.0,0.0,0.0,0.0,0.0,0.0,0.0,0.0,0.0,0.0,0.0,0.0,0.0,0.0,-2.9559,-2.9681,-2.9015,-2.8527,-2.8338,-2.7239,-2.6463,-2.6174,-2.5621,-2.5327,-2.536,0.0,0.0,0.0,0.0,0.0,0.0,-2.8629,-3.0192,-3.2029,-3.6598,-3.6333,0.0,0.0,0.0,-3.1503,-3.4642,-3.3843,-3.0908,0.0,0.0,0.0,0.0,0.0,0.0,0.0,0.0,0.0,0.0,-2.8011,-2.7178,-2.6342,0.0,0.0,0.0,0.0,0.0,0.0,0.0,0.0,0.0,0.0,0.0,0.0,0.0,0.0,0.0,0.0,0.0,0.0,0.0,0.0,0.0,0.0,0.0,0.0,0.0,0.0,0.0,0.0,0.0,0.0,0.0,0.0,-5.1203,-4.9703,-4.9547,-5.1242,-5.13,-5.13,-5.13,-5.13,-5.13,-5.13,-5.13,-5.13,-5.13,-5.13,-5.13,-5.13,-5.13,-5.13,-5.13,-5.13,-5.1296,-5.1292,-5.1296,-5.1296,-5.1292,-5.1296,-5.13,-5.13,0.0,0.0,0.0,0.0,0.0,0.0,0.0,0.0,0.0,0.0,0.0,0.0,0.0,0.0,0.0,-2.8873,-2.8109,-2.7249,-2.6446,-2.6388,-2.5981,-2.5147,0.0,0.0,0.0,0.0,0.0,0.0,0.0,0.0,0.0,0.0,-2.919,-2.9345,-3.2769,-3.5762,-3.8225,0.0,-3.8873,-3.9295,0.0,-3.6014,-3.5594,0.0,0.0,0.0,-3.7287,-3.6327,0.0,-3.63,0.0,0.0,0.0,-3.0205,-2.8035,-2.7197,0.0,0.0,0.0,0.0,0.0,0.0,0.0,0.0,0.0,0.0,0.0,0.0,0.0,0.0,0.0,0.0,0.0,0.0,0.0,0.0,0.0,0.0,0.0,0.0,0.0,0.0,0.0,0.0,0.0,0.0,-5.1145,-5.1145,-5.1222,-5.1242,-5.1261,-5.1257,-5.1296,-5.13,-5.13,-5.1296,-5.1296,-5.13,-5.1296,-5.1296,-5.13,-5.13,-5.13,-5.13,-5.13,-5.13,-5.13,-5.13,-5.1308,-5.1291,-5.1292,-5.1304,-5.1291,-5.1273,-5.1257,-5.1261,0.0,0.0,0.0,0.0,0.0,0.0,0.0,0.0,0.0,0.0,0.0,0.0,-2.6424,-2.7623,-2.856,-2.8742,-2.797,-2.7157,-2.6453,-2.5809,-2.5344,-2.5109,-2.5055,0.0,0.0,0.0,0.0,0.0,0.0,0.0,0.0,0.0,0.0,0.0,-3.0133,-3.2447,-3.4054,-3.8373,0.0,0.0,-4.0383,-3.8841,0.0,0.0,0.0,0.0,0.0,-3.7813,-3.7098,0.0,-3.6199,-3.3442,0.0,0.0,0.0,0.0,0.0,0.0,-2.8897,0.0,0.0,0.0,0.0,0.0,0.0,0.0,0.0,0.0,0.0,0.0,0.0,0.0,0.0,0.0,0.0,0.0,0.0,0.0,0.0,0.0,0.0,0.0,0.0,0.0,0.0,0.0,-4.7735,-4.7501,-4.9391,-5.0034,-5.0353,-5.0363,-5.0979,-5.13,-5.13,-5.1258,-5.1248,-5.13,-5.1248,-5.1248,-5.13,-5.1304,-5.1308,-5.13,-5.13,-5.1292,-5.13,-5.13,-5.1295,-5.1306,-5.1254,-5.1225,-5.1162,-5.0572,-5.0352,-5.0267,0.0,0.0,0.0,0.0,0.0,0.0,0.0,0.0,0.0,0.0,0.0,0.0,0.0,0.0,-2.846,-2.856,-2.7805,-2.7146,-2.6764,-2.5948,-2.5473,-2.5473,-2.5132,-2.4923,0.0,0.0,0.0,0.0,0.0,0.0,0.0,0.0,0.0,0.0,0.0,0.0,0.0,0.0,0.0,0.0,-4.0765,0.0,0.0,-4.1326,-4.0866,0.0,0.0,0.0,-4.0695,-4.1794,-3.9505,0.0,0.0,0.0,0.0,0.0,0.0,0.0,0.0,0.0,0.0,0.0,0.0,0.0,-3.0791,-3.3648,-3.628,0.0,0.0,0.0,0.0,0.0,0.0,0.0,0.0,0.0,0.0,0.0,0.0,0.0,0.0,0.0,0.0,-4.8806,-4.8806,-4.8806,-4.7384,-4.7186,-4.8678,-4.9204,-4.9461,-4.9469,-4.9945,-5.0226,-5.0226,-5.0539,-5.0713,-5.0755,-5.1096,-5.1284,-5.1342,-5.1335,-5.1331,-5.1273,-5.0915,-5.0762,-5.0722,-5.0334,-5.0383,-5.0714,-5.0709,-5.0466,-5.0067,-4.9615,-4.9454,-4.9389,0.0,0.0,0.0,0.0,0.0,0.0,0.0,0.0,0.0,0.0,0.0,0.0,0.0,0.0,0.0,0.0,-2.7788,-2.729,-2.7204,-2.651,-2.6124,-2.6132,-2.5383,-2.4981,-2.4981,0.0,0.0,0.0,0.0,0.0,0.0,0.0,0.0,0.0,0.0,0.0,0.0,0.0,0.0,-4.1435,-3.9687,-4.1591,0.0,0.0,-4.3713,-4.3683,-4.7301,-4.645,-4.3994,-4.6329,-4.3512,0.0,0.0,0.0,0.0,0.0,-3.1466,0.0,0.0,0.0,0.0,0.0,0.0,0.0,-3.0796,-3.4356,-3.7731,0.0,0.0,0.0,0.0,0.0,0.0,0.0,0.0,0.0,0.0,0.0,0.0,0.0,0.0,0.0,-4.8511,-4.8514,-4.8514,-4.8511,-4.8491,-4.846,-4.8401,-4.8506,-4.8552,-4.854,-4.8647,-4.871,-4.871,-4.9464,-4.9861,-4.9886,-5.0638,-5.1046,-5.1102,-5.1118,-5.1073,-5.0982,-5.0201,-4.9866,-4.9787,-4.8954,-4.907,-4.9755,-4.9819,-4.9323,-4.8598,-4.855,-4.8545,-4.855,0.0,0.0,0.0,0.0,0.0,0.0,0.0,0.0,0.0,0.0,0.0,0.0,0.0,0.0,0.0,0.0,-2.8577,-2.7829,-2.7233,-2.6993,-2.6918,-2.696,-2.6791,-2.6716,-2.6716,-2.6572,0.0,0.0,0.0,0.0,0.0,0.0,0.0,0.0,0.0,0.0,0.0,0.0,0.0,-3.7469,-4.1116,0.0,-4.1447,-4.591,-4.5036,-4.2048,-4.6862,-4.6842,-4.4613,-4.5133,-4.4063,-4.1813,0.0,0.0,0.0,0.0,0.0,0.0,0.0,0.0,0.0,0.0,0.0,0.0,-3.0808,-3.1585,-3.2873,0.0,0.0,0.0,0.0,0.0,0.0,0.0,0.0,0.0,0.0,0.0,0.0,0.0,0.0,0.0,-4.6699,-4.6714,-4.6718,-4.6703,-4.6664,-4.6627,-4.66,-4.7315,-4.7676,-4.7591,-4.8307,-4.8708,-4.8708,-4.8865,-4.8974,-4.9042,-4.9149,-4.923,-4.9304,-4.9312,-4.9292,-4.9279,-4.9055,-4.8951,-4.8942,-4.8701,-4.87,-4.8851,-4.8879,-4.8752,-4.8513,-4.7839,-4.7621,-4.7544,0.0,0.0,0.0,0.0,0.0,0.0,0.0,0.0,0.0,0.0,0.0,0.0,0.0,0.0,0.0,0.0,0.0,0.0,0.0,0.0,-2.7762,-2.7808,-2.7386,-2.7134,-2.7089,-2.7134,-2.7186,0.0,0.0,0.0,0.0,0.0,0.0,0.0,0.0,0.0,0.0,0.0,-3.3111,-3.6236,-4.0096,0.0,-4.2765,-4.7466,-4.7644,-4.5783,-4.8813,-4.8805,-4.7091,-4.5371,-4.4539,0.0,0.0,-3.8001,-3.5004,0.0,-3.2143,-3.0794,0.0,0.0,0.0,-3.0801,0.0,0.0,0.0,-3.1771,-3.3056,0.0,0.0,0.0,0.0,0.0,0.0,0.0,0.0,0.0,0.0,0.0,0.0,0.0,0.0,0.0,-4.6158,-4.6142,-4.6146,-4.6154,-4.6142,-4.6138,-4.6098,-4.6574,-4.6812,-4.6755,-4.7213,-4.7447,-4.7447,-4.784,-4.8082,-4.8154,-4.8565,-4.8772,-4.8801,-4.8794,-4.8811,-4.8767,-4.8263,-4.8055,-4.8011,-4.7548,-4.7325,-4.7339,-4.7821,-4.7748,-4.7301,-4.6853,-4.6741,-4.6729,0.0,0.0,0.0,0.0,0.0,0.0,0.0,0.0,0.0,0.0,0.0,0.0,0.0,0.0,0.0,0.0,0.0,0.0,0.0,0.0,0.0,-2.8671,-2.7987,-2.7586,-2.7512,-2.7567,-2.7655,0.0,0.0,0.0,0.0,0.0,0.0,0.0,0.0,0.0,0.0,0.0,0.0,-3.7125,0.0,-4.2274,-4.4734,-4.8649,-4.9848,-4.9551,-5.0775,-5.0753,-4.9648,-4.6401,-4.5224,-4.5036,-4.4494,-4.0563,0.0,0.0,0.0,0.0,0.0,0.0,0.0,0.0,0.0,-3.0799,0.0,0.0,0.0,0.0,0.0,0.0,0.0,0.0,0.0,0.0,0.0,0.0,0.0,0.0,0.0,0.0,0.0,0.0,0.0,-4.5056,-4.5554,-4.6054,-4.6142,-4.6137,-4.6103,-4.616,-4.6193,-4.6199,-4.6206,-4.6209,-4.6209,-4.6846,-4.7197,-4.7287,-4.7989,-4.8311,-4.831,-4.831,-4.8324,-4.8274,-4.7495,-4.7173,-4.712,-4.6411,-4.6089,-4.6115,-4.6867,-4.6725,-4.6098,-4.6106,-4.615,-4.6196,-2.7435,-2.7161,0.0,0.0,0.0,0.0,0.0,0.0,0.0,0.0,0.0,0.0,0.0,0.0,0.0,0.0,0.0,0.0,-3.0088,0.0,0.0,0.0,-2.9448,-2.9392,-2.9392,-2.9392,-2.9401,-2.9428,0.0,0.0,0.0,0.0,0.0,0.0,-3.066,0.0,0.0,0.0,-3.7384,0.0,-4.4035,-4.4224,0.0,-4.8863,-4.9609,-4.792,-5.0328,-5.1144,-5.0645,0.0,-4.6601,-4.556,0.0,-4.0038,-3.6901,0.0,0.0,0.0,0.0,0.0,0.0,0.0,-3.0801,0.0,0.0,0.0,0.0,-3.1237,0.0,0.0,0.0,0.0,0.0,0.0,0.0,0.0,0.0,0.0,0.0,0.0,0.0,0.0,0.0,-4.1317,-4.3596,-4.5939,-4.604,-4.604,-4.6106,-4.6162,-4.6199,-4.6199,-4.6209,-4.6203,-4.6203,-4.6298,-4.6372,-4.6433,-4.653,-4.6571,-4.6573,-4.6573,-4.6573,-4.6571,-4.6409,-4.6337,-4.6334,-4.6225,-4.6189,-4.6185,-4.6286,-4.6248,-4.6102,-4.6177,-4.6196,-4.6199,-2.8807,-2.8693,0.0,0.0,0.0,0.0,0.0,0.0,0.0,0.0,0.0,0.0,0.0,0.0,0.0,0.0,0.0,-3.7131,0.0,0.0,0.0,0.0,0.0,0.0,-2.9655,-2.9636,-2.9636,-2.9636,-2.9636,0.0,0.0,0.0,0.0,0.0,-3.0534,0.0,-3.5352,0.0,-3.8572,0.0,0.0,0.0,0.0,-4.911,-5.0522,-4.9512,-4.9085,-4.992,-5.0581,0.0,-4.6877,0.0,0.0,0.0,0.0,0.0,0.0,0.0,0.0,0.0,0.0,0.0,0.0,0.0,-3.3006,0.0,-3.0791,0.0,0.0,0.0,0.0,0.0,0.0,0.0,-2.8004,0.0,0.0,0.0,0.0,0.0,0.0,0.0,0.0,0.0,0.0,0.0,-4.3094,-4.312,-4.3144,-4.5089,-4.6209,-4.6209,-4.6236,-4.6269,-4.6269,-4.6269,-4.6273,-4.63,-4.63,-4.63,-4.63,-4.63,-4.63,-4.63,-4.6238,-4.6206,-4.6206,-4.6195,-4.6196,-4.6203,-4.624,-4.6217,-4.617,-4.6183,-4.622,-4.625,0.0,0.0,0.0,0.0,0.0,0.0,0.0,0.0,0.0,0.0,0.0,0.0,-3.6723,-3.6603,0.0,0.0,-3.986,-4.0008,0.0,0.0,-3.6648,0.0,0.0,0.0,0.0,0.0,-2.987,-2.9626,0.0,0.0,0.0,0.0,0.0,0.0,0.0,-3.2699,-3.5955,0.0,0.0,-4.3408,-4.4977,-4.5603,-4.5933,-4.8988,-5.0581,-5.095,-4.9046,-4.959,-5.0522,-4.6079,-4.7047,0.0,-4.5736,0.0,0.0,0.0,0.0,0.0,-3.6835,0.0,0.0,0.0,0.0,0.0,0.0,0.0,0.0,0.0,0.0,0.0,0.0,0.0,0.0,0.0,0.0,0.0,0.0,0.0,0.0,0.0,0.0,0.0,0.0,0.0,0.0,-3.9291,-4.044,-4.1007,-4.1036,-4.4315,-4.6211,-4.6238,-4.6273,-4.63,-4.63,-4.63,-4.63,-4.63,-4.63,-4.63,-4.63,-4.63,-4.63,-4.63,-4.6245,-4.6238,-4.6238,-4.6238,-4.6226,-4.6231,-4.6288,-4.6273,-4.6238,-4.6238,-4.6269,-4.6298,-3.2213,-3.0866,0.0,0.0,0.0,0.0,0.0,0.0,0.0,0.0,0.0,0.0,0.0,0.0,0.0,0.0,0.0,-4.0828,-3.9864,0.0,-3.9671,0.0,0.0,-3.2838,0.0,0.0,0.0,0.0,0.0,0.0,0.0,0.0,0.0,0.0,0.0,-3.3229,-3.6181,-4.0365,-4.3629,-4.6274,-4.9607,-5.095,-5.0697,0.0,-4.9007,-5.1183,-5.1105,0.0,0.0,-4.8155,-4.7333,0.0,0.0,0.0,0.0,0.0,0.0,0.0,0.0,0.0,0.0,-3.6469,0.0,0.0,0.0,0.0,-3.0806,0.0,0.0,0.0,0.0,0.0,0.0,0.0,0.0,0.0,0.0,0.0,0.0,0.0,0.0,0.0,0.0,0.0,0.0,-3.6053,-3.9134,-4.1032,-4.1096,-4.4334,-4.6238,-4.6298,-4.63,-4.63,-4.63,-4.63,-4.63,-4.63,-4.63,-4.63,-4.63,-4.63,-4.63,-4.63,-4.63,-4.63,-4.63,-4.63,-4.63,-4.6298,-4.63,-4.63,-4.63,-4.63,-4.63,-4.63,0.0,0.0,0.0,0.0,0.0,0.0,0.0,-3.2561,0.0,0.0,0.0,0.0,0.0,-4.2671,-4.2423,0.0,0.0,-4.5935,-4.4094,-4.3813,0.0,0.0,0.0,-3.7122,0.0,0.0,0.0,0.0,0.0,0.0,0.0,0.0,0.0,0.0,0.0,-3.4202,0.0,0.0,0.0,0.0,0.0,-4.9124,-4.8716,0.0,-5.0425,-5.128,-5.1804,-5.1649,0.0,-4.8877,-4.8955,-4.959,-4.7867,-4.674,-4.6463,-4.8799,-4.6012,0.0,0.0,0.0,-4.2736,-4.1282,0.0,0.0,0.0,0.0,0.0,0.0,0.0,0.0,0.0,0.0,0.0,0.0,0.0,0.0,0.0,0.0,0.0,0.0,0.0,0.0,0.0,0.0,0.0,-3.2202,-3.3045,-3.3631,-3.4191,-3.9683,-4.2848,-4.2863,-4.5104,-4.63,-4.63,-4.63,-4.63,-4.63,-4.63,-4.63,-4.63,-4.63,-4.63,-4.63,-4.63,-4.63,-4.63,-4.63,-4.63,-4.63,-4.63,-4.63,-4.63,-4.63,-4.63,-4.63,-3.3525,0.0,0.0,0.0,0.0,0.0,0.0,0.0,0.0,0.0,-3.9713,0.0,-4.4834,0.0,-4.4664,0.0,-4.6586,-4.7272,-4.7313,-4.5208,0.0,-4.6266,-4.2513,0.0,0.0,0.0,0.0,0.0,0.0,-3.1882,0.0,0.0,0.0,0.0,0.0,0.0,-3.6914,0.0,-4.3883,0.0,0.0,-4.8638,0.0,0.0,-5.0658,-5.128,0.0,-5.1649,-5.1027,-4.9901,-5.027,-5.0911,-4.9221,-4.8696,-4.9027,-5.0717,-4.845,-4.5779,-4.7469,-4.7275,0.0,-4.4414,-4.2499,0.0,-3.8801,0.0,0.0,0.0,0.0,0.0,0.0,0.0,0.0,0.0,0.0,0.0,0.0,-2.5699,0.0,0.0,0.0,0.0,0.0,0.0,-2.5774,-2.7831,-2.8632,-2.9394,0.0,0.0,-4.0788,-4.1083,-4.4456,-4.6273,-4.63,-4.63,-4.63,-4.63,-4.63,-4.63,-4.63,-4.63,-4.63,-4.63,-4.63,-4.63,-4.63,-4.63,-4.63,-4.63,-4.63,-4.63,-4.63,-4.63,-4.63,-4.63,0.0,0.0,0.0,0.0,-3.2553,0.0,0.0,0.0,-4.0357,0.0,-4.4397,-4.3801,-4.4651,-4.3338,-4.2982,-4.4426,-4.3877,-4.5096,-4.9002,-4.4139,0.0,0.0,-4.3458,-4.1531,-4.4584,0.0,0.0,0.0,0.0,0.0,0.0,0.0,0.0,0.0,-3.3267,0.0,-3.4648,-4.0642,-4.3408,-4.4014,-4.7197,-4.9507,-5.0886,-4.9235,-4.9681,-5.1196,-5.1235,-5.1241,-5.1222,-5.1255,-5.1235,-5.1202,-5.1196,-5.1196,-5.1202,-5.1202,-5.1202,-5.1202,-5.1202,-5.06,-4.9174,-4.5867,-4.4297,0.0,0.0,0.0,-3.8408,0.0,0.0,0.0,0.0,0.0,0.0,0.0,0.0,0.0,0.0,0.0,0.0,0.0,0.0,0.0,0.0,-2.6587,-2.6617,-2.3416,-2.6133,-2.8386,0.0,0.0,-3.9861,-4.0994,-4.4101,-4.5935,-4.6287,-4.6168,-4.6168,-4.6305,-4.6305,-4.6305,-4.6305,-4.6305,-4.6305,-4.6303,-4.6303,-4.6302,-4.63,-4.63,-4.63,-4.63,-4.63,-4.63,-4.63,-4.63,-4.63,-4.63,-3.5122,-3.4655,-3.473,0.0,-3.5968,-3.7103,0.0,0.0,0.0,0.0,-4.5604,-4.6661,-4.8063,-4.8893,-4.8273,-4.5622,-4.6321,0.0,0.0,0.0,0.0,-4.9377,-4.7875,-4.6482,-4.543,-4.4172,0.0,-4.1392,0.0,0.0,-3.6806,0.0,0.0,0.0,0.0,0.0,-3.5232,-4.0779,-4.4718,-4.7175,-4.6756,-4.7642,0.0,0.0,-4.9615,-5.1212,-5.1864,-5.1707,-5.1293,-5.189,-5.1683,-5.1196,-5.1133,-5.1165,-5.1202,-5.1202,-5.1202,-5.1202,-5.1202,-5.1047,-5.0503,-4.898,-4.6503,-4.4064,0.0,0.0,0.0,0.0,0.0,0.0,0.0,0.0,0.0,0.0,0.0,0.0,0.0,0.0,0.0,-2.5699,0.0,0.0,-2.5387,-2.4787,-2.4307,-2.4082,-2.428,-2.5618,0.0,0.0,0.0,-3.9972,-3.9724,-4.1677,-4.6185,-4.4354,-4.4354,-4.6228,-4.6228,-4.6228,-4.6228,-4.6225,-4.6229,-4.6229,-4.6229,-4.6242,-4.63,-4.63,-4.63,-4.63,-4.63,-4.63,-4.63,-4.63,-4.63,-4.63,-3.5133,0.0,0.0,-3.6318,0.0,0.0,-4.0641,-4.2071,0.0,-4.6905,-4.7788,0.0,-5.0372,-5.1367,-5.0973,-4.8607,-4.795,0.0,-4.7729,0.0,0.0,-4.9884,-4.8983,-4.7556,-4.5735,-4.5697,0.0,-4.3618,0.0,0.0,-3.9219,0.0,0.0,0.0,0.0,-3.4823,0.0,-4.0831,-4.5138,-4.8259,-4.7372,0.0,0.0,-4.8787,-4.9582,-5.1159,-5.1671,-5.1548,-5.127,-5.2084,-5.1819,-5.1153,-5.1115,-5.1134,-5.1159,-5.1159,-5.1171,-5.1202,-5.1202,-5.1194,-5.0992,-5.0118,-4.8487,-4.6751,-4.5493,-4.3719,-4.2222,0.0,-4.1742,-4.1412,0.0,0.0,0.0,0.0,0.0,0.0,0.0,0.0,0.0,0.0,-2.6246,0.0,-2.5763,-2.3777,-2.2882,-2.3779,-2.2668,-2.3142,0.0,0.0,0.0,-3.5232,-3.7985,-4.0331,-4.2252,-4.1223,-4.1965,-4.4495,-4.4498,-4.5082,-4.6191,-4.6206,-4.6194,-4.6205,-4.6205,-4.6229,-4.6269,-4.6269,-4.6269,-4.6269,-4.6264,-4.6261,-4.6259,-4.6287,-4.63,-4.63,0.0,0.0,0.0,0.0,0.0,0.0,0.0,-4.4932,0.0,-5.0257,0.0,-5.0466,-5.1762,-5.21,-5.2137,-5.1931,0.0,-4.8701,-5.1555,-4.6955,-4.6129,-5.0654,-4.8683,-4.7124,-4.6373,-4.6242,0.0,0.0,0.0,0.0,0.0,0.0,0.0,0.0,0.0,0.0,0.0,-4.0989,-4.4963,-4.806,-4.8375,-4.9354,-5.0499,-4.9243,-4.9715,-5.1051,-5.1148,-5.115,-5.1217,-5.1888,-5.1733,-5.1236,-5.1113,-5.1179,-5.1244,-5.1128,-5.1146,-5.119,-5.119,-5.1189,-5.1017,-5.0259,-5.0028,-4.9576,-4.8054,-4.7543,-4.7155,-4.6332,-4.6139,-4.5415,0.0,0.0,0.0,0.0,0.0,0.0,0.0,0.0,0.0,0.0,0.0,0.0,-2.5946,-2.3543,-2.241,-2.3053,-2.1708,0.0,0.0,0.0,0.0,-3.0204,-3.7181,-3.9908,-3.7724,0.0,-4.0045,-4.2802,-4.2575,-4.3761,-4.6189,-4.6186,-4.6189,-4.6195,-4.6195,-4.6199,-4.6202,-4.6202,-4.6202,-4.6206,-4.6208,-4.6191,-4.6211,-4.6261,-4.6294,-4.6293,0.0,0.0,0.0,0.0,0.0,-4.3215,-4.7736,-4.9659,-5.0651,-5.0688,-5.1778,-5.2397,-5.1949,-5.3132,-5.3414,-5.2024,-5.0767,0.0,0.0,0.0,0.0,-5.1593,-5.0635,-4.9994,-4.9828,-4.9171,-4.8833,0.0,0.0,0.0,0.0,0.0,0.0,0.0,0.0,0.0,-4.1127,-4.1716,0.0,-4.7801,-4.8243,-4.8337,-4.8351,-4.9711,-5.0412,-5.0768,-5.1442,-5.1429,-5.1113,-5.1201,-5.1603,-5.1966,-5.124,-5.1506,-5.1967,-5.1282,-5.1114,-5.1114,-5.1114,-5.1121,-5.1089,-5.0933,-5.0358,-4.9763,-4.9446,-4.832,-4.7276,-4.7118,-4.6542,-4.5969,-4.5496,0.0,0.0,0.0,0.0,0.0,0.0,0.0,0.0,0.0,0.0,0.0,0.0,0.0,0.0,0.0,0.0,0.0,0.0,0.0,0.0,0.0,-3.3776,0.0,0.0,0.0,-4.1489,-4.541,-4.3973,-4.4277,-4.6122,-4.6065,-4.6076,-4.6118,-4.6118,-4.6147,-4.6202,-4.6202,-4.6202,-4.6204,-4.6209,-4.6192,-4.6192,-4.6217,-4.6218,-4.6223,0.0,0.0,0.0,0.0,0.0,0.0,0.0,-5.1421,-5.3376,-5.2172,-5.3074,-5.3658,-5.3245,-5.3921,-5.409,-5.3264,-5.2043,-5.1686,-5.255,-5.1048,-5.086,-5.2494,-5.1762,0.0,-4.8814,-4.9659,-4.9265,-4.7537,0.0,0.0,0.0,0.0,0.0,0.0,0.0,-3.8146,0.0,0.0,0.0,-4.7552,-4.8813,-4.9188,-4.9049,-5.0024,-5.0393,-5.0432,-5.0826,-5.0824,-5.0807,-5.1926,-5.2287,-5.2244,-5.2299,-5.2302,-5.2216,-5.1848,-5.1428,-5.1101,-5.1101,-5.1095,-5.1108,-5.1108,-5.0772,-5.0358,-4.9892,-4.9181,-4.8339,-4.7422,-4.6965,-4.6187,-4.4446,-4.1758,0.0,0.0,0.0,0.0,0.0,0.0,0.0,0.0,0.0,0.0,0.0,0.0,0.0,0.0,0.0,0.0,0.0,0.0,0.0,0.0,0.0,0.0,0.0,0.0,0.0,-4.4078,-4.3233,-4.3967,-4.6056,-4.6007,-4.6027,-4.6054,-4.6054,-4.608,-4.6095,-4.6095,-4.6095,-4.6098,-4.6134,-4.6147,-4.615,-4.6195,-4.6206,-4.6194,0.0,-4.1619,0.0,0.0,-4.5067,-4.7713,-4.8984,-5.2562,-5.4783,-5.3844,-5.4409,-5.4934,-5.4934,-5.4934,-5.4728,-5.4183,-5.3245,-5.2888,-5.3339,-5.2175,-5.1928,-5.2886,-5.2437,-5.0973,-4.8363,-4.9865,-4.9396,0.0,0.0,0.0,0.0,0.0,0.0,0.0,0.0,0.0,0.0,0.0,-4.6871,-4.7845,-4.951,-5.0135,-5.0057,-5.0099,-5.0104,-5.0104,-5.0104,-5.0159,-5.0493,-5.2435,-5.2775,-5.2489,-5.3045,-5.2922,-5.2512,-5.2268,-5.1618,-5.099,-5.099,-5.0993,-5.1009,-5.1056,-5.1063,-5.0882,-5.019,-4.9899,-4.9337,-4.7786,-4.7235,-4.6208,-4.352,-4.2605,0.0,0.0,0.0,0.0,0.0,0.0,0.0,0.0,0.0,0.0,0.0,0.0,0.0,0.0,0.0,0.0,0.0,0.0,0.0,0.0,0.0,-3.6289,-3.6841,0.0,-4.0142,-4.302,-4.2651,-4.3719,-4.6002,-4.6002,-4.6002,-4.6002,-4.6002,-4.6002,-4.6002,-4.6002,-4.6002,-4.6007,-4.6067,-4.6076,-4.6084,-4.6139,-4.616,-4.6169,0.0,0.0,0.0,0.0,0.0,-5.0018,-5.5194,-5.4572,-5.3969,-5.5216,-5.6136,-5.6662,-5.6662,-5.6662,-5.5761,-5.3524,-5.4503,-5.3735,-5.0185,-5.2531,-5.3451,-5.2081,-5.2717,-5.2942,-5.2642,-5.1365,-5.0557,0.0,0.0,-4.3839,0.0,0.0,0.0,0.0,0.0,0.0,0.0,-4.6649,-4.8045,-4.9337,-4.9943,-4.9948,-4.9593,-4.9768,-4.9844,-4.9844,-4.9844,-4.9981,-5.034,-5.1346,-5.228,-5.2926,-5.2462,-5.2809,-5.3183,-5.2146,-5.1289,-5.0654,-5.0654,-5.0654,-5.0681,-5.0863,-5.0921,-5.0902,-5.0825,-5.0228,-4.947,-4.8567,-4.7175,-4.5964,-4.5467,-4.3579,-4.1218,0.0,0.0,0.0,0.0,0.0,0.0,0.0,0.0,0.0,0.0,-2.6954,0.0,0.0,0.0,0.0,0.0,0.0,0.0,-3.0536,0.0,-3.3621,-3.5989,-3.8373,-4.164,-4.5726,-4.4127,-4.4307,-4.6002,-4.6002,-4.6002,-4.6002,-4.6002,-4.6002,-4.6002,-4.6002,-4.6002,-4.6002,-4.6012,-4.6017,-4.6017,-4.6027,-4.6013,-4.6037,0.0,0.0,0.0,0.0,0.0,0.0,0.0,-5.5568,-5.6398,-5.7018,-5.6981,-5.6887,-5.6887,-5.6887,-5.6493,-5.5498,-5.6005,-5.546,-5.3284,-5.4373,-5.4615,-5.3451,-5.3733,-5.3693,-5.3205,-5.2548,-5.1947,0.0,0.0,0.0,0.0,0.0,0.0,0.0,0.0,-4.5097,-4.5824,-4.7834,-4.8991,-4.9505,-4.9702,-4.9659,-4.9505,-4.9604,-4.963,-4.963,-4.963,-4.9683,-4.9848,-5.0322,-5.1221,-5.2168,-5.2419,-5.2412,-5.2218,-5.1757,-5.1015,-5.0372,-5.0372,-5.0372,-5.0393,-5.0458,-5.0479,-5.0479,-5.0479,-5.0365,-5.0002,-4.915,-4.777,-4.6506,-4.5764,-4.4989,-4.3546,-4.0821,0.0,0.0,0.0,0.0,0.0,0.0,0.0,0.0,0.0,0.0,0.0,0.0,0.0,0.0,0.0,0.0,0.0,-3.3716,0.0,-3.728,-4.1915,-4.1455,-4.2825,-4.6037,-4.5322,-4.5356,-4.6002,-4.6002,-4.6002,-4.6002,-4.6002,-4.6002,-4.6002,-4.6002,-4.6002,-4.6002,-4.6002,-4.6002,-4.6002,-4.6002,-4.6032,-4.6066,-5.344,0.0,-5.1767,0.0,-5.3518,-5.4482,-5.4044,-5.651,-5.8201,-5.7451,-5.7507,-5.76,-5.76,-5.76,-5.73,-5.6587,-5.6962,-5.6474,-5.4617,-5.518,-5.5124,-5.409,-5.4503,0.0,-5.3581,-5.3562,-5.3132,-5.2287,-4.795,0.0,0.0,0.0,0.0,0.0,-4.5697,-4.6824,-4.6936,-4.8739,-4.9509,-4.9509,-4.9509,-4.9509,-4.9509,-4.9509,-4.9509,-4.9509,-4.9509,-4.9509,-4.9521,-4.965,-5.0247,-5.1085,-5.2047,-5.1962,-5.1479,-5.1407,-5.0779,-5.0068,-5.0068,-5.0068,-5.0111,-5.0183,-5.0195,-5.0195,-5.0195,-5.0361,-5.0257,-4.9462,-4.8039,-4.6746,-4.5995,-4.5816,-4.4871,-4.2196,0.0,0.0,0.0,0.0,0.0,0.0,-3.5896,-3.4983,-3.7987,-3.3396,0.0,0.0,0.0,0.0,0.0,0.0,0.0,0.0,0.0,0.0,-4.3335,-4.2087,-4.2976,-4.6002,-4.6002,-4.6002,-4.6002,-4.6002,-4.6002,-4.6002,-4.6002,-4.6002,-4.6002,-4.6002,-4.6002,-4.6002,-4.6002,-4.6002,-4.6002,-4.6002,-4.6032,-4.6071,-5.6831,-5.6812,-5.7056,-5.7863,-5.8032,-5.747,-5.5818,-5.7694,-5.8408,-5.595,-5.7769,-5.9271,-5.9271,-5.9271,-5.8276,-5.5818,-5.7132,-5.6325,-5.2212,-5.4242,-5.4897,0.0,0.0,-5.5199,-5.4409,-5.439,-5.3977,-5.3186,0.0,0.0,-4.6955,0.0,-4.5622,-4.5772,-4.8326,-4.9452,-4.9471,-4.949,-4.9509,-4.9509,-4.9509,-4.9509,-4.9509,-4.9509,-4.9509,-4.9509,-4.9509,-4.9509,-4.9509,-4.949,-4.9509,-4.9759,-5.1085,-5.1522,-5.1443,-5.1177,-5.0494,-4.9798,-4.9798,-4.9798,-4.9884,-5.0135,-5.0195,-5.0195,-5.0195,-5.0206,-5.0026,-4.9423,-4.7757,-4.6432,-4.6483,-4.5795,-4.4362,-4.1819,0.0,0.0,0.0,0.0,0.0,0.0,-3.4042,-3.2656,-3.4494,-3.3028,0.0,0.0,0.0,0.0,0.0,0.0,0.0,-3.19,-3.1226,0.0,-3.7168,-3.8823,-4.1762,-4.6002,-4.6002,-4.6002,-4.6002,-4.6002,-4.6002,-4.6002,-4.6002,-4.6002,-4.6002,-4.6002,-4.6002,-4.6002,-4.6002,-4.6002,-4.6002,-4.6002,-4.6002,-4.6007,-5.3001,-5.5836,-5.8089,-5.6644,-5.7788,-5.8746,-5.8201,-5.8783,-5.9027,-5.8239,-5.8821,-5.929,-5.929,-5.929,-5.8971,0.0,-5.7057,-5.6325,0.0,-5.5291,-5.4803,-5.4841,-5.4277,-5.3564,-5.2719,-5.27,-5.2569,-5.2306,0.0,0.0,0.0,-4.8138,-4.8889,-4.9959,-5.0767,-5.0823,-5.0316,-5.0316,-4.9997,-4.9509,-4.9509,-4.9509,-4.9509,-4.9509,-4.9509,-4.9509,-4.9509,-4.9509,-4.9509,-4.9509,-4.9509,-4.9558,-5.0009,-5.0142,-5.0128,-5.0025,-4.9807,-4.9604,-4.9604,-4.9604,-4.9615,-4.9702,-4.9712,-4.9712,-4.9712,-4.9841,-4.9765,-4.9155,-4.854,-4.7713,-4.6456,-4.6111,-4.4936,-4.167,-4.29,0.0,0.0,0.0,0.0,0.0,-3.6992,-3.5947,-3.9505,-3.6654,0.0,0.0,0.0,0.0,0.0,0.0,0.0,0.0,-3.8369,0.0,-4.3141,-4.1971,-4.2937,-4.6002,-4.6002,-4.6002,-4.6002,-4.6002,-4.6002,-4.6002,-4.6002,-4.6002,-4.6002,-4.6002,-4.6002,-4.6002,-4.6002,-4.6002,-4.6002,-4.6002,-4.6002,-4.6002,-5.4221,-5.6831,-5.8821,-5.7263,-5.8276,-5.899,-5.8051,-5.8708,-5.8971,-5.8032,-5.8727,-5.929,-5.929,-5.929,0.0,-5.929,-5.7882,-5.7431,-5.8483,-5.6831,-5.6023,-5.6513,-5.5291,-5.4183,-5.3303,-5.3301,0.0,-5.285,-5.1837,-5.0917,-5.0087,-5.0616,-5.1255,-5.1912,-5.1912,-5.163,-5.1142,-5.1142,-5.086,-5.041,-5.041,-5.0222,-4.994,-4.994,-4.9753,-4.9509,-4.9509,-4.9509,-4.9509,-4.9509,-4.9509,-4.9509,-4.9509,-4.9509,-4.9509,-4.9509,-4.9509,-4.9509,-4.9509,-4.9509,-4.9509,-4.9509,-4.9509,-4.9509,-4.9509,-4.9604,-4.9607,-4.9302,-4.8929,-4.8295,-4.7239,-4.6544,-4.5437,-4.3268,-4.4225,-4.471,-4.3224,0.0,0.0,0.0,0.0,0.0,0.0,-3.9794,-3.8197,0.0,0.0,0.0,0.0,0.0,0.0,-3.9375,-4.0634,0.0,-4.455,-4.3331,-4.3792,-4.6002,-4.6002,-4.6177,-4.6482,-4.6157,-4.6177,-4.6463,-4.6138,-4.6002,-4.6002,-4.6002,-4.6002,-4.6002,-4.6002,-4.6002,-4.6002,-4.6002,-4.6002,-4.6002,-5.8821,-5.9065,-5.9253,-5.9065,-5.9196,-5.852,-5.6212,-5.7826,-5.8483,-5.6156,-5.7882,-5.929,-5.929,-5.929,-5.929,-5.929,0.0,0.0,-5.929,-5.8445,-5.7977,-5.8089,-5.7281,-5.638,-5.5443,-5.5424,-5.5086,-5.4409,-5.4409,-5.4015,-5.328,-5.328,-5.285,-5.2081,-5.2081,-5.2043,-5.1987,-5.1987,-5.1968,-5.1912,-5.1912,-5.1442,-5.0782,-5.0782,-5.0278,-4.9584,-4.9584,-4.9546,-4.9509,-4.9509,-4.9509,-4.9509,-4.9509,-4.9509,-4.9509,-4.9509,-4.9509,-4.9509,-4.9509,-4.9509,-4.9509,-4.9509,-4.9509,-4.9509,-4.9509,-4.9509,-4.9563,-4.974,-4.8984,-4.834,-4.8529,-4.7099,-4.5928,-4.6051,-4.5413,-4.4884,-4.4843,0.0,0.0,0.0,0.0,0.0,-4.1854,-4.232,-4.235,0.0,0.0,0.0,0.0,0.0,-3.4194,-3.7615,-3.9285,-4.0893,-4.2446,-4.3263,-4.4481,-4.6099,-4.6157,-4.6618,-4.7356,-4.654,-4.6618,-4.7337,-4.6463,-4.6099,-4.6099,-4.6021,-4.6002,-4.6002,-4.6002,-4.6002,-4.6002,-4.6002,-4.6002,-4.6002,-5.4033,0.0,-5.8708,-5.6794,-5.8051,-5.9102,-5.852,-5.8915,-5.9084,-5.8502,-5.8933,-5.929,-5.929,-5.929,-5.929,-5.929,-5.7582,-5.7281,-5.9178,-5.7338,-5.6757,-5.8033,-5.6682,-5.5254,-5.3789,-5.377,-5.3977,-5.4409,-5.4409,-5.4296,-5.4108,-5.4108,-5.4015,-5.3808,-5.3808,-5.347,-5.2905,-5.2905,-5.2513,-5.1912,-5.1912,-5.1799,-5.163,-5.163,-5.1123,-5.041,-5.041,-5.0016,-4.9509,-4.9509,-4.9509,-4.9509,-4.9509,-4.9509,-4.9509,-4.9509,-4.9509,-4.9509,-4.9509,-4.9509,-4.9509,-4.9509,-4.9509,-4.9509,-4.9509,-4.9509,-4.9505,-4.9559,-4.9382,-4.9013,-4.8411,-4.7916,-4.721,-4.5984,-4.5778,-4.4711,-4.1594,-4.0758,0.0,0.0,-3.9064,-4.0453,-4.1964,-4.3868,-4.3959,0.0,0.0,0.0,0.0,-3.975,-4.0418,-4.3792,-4.4292,-4.47,-4.5094,-4.5302,-4.5938,-4.7007,-4.7667,-4.8094,-4.8289,-4.8075,-4.8094,-4.825,-4.7376,-4.6987,-4.6948,-4.6268,-4.6002,-4.6002,-4.6002,-4.6002,-4.6002,-4.6002,-4.6002,-4.6002,-5.5554,-5.745,-5.8877,-5.7544,-5.8408,-5.929,-5.929,-5.929,-5.929,-5.929,-5.929,-5.929,-5.929,-5.929,-5.929,-5.929,-5.807,-5.7863,-5.9215,-5.8051,-5.7713,-5.8614,-5.7413,-5.6174,-5.4933,-5.4503,-5.4334,-5.4409,-5.4409,-5.4409,-5.4409,-5.4409,-5.4409,-5.4409,-5.4409,-5.4165,-5.375,-5.375,-5.347,-5.3038,-5.3038,-5.2813,-5.2494,-5.2494,-5.1968,-5.1198,-5.0839,-5.041,-4.9978,-4.9621,-4.9509,-4.9509,-4.9509,-4.9509,-4.9509,-4.9509,-4.9509,-4.9509,-4.9509,-4.9509,-4.9509,-4.9509,-4.9509,-4.9509,-4.9509,-4.9509,-4.9509,-4.9509,-4.9509,-4.9358,-4.887,-4.8457,-4.7894,-4.6993,-4.5706,-4.4039,-4.1774,-4.0252,-3.9346,-3.9306,-4.022,-4.1585,-4.3475,-4.4923,-4.506,-4.3322,-4.2136,0.0,-4.3797,-4.2793,-4.3376,-4.5959,-4.643,-4.6639,-4.6639,-4.6998,-4.742,-4.7897,-4.8363,-4.8805,-4.9188,-4.8791,-4.8824,-4.9143,-4.8269,-4.7667,-4.7254,-4.6793,-4.6366,-4.6002,-4.6002,-4.6002,-4.6002,-4.6002,-4.6002,-4.5997,-5.929,-5.929,-5.929,-5.929,-5.929,-5.929,-5.929,-5.929,-5.929,-5.929,-5.929,-5.929,-5.929,-5.929,-5.929,-5.929,-5.929,-5.929,-5.929,-5.929,-5.929,-5.929,-5.8652,-5.7901,-5.7094,-5.6117,-5.5199,-5.4409,-5.4409,-5.4409,-5.4409,-5.4409,-5.4409,-5.4409,-5.4409,-5.4409,-5.4409,-5.4409,-5.4409,-5.4409,-5.4409,-5.3977,-5.3393,-5.3393,-5.285,-5.2006,-5.1311,-5.0914,-5.0613,-4.9903,-4.9602,-4.9509,-4.9509,-4.9509,-4.9509,-4.9509,-4.9509,-4.9527,-4.9659,-4.9678,-4.9659,-4.9527,-4.9509,-4.9509,-4.9509,-4.9509,-4.9509,-4.9509,-4.9509,-4.9509,-4.9509,-4.8889,-4.8232,-4.7725,-4.5303,-4.3257,-4.2618,0.0,-4.0012,-4.2159,-4.2349,-4.3223,-4.56,-4.5907,-4.604,-4.6227,-4.4281,-4.4384,-4.7342,-4.5473,-4.4976,-4.6444,-4.7199,-4.7597,-4.7597,-4.8388,-4.8796,-4.8798,-4.8934,-4.939,-5.0068,-4.9337,-4.9384,-5.0031,-4.9157,-4.8355,-4.767,-4.7387,-4.6849,-4.6161,-4.6033,-4.5975,-4.5975,-4.5975,-4.5975,-4.5969,-5.929,-5.929,-5.929,-5.929,-5.929,-5.929,-5.929,-5.929,-5.929,-5.929,-5.929,-5.929,-5.929,-5.929,-5.929,-5.929,-5.929,-5.929,-5.929,-5.929,-5.929,-5.929,-5.9178,-5.8746,-5.7938,-5.6381,-5.5199,-5.4409,-5.4409,-5.4409,-5.4409,-5.4409,-5.4409,-5.4409,-5.4409,-5.4409,-5.4409,-5.4409,-5.4409,-5.4409,-5.4409,-5.4334,-5.4202,-5.4202,-5.3695,-5.298,-5.2867,-5.1909,-5.0688,-5.0557,-5.0053,-4.9509,-4.9509,-4.9509,-4.9509,-4.9509,-4.9509,-4.9659,-5.0316,-5.0519,-5.0335,-4.9678,-4.9509,-4.9509,-4.9509,-4.9509,-4.9509,-4.9509,-4.9509,-4.9509,-4.9509,-4.9396,-4.8363,-4.5528,-4.4651,-4.3088,-3.9577,0.0,-4.2517,-4.2401,-4.4768,-4.6642,-4.7302,-4.7511,-4.767,-4.7745,-4.7402,-4.7528,-4.8349,-4.7868,-4.7794,-4.8287,-4.8428,-4.8506,-4.8506,-4.9294,-4.9706,-4.9711,-5.0431,-5.0878,-5.0994,-5.086,-5.0834,-5.0875,-4.9995,-4.953,-4.9291,-4.7752,-4.7081,-4.6926,-4.6132,-4.5841,-4.5841,-4.5841,-4.5841,-4.5834,-5.9159,-5.9234,-5.929,-5.929,-5.929,-5.929,-5.929,-5.929,-5.929,-5.929,-5.929,-5.929,-5.929,-5.929,-5.929,-5.929,-5.929,-5.929,-5.929,-5.929,-5.929,-5.929,-5.929,-5.8727,-5.7488,-5.6231,-5.5199,-5.4409,-5.4409,-5.4409,-5.4409,-5.4409,-5.4409,-5.4409,-5.4409,-5.4409,-5.4409,-5.4409,-5.4409,-5.4409,-5.4409,-5.4409,-5.4409,-5.4409,-5.4165,-5.3789,-5.3355,-5.2698,-5.1909,-5.1008,-5.0447,-5.0072,-4.964,-4.9509,-4.9509,-4.9509,-4.9509,-4.9584,-4.994,-5.0053,-4.9959,-4.9584,-4.9509,-4.9509,-4.9509,-4.9509,-4.9509,-4.9509,-4.9509,-4.9509,-4.9509,-4.9509,-4.9002,-4.7443,-4.6054,0.0,-4.2562,-4.3238,-4.3842,-4.356,-4.5666,-4.7227,-4.7466,-4.756,-4.7741,-4.8008,-4.8079,-4.8435,-4.9214,-4.9168,-4.9373,-4.9973,-4.9615,-4.9638,-5.0105,-5.0437,-5.0621,-5.0651,-5.0994,-5.1147,-5.1147,-5.1142,-5.1126,-5.1082,-5.0642,-5.0176,-4.969,-4.8813,-4.7923,-4.7099,-4.6658,-4.6206,-4.5807,-4.5807,-4.5807,-4.58,-5.8964,-5.9043,-5.9177,-5.9215,-5.9215,-5.9253,-5.929,-5.929,-5.929,-5.929,-5.929,-5.929,-5.929,-5.929,-5.929,-5.929,-5.929,-5.929,-5.929,-5.929,-5.929,-5.929,-5.929,-5.8539,-5.6943,-5.6249,-5.5423,-5.4409,-5.4409,-5.4409,-5.4409,-5.4409,-5.4409,-5.4409,-5.4409,-5.4409,-5.4409,-5.4409,-5.4409,-5.4409,-5.4409,-5.4409,-5.4409,-5.4409,-5.4409,-5.4315,-5.3695,-5.3355,-5.298,-5.1496,-5.0857,-5.0557,-4.9753,-4.9509,-4.9509,-4.9509,-4.9509,-4.9509,-4.9509,-4.964,-4.9734,-4.9546,-4.9509,-4.9509,-4.9509,-4.9509,-4.9509,-4.9509,-4.9509,-4.9509,-4.9509,-4.9509,-4.9302,-4.8701,0.0,-4.5697,-4.5697,-4.5172,-4.5003,-4.5589,-4.6805,-4.7644,-4.7799,-4.7856,-4.8022,-4.8388,-4.8471,-4.8902,-4.985,-4.9857,-5.0194,-5.0998,-5.0549,-5.0601,-5.1263,-5.1234,-5.1234,-5.1273,-5.1153,-5.1093,-5.1093,-5.1094,-5.1102,-5.1067,-5.102,-5.0603,-4.9961,-4.9684,-4.881,-4.7619,-4.721,-4.665,-4.6039,-4.5861,-4.5776,-4.5742,-5.8737,-5.8719,-5.8801,-5.9003,-5.9024,-5.9082,-5.9272,-5.929,-5.929,-5.929,-5.929,-5.929,-5.929,-5.929,-5.929,-5.929,-5.929,-5.929,-5.929,-5.929,-5.929,-5.929,-5.929,-5.8539,-5.6943,-5.6831,-5.6005,-5.4409,-5.4409,-5.4409,-5.4409,-5.4409,-5.4409,-5.4409,-5.4409,-5.4409,-5.4409,-5.4409,-5.4409,-5.4409,-5.4409,-5.4409,-5.4409,-5.4409,-5.4409,-5.439,-5.4334,-5.3827,-5.3074,-5.2137,-5.1311,-5.0557,-4.9753,-4.9509,-4.9509,-4.9509,-4.9509,-4.9509,-4.9509,-5.0034,-5.0444,-4.9696,-4.9509,-4.9509,-4.9509,-4.9509,-4.9509,-4.9509,-4.9509,-4.9509,-4.9509,-4.9509,-4.8739,-4.6354,0.0,0.0,-4.5697,-4.5641,-4.6486,-4.8852,-4.9246,-4.9321,-4.9333,-4.9504,-4.9627,-4.9648,-4.9662,-4.9829,-5.0157,-4.998,-5.0183,-5.0798,-5.1008,-5.1133,-5.1211,-5.1205,-5.1194,-5.1219,-5.1132,-5.1101,-5.1101,-5.1107,-5.1069,-5.1012,-5.1005,-5.0929,-5.0745,-4.9869,-4.9436,-4.9161,-4.7544,-4.6873,-4.6728,-4.5982,-4.5665,-4.562,-5.8489,-5.8593,-5.8719,-5.8801,-5.8803,-5.8842,-5.8904,-5.8924,-5.8924,-5.8924,-5.9002,-5.9022,-5.8942,-5.9002,-5.9002,-5.8942,-5.8924,-5.8924,-5.8924,-5.9043,-5.9159,-5.929,-5.929,-5.8539,-5.6943,-5.6887,-5.608,-5.4409,-5.4409,-5.4409,-5.4409,-5.4409,-5.4409,-5.4409,-5.4409,-5.4409,-5.4409,-5.4409,-5.4409,-5.4409,-5.4409,-5.4409,-5.4409,-5.4409,-5.4409,-5.4409,-5.4409,-5.4202,-5.3733,-5.2362,-5.1705,-5.1217,-4.9903,-4.9509,-4.9509,-4.9509,-4.9509,-4.9509,-4.9509,-4.9715,-4.9884,-4.9584,-4.9509,-4.9509,-4.9509,-4.9509,-4.9509,-4.9509,-4.9509,-4.9509,-4.9509,-4.9509,-4.9189,-4.8213,0.0,-4.8063,-4.8063,-4.8063,-4.842,-4.9377,-4.9509,-4.9509,-4.9509,-4.9559,-4.9683,-4.979,-4.9803,-4.9923,-5.0183,-5.014,-5.0184,-5.043,-5.0565,-5.0801,-5.1134,-5.115,-5.1144,-5.1142,-5.1076,-5.1042,-5.1043,-5.099,-5.0966,-5.0941,-5.0945,-5.0913,-5.088,-5.0465,-4.9993,-4.9384,-4.8212,-4.7444,-4.6855,-4.6004,-4.5668,-4.5679,-5.8231,-5.819,-5.8235,-5.8319,-5.8194,-5.8113,-5.822,-5.8264,-5.8286,-5.8286,-5.8516,-5.8658,-5.8537,-5.8781,-5.8882,-5.8801,-5.8782,-5.8782,-5.8782,-5.8924,-5.9063,-5.9197,-5.9009,-5.824,-5.6816,-5.6589,-5.5798,-5.4409,-5.4375,-5.4357,-5.4357,-5.4357,-5.4357,-5.4375,-5.4392,-5.4409,-5.4409,-5.4409,-5.4409,-5.4409,-5.4409,-5.4409,-5.4409,-5.4409,-5.4409,-5.4409,-5.4409,-5.4409,-5.4183,-5.2775,-5.2137,-5.1668,-5.0297,-4.9696,-4.9509,-4.9509,-4.9509,-4.9509,-4.9509,-4.9509,-4.9509,-4.9509,-4.9509,-4.9509,-4.9509,-4.9509,-4.9509,-4.9509,-4.9509,-4.9509,-4.9509,-4.9509,-4.9509,-4.9509,-4.9509,-4.9509,-4.9509,-4.9509,-4.9509,-4.9509,-4.9509,-4.9509,-4.9509,-4.9509,-4.9563,-4.9707,-4.9703,-4.9787,-4.9968,-4.9968,-5.0019,-5.0056,-5.0114,-5.0371,-5.0817,-5.0908,-5.101,-5.1069,-5.0995,-5.0978,-5.0961,-5.0929,-5.0898,-5.0898,-5.0893,-5.0888,-5.0899,-5.0846,-5.0463,-4.9837,-4.9007,-4.8158,-4.7309,-4.6457,-4.5947,-4.57,-5.7997,-5.7522,-5.7191,-5.7462,-5.7119,-5.6888,-5.7163,-5.731,-5.7382,-5.7382,-5.7863,-5.819,-5.819,-5.8648,-5.8984,-5.8984,-5.8984,-5.8984,-5.8984,-5.8984,-5.8984,-5.8984,-5.8428,-5.7585,-5.6519,-5.5898,-5.5199,-5.4409,-5.4324,-5.4308,-5.4308,-5.4308,-5.4308,-5.4308,-5.4393,-5.4409,-5.4409,-5.4409,-5.4409,-5.4409,-5.4409,-5.4409,-5.4409,-5.4409,-5.4409,-5.4409,-5.4409,-5.4409,-5.4277,-5.3468,-5.2606,-5.1762,-5.0935,-5.0128,-4.9509,-4.9509,-4.9509,-4.9509,-4.9509,-4.9509,-4.9509,-4.9509,-4.9509,-4.9509,-4.9509,-4.9509,-4.9509,-4.9509,-4.9509,-4.9509,-4.9509,-4.9509,-4.9509,-4.9509,-4.9509,-4.9509,-4.9509,-4.9509,-4.9509,-4.9509,-4.9509,-4.9509,-4.9509,-4.9509,-4.9509,-4.9509,-4.9509,-4.9509,-4.9509,-4.9509,-4.9585,-4.979,-4.9803,-4.9936,-5.0195,-5.0529,-5.0808,-5.0997,-5.0937,-5.0898,-5.0898,-5.0898,-5.0898,-5.0898,-5.0898,-5.0901,-5.0899,-5.0899,-5.0855,-5.0705,-4.9837,-4.9007,-4.8205,-4.7395,-4.6511,-4.5715,-5.8152,-5.7768,-5.7468,-5.7565,-5.7091,-5.6747,-5.685,-5.6876,-5.6902,-5.6902,-5.713,-5.7254,-5.7155,-5.7377,-5.7497,-5.7401,-5.7766,-5.8235,-5.876,-5.8261,-5.7945,-5.7945,-5.79,-5.7192,-5.5697,-5.5472,-5.5003,-5.418,-5.4181,-5.4163,-5.4182,-5.4743,-5.4742,-5.4327,-5.4906,-5.4884,-5.4409,-5.4409,-5.4409,-5.4409,-5.4409,-5.4409,-5.4409,-5.4409,-5.4409,-5.4409,-5.4409,-5.4409,-5.4277,-5.3468,-5.2606,-5.1668,-5.0297,-4.9696,-4.9509,-4.9509,-4.9509,-4.9509,-4.9509,-4.9509,-4.9509,-4.9509,-4.9509,-4.9509,-4.9509,-4.9509,-4.9509,-4.9509,-4.9509,-4.9509,-4.9509,-4.9509,-4.9509,-4.9509,-4.9509,-4.9509,-4.9509,-4.9509,-4.9509,-4.9509,-4.9509,-4.9509,-4.9509,-4.9509,-4.9509,-4.9509,-4.9551,-4.9563,-4.9563,-4.9563,-4.9589,-4.9655,-4.9615,-4.9693,-4.9923,-5.021,-5.048,-5.0722,-5.0696,-5.0803,-5.1046,-5.1046,-5.1012,-5.0971,-5.0971,-5.0941,-5.0901,-5.0901,-5.0893,-5.0789,-4.9958,-4.9494,-4.9115,-4.7634,-4.6919,-4.6602,-5.7973,-5.7394,-5.6941,-5.6941,-5.6483,-5.6111,-5.6111,-5.6156,-5.6247,-5.6247,-5.6483,-5.6643,-5.6564,-5.6809,-5.6964,-5.6861,-5.7184,-5.7467,-5.7582,-5.7144,-5.6551,-5.5867,-5.5942,-5.5749,-5.5193,-5.4951,-5.4576,-5.4109,-5.4055,-5.4055,-5.4074,-5.4876,-5.5044,-5.4706,-5.5547,-5.5526,-5.4828,-5.4828,-5.4675,-5.4409,-5.4409,-5.4409,-5.4409,-5.4409,-5.4409,-5.4409,-5.4409,-5.4409,-5.4334,-5.3827,-5.2869,-5.163,-5.0016,-4.9509,-4.9509,-4.9509,-4.9509,-4.9509,-4.9509,-4.9509,-4.9509,-4.9509,-4.9509,-4.9509,-4.9509,-4.9509,-4.9509,-4.9509,-4.9509,-4.9509,-4.9509,-4.9509,-4.9509,-4.9509,-4.9509,-4.9509,-4.9509,-4.9509,-4.9509,-4.9509,-4.9509,-4.9509,-4.9509,-4.9509,-4.9509,-4.9509,-4.9536,-4.9548,-4.9548,-4.9548,-4.9548,-4.9548,-4.9521,-4.9563,-4.9679,-4.9841,-5.0099,-5.0449,-5.0449,-5.0548,-5.0754,-5.0847,-5.0871,-5.0855,-5.0956,-5.0971,-5.0948,-5.0906,-5.0898,-5.084,-5.0357,-4.9977,-4.9533,-4.8121,-4.7405,-4.698,-5.7534,-5.6661,-5.5947,-5.5947,-5.5555,-5.5229,-5.5229,-5.5383,-5.5507,-5.5507,-5.5947,-5.6247,-5.6247,-5.6652,-5.6964,-5.6964,-5.6942,-5.6631,-5.5945,-5.5764,-5.4991,-5.3364,-5.3237,-5.3668,-5.4714,-5.4242,-5.4018,-5.4073,-5.4019,-5.3982,-5.4,-5.4876,-5.5267,-5.523,-5.6238,-5.6239,-5.5489,-5.5489,-5.5074,-5.4392,-5.4409,-5.4409,-5.4409,-5.4409,-5.4409,-5.4409,-5.4409,-5.4409,-5.439,-5.4315,-5.3226,-5.163,-5.0091,-4.9565,-4.9509,-4.9509,-4.9509,-4.9509,-4.9509,-4.9509,-4.9509,-4.9509,-4.9509,-4.9509,-4.9509,-4.9509,-4.9509,-4.9509,-4.9509,-4.9527,-4.9584,-4.9602,-4.9602,-4.9602,-4.9602,-4.9584,-4.9509,-4.9565,-4.9584,-4.9509,-4.9565,-4.9584,-4.9509,-4.9509,-4.9509,-4.9509,-4.9509,-4.9524,-4.9524,-4.9524,-4.9524,-4.9524,-4.949,-4.9509,-4.9509,-4.9509,-4.9745,-5.0171,-5.0171,-5.0195,-5.023,-5.045,-5.0577,-5.0586,-5.0855,-5.0971,-5.0956,-5.0914,-5.0906,-5.0898,-5.0898,-5.0453,-4.9707,-4.8836,-4.7966,-4.7083,-5.7058,-5.659,-5.6201,-5.6201,-5.5775,-5.5431,-5.5431,-5.5478,-5.5507,-5.5507,-5.5607,-5.5666,-5.5666,-5.5793,-5.5833,-5.5833,-5.5641,-5.5654,-5.5884,-5.4774,-5.3851,-5.3309,-5.269,-5.2436,-5.258,-5.2962,-5.3385,-5.387,-5.3851,-5.3851,-5.3888,-5.5375,-5.5749,-5.5267,-5.6739,-5.6611,-5.536,-5.5471,-5.5038,-5.4324,-5.4375,-5.4409,-5.4409,-5.4409,-5.4409,-5.4409,-5.4409,-5.4409,-5.4296,-5.3658,-5.2757,-5.1743,-5.0748,-5.0016,-4.9509,-4.9509,-4.9509,-4.9509,-4.9509,-4.9509,-4.9509,-4.9509,-4.9509,-4.9509,-4.9509,-4.9509,-4.9509,-4.9509,-4.9509,-4.9696,-5.0316,-5.0444,-5.0444,-5.0444,-5.0444,-5.0222,-4.9584,-5.0034,-5.0203,-4.9565,-5.0053,-5.0185,-4.9565,-4.9509,-4.9509,-4.9509,-4.9551,-4.9578,-4.9578,-4.9578,-4.9578,-4.9578,-4.9521,-4.9509,-4.9509,-4.9509,-4.9659,-4.9974,-4.9974,-5.0073,-5.0284,-5.0329,-5.0378,-5.0376,-5.0652,-5.0743,-5.0709,-5.089,-5.0948,-5.0898,-5.0898,-5.0782,-5.0531,-4.9726,-4.8871,-4.7893,-5.6617,-5.6229,-5.5918,-5.5918,-5.5695,-5.5507,-5.5507,-5.5507,-5.5507,-5.5507,-5.5507,-5.5507,-5.5507,-5.5507,-5.5367,-5.4963,-5.4794,-5.4543,-5.408,-5.3276,-5.2557,-5.1941,-5.1525,-5.1345,-5.1419,-5.1783,-5.2413,-5.3383,-5.3383,-5.3522,-5.3831,-5.5094,-5.569,-5.5786,-5.7013,-5.7129,-5.6387,-5.6071,-5.5528,-5.4851,-5.4492,-5.4375,-5.4409,-5.4357,-5.434,-5.434,-5.434,-5.4375,-5.4277,-5.3468,-5.2606,-5.1762,-5.0935,-5.0147,-4.9509,-4.9509,-4.9509,-4.9509,-4.9509,-4.9509,-4.9509,-4.9509,-4.9459,-4.939,-4.939,-4.939,-4.9393,-4.9361,-4.9361,-4.9508,-4.9952,-5.0043,-5.0043,-5.0128,-5.0128,-5.0109,-5.0072,-5.0444,-5.0691,-5.0654,-5.1011,-5.0954,-5.0147,-4.9734,-4.9509,-4.9509,-4.9536,-4.9548,-4.9548,-4.9548,-4.9548,-4.9548,-4.9521,-4.9509,-4.9509,-4.9509,-4.9578,-4.9707,-4.9707,-4.9787,-4.9917,-5.0061,-5.0109,-5.0116,-5.0398,-5.0489,-5.0467,-5.0577,-5.0662,-5.0763,-5.0763,-5.0833,-5.0801,-4.9997,-4.8917,-4.7636,-5.6164,-5.5822,-5.5507,-5.5507,-5.5507,-5.5507,-5.5507,-5.5507,-5.5507,-5.5507,-5.5507,-5.5507,-5.5507,-5.5385,-5.5033,-5.4366,-5.4068,-5.3366,-5.2074,-5.1864,-5.1385,-5.0488,-5.0425,-5.0557,-5.0769,-5.0769,-5.1411,-5.2736,-5.2736,-5.3038,-5.3659,-5.4474,-5.5367,-5.6339,-5.7138,-5.7531,-5.7537,-5.6868,-5.6164,-5.5396,-5.4741,-5.4419,-5.4339,-5.4289,-5.4272,-5.4272,-5.4272,-5.4288,-5.4262,-5.3603,-5.2721,-5.1767,-5.1104,-5.026,-4.9509,-4.9509,-4.9474,-4.9474,-4.9474,-4.9474,-4.9459,-4.9443,-4.9374,-4.9273,-4.9276,-4.9276,-4.9276,-4.9211,-4.9214,-4.9267,-4.9444,-4.9498,-4.9514,-4.9634,-4.9649,-4.9853,-5.0375,-5.0582,-5.0882,-5.1442,-5.1611,-5.148,-5.0954,-5.0185,-4.9715,-4.9715,-4.9584,-4.9509,-4.9509,-4.9509,-4.9509,-4.9509,-4.9509,-4.9509,-4.9509,-4.9509,-4.9509,-4.9509,-4.9509,-4.9509,-4.9524,-4.9736,-4.9836,-4.9849,-5.0123,-5.0241,-5.021,-5.0218,-5.0331,-5.0537,-5.0537,-5.0635,-5.0662,-4.9757,-4.8558,-4.7214,-5.5607,-5.5566,-5.5507,-5.5507,-5.5507,-5.5507,-5.5507,-5.5507,-5.5507,-5.5507,-5.5507,-5.5507,-5.5507,-5.4893,-5.4419,-5.4314,-5.3085,-5.2214,-5.2004,-5.14,-5.0924,-5.0575,-5.0557,-5.0492,-5.0313,-5.0296,-5.0884,-5.2047,-5.2047,-5.2368,-5.3033,-5.3861,-5.4962,-5.6339,-5.7138,-5.7509,-5.7511,-5.7463,-5.659,-5.5249,-5.5193,-5.4762,-5.4145,-5.4127,-5.4146,-5.4146,-5.4146,-5.4127,-5.4126,-5.4158,-5.3108,-5.1797,-5.1748,-5.071,-4.9509,-4.9509,-4.9424,-4.9324,-4.9324,-4.9324,-4.9308,-4.9262,-4.9276,-4.9276,-4.915,-4.9164,-4.9195,-4.9195,-4.9214,-4.9419,-5.011,-5.0241,-5.026,-5.0277,-5.0277,-5.0085,-4.9567,-5.0148,-5.0424,-4.9887,-5.0429,-5.1086,-5.1686,-5.1011,-5.0538,-5.0538,-4.9884,-4.9509,-4.9509,-4.9509,-4.9509,-4.9509,-4.9509,-4.9509,-4.9509,-4.9509,-4.9509,-4.9509,-4.9509,-4.9509,-4.949,-4.9551,-4.9548,-4.9578,-4.9836,-4.9917,-4.9878,-5.0164,-5.0275,-5.0252,-5.0252,-5.0275,-5.012,-4.8806,-4.8163,-4.7786,-5.5507,-5.5507,-5.5507,-5.5507,-5.5507,-5.5507,-5.5507,-5.5507,-5.5507,-5.5507,-5.5507,-5.5507,-5.5507,-5.4788,-5.3963,-5.3102,-5.2372,-5.1839,-5.1417,-5.1066,-5.0819,-5.0612,-5.0585,-5.0519,-5.0331,-5.0302,-5.0557,-5.1052,-5.1251,-5.1667,-5.2363,-5.3083,-5.3818,-5.4546,-5.5276,-5.5636,-5.5738,-5.6132,-5.5916,-5.5297,-5.5266,-5.5044,-5.4689,-5.3905,-5.3795,-5.4037,-5.4037,-5.4073,-5.4109,-5.4163,-5.306,-5.1677,-5.1728,-5.0621,-4.9329,-4.9329,-4.9295,-4.9244,-4.9244,-4.9244,-4.9228,-4.9214,-4.9197,-4.9183,-4.9118,-4.9047,-4.9029,-4.9029,-4.9029,-4.9157,-4.9599,-4.9655,-4.9689,-4.972,-4.972,-4.9774,-4.9901,-5.0305,-5.067,-5.0826,-5.0748,-5.1011,-5.1818,-5.1161,-5.0707,-5.0707,-5.0372,-4.9959,-4.9527,-4.9509,-4.9509,-4.9509,-4.9509,-4.9509,-4.9509,-4.9509,-4.9509,-4.9509,-4.9509,-4.9509,-4.9509,-4.9509,-4.9509,-4.9524,-4.9634,-4.9655,-4.964,-4.9792,-4.9903,-4.9987,-4.9987,-5.0075,-5.0065,-4.8996,-4.8318,-4.777]},{"header":{"parameterUnit":"m.s-1","parameterCategory":1,"la1":30.6,"la2":28.766,"lo1":-90.7593,"lo2":-88.6598,"dy":0.0162,"dx":0.0183,"nx":116,"ny":114,"refTime":"2023-04-30T00:00:00:Z","depth":0,"parameterNumber":3,"parameterNumberName":"V-component_of_WINDS"},"data":[0.0,0.0,0.0,0.0,0.0,0.0,0.0,0.0,0.0,0.0,0.0,0.0,0.0,0.0,0.0,0.0,0.0,0.0,0.0,0.0,0.0,0.0,0.0,0.0,0.0,0.0,0.0,0.0,0.0,0.0,0.0,0.0,0.0,0.0,0.0,0.0,0.0,0.0,0.0,0.0,0.0,0.0,0.0,0.0,0.0,0.0,0.0,0.0,0.0,0.0,0.0,0.0,0.0,0.0,0.0,0.0,0.0,0.0,0.0,0.0,0.0,0.0,0.0,0.0,0.0,0.0,0.0,0.0,0.0,0.0,0.0,0.0,0.0,0.0,0.0,0.0,0.0,0.0,0.0,0.0,0.0,0.0,0.0,0.0,0.0,0.0,0.0,0.0,0.0,0.0,0.0,0.0,0.0,0.0,0.0,0.0,0.0,0.0,0.0,0.0,0.0,0.0,0.0,0.0,0.0,0.0,0.0,0.0,0.0,0.0,0.0,0.0,0.0,0.0,0.0,0.0,0.0,0.0,0.0,0.0,0.0,0.0,0.0,0.0,0.0,0.0,0.0,0.0,0.0,0.0,0.0,0.0,0.0,0.0,0.0,0.0,0.0,0.0,0.0,0.0,0.0,0.0,0.0,0.0,0.0,0.0,0.0,0.0,0.0,0.0,0.0,0.0,0.0,0.0,0.0,0.0,0.0,0.0,0.0,0.0,0.0,0.0,0.0,0.0,0.0,0.0,0.0,0.0,0.0,0.0,0.0,0.0,0.0,0.0,0.0,0.0,0.0,0.0,0.0,0.0,0.0,0.0,0.0,0.0,0.0,0.0,0.0,0.0,0.0,0.0,0.0,0.0,0.0,0.0,0.0,0.0,0.0,0.0,0.0,0.0,0.0,0.0,0.0,0.0,0.0,0.0,0.0,0.0,0.0,0.0,0.0,0.0,0.0,0.0,0.0,0.0,0.0,0.0,0.0,0.0,0.0,0.0,0.0,0.0,0.0,0.0,0.0,0.0,0.0,0.0,0.0,0.0,0.0,0.0,0.0,0.0,0.0,0.0,0.0,0.0,0.0,0.0,0.0,0.0,0.0,0.0,0.0,0.0,0.0,0.0,0.0,0.0,0.0,0.0,0.0,0.0,0.0,0.0,0.0,0.0,0.0,0.0,0.0,0.0,0.0,0.0,0.0,0.0,0.0,0.0,0.0,0.0,0.0,0.0,0.0,0.0,0.0,0.0,0.0,0.0,0.0,0.0,0.0,0.0,0.0,0.0,0.0,0.0,0.0,0.0,0.0,0.0,0.0,0.0,0.0,0.0,0.0,0.0,0.0,0.0,0.0,0.0,0.0,0.0,0.0,0.0,0.0,0.0,0.0,0.0,0.0,0.0,0.0,0.0,0.0,0.0,0.0,0.0,0.0,0.0,0.0,0.0,0.0,0.0,0.0,0.0,0.0,0.0,0.0,0.0,0.0,0.0,0.0,0.0,0.0,0.0,0.0,0.0,0.0,0.0,0.0,0.0,0.0,0.0,0.0,0.0,0.0,0.0,0.0,0.0,0.0,0.0,0.0,0.0,0.0,0.0,0.0,0.0,0.0,0.0,0.0,0.0,0.0,0.0,0.0,0.0,0.0,0.0,0.0,0.0,0.0,0.0,0.0,0.0,0.0,0.0,0.0,0.0,0.0,0.0,0.0,0.0,0.0,0.0,0.0,0.0,0.0,0.0,0.0,0.0,0.0,0.0,0.0,0.0,0.0,0.0,0.0,0.0,0.0,0.0,0.0,0.0,0.0,0.0,0.0,0.0,0.0,0.0,0.0,0.0,0.0,0.0,0.0,0.0,0.0,0.0,0.0,0.0,0.0,0.0,0.0,0.0,0.0,0.0,0.0,0.0,0.0,0.0,0.0,0.0,0.0,0.0,0.0,0.0,0.0,0.0,0.0,0.0,0.0,0.0,0.0,0.0,0.0,0.0,0.0,0.0,0.0,0.0,0.0,0.0,0.0,0.0,0.0,0.0,0.0,0.0,0.0,0.0,0.0,0.0,0.0,0.0,0.0,0.0,0.0,0.0,0.0,0.0,0.0,0.0,0.0,0.0,0.0,0.0,0.0,0.0,0.0,0.0,0.0,0.0,0.0,0.0,0.0,0.0,0.0,0.0,0.0,0.0,0.0,0.0,0.0,0.0,0.0,0.0,0.0,0.0,0.0,0.0,0.0,0.0,0.0,0.0,0.0,0.0,0.0,0.0,0.0,0.0,0.0,0.0,0.0,0.0,0.0,0.0,0.0,0.0,0.0,0.0,0.0,0.0,0.0,0.0,0.0,0.0,0.0,0.0,0.0,0.0,0.0,0.0,0.0,0.0,0.0,0.0,0.0,0.0,0.0,0.0,0.0,0.0,0.0,0.0,0.0,0.0,0.0,0.0,0.0,0.0,0.0,0.0,0.0,0.0,0.0,0.0,0.0,0.0,0.0,0.0,0.0,0.0,0.0,0.0,0.0,0.0,0.0,0.0,0.0,0.0,0.0,0.0,0.0,0.0,0.0,0.0,0.0,0.0,0.0,0.0,0.0,0.0,0.0,0.0,0.0,0.0,0.0,0.0,0.0,0.0,0.0,0.0,0.0,0.0,0.0,0.0,0.0,0.0,0.0,0.0,0.0,0.0,0.0,0.0,0.0,0.0,0.0,0.0,0.0,0.0,0.0,0.0,0.0,0.0,0.0,0.0,0.0,0.0,0.0,0.0,0.0,0.0,0.0,0.0,0.0,0.0,0.0,0.0,0.0,0.0,0.0,0.0,0.0,0.0,0.0,0.0,0.0,0.0,0.0,0.0,0.0,0.0,0.0,0.0,0.0,0.0,0.0,0.0,0.0,0.0,0.0,0.0,0.0,0.0,0.0,0.0,0.0,0.0,0.0,0.0,0.0,0.0,0.0,0.0,0.0,0.0,0.0,0.0,0.0,0.0,0.0,0.0,0.0,0.0,0.0,0.0,0.0,0.0,0.0,0.0,0.0,0.0,0.0,0.0,0.0,0.0,0.0,0.0,0.0,0.0,0.0,0.0,0.0,0.0,0.0,0.0,0.0,0.0,0.0,0.0,0.0,0.0,0.0,0.0,0.0,0.0,0.0,0.0,0.0,0.0,0.0,0.0,0.0,0.0,0.0,0.0,0.0,0.0,0.0,0.0,0.0,0.0,0.0,0.0,0.0,0.0,0.0,0.0,0.0,0.0,0.0,0.0,0.0,0.0,0.0,0.0,0.0,0.0,0.0,0.0,0.0,0.0,0.0,0.0,0.0,0.0,0.0,0.0,0.0,0.0,0.0,0.0,0.0,0.0,0.0,0.0,0.0,0.0,0.0,0.0,0.0,0.0,0.0,0.0,0.0,0.0,0.0,0.0,0.0,0.0,0.0,0.0,0.0,0.0,0.0,0.0,0.0,0.0,0.0,0.0,0.0,0.0,0.0,0.0,0.0,0.0,0.0,0.0,0.0,0.0,0.0,0.0,0.0,0.0,0.0,0.0,0.0,0.0,0.0,0.0,0.0,0.0,0.0,0.0,0.0,0.0,0.0,0.0,0.0,0.0,0.0,0.0,0.0,0.0,0.0,0.0,0.0,0.0,0.0,0.0,0.0,0.0,0.0,0.0,0.0,0.0,0.0,0.0,0.0,0.0,0.0,0.0,0.0,0.0,0.0,0.0,0.0,0.0,0.0,0.0,0.0,0.0,0.0,0.0,0.0,0.0,0.0,0.0,0.0,0.0,0.0,0.0,0.0,0.0,0.0,0.0,0.0,0.0,0.0,0.0,0.0,0.0,0.0,0.0,0.0,0.0,0.0,0.0,0.0,0.0,0.0,0.0,0.0,0.0,0.0,0.0,0.0,0.0,0.0,0.0,0.0,0.0,0.0,0.0,0.0,0.0,0.0,0.0,0.0,0.0,0.0,0.0,0.0,0.0,0.0,0.0,0.0,0.0,0.0,0.0,0.0,0.0,0.0,0.0,0.0,0.0,0.0,0.0,0.0,0.0,0.0,0.0,0.0,0.0,0.0,0.0,0.0,0.0,0.0,0.0,0.0,0.0,0.0,0.0,0.0,0.0,0.0,0.0,0.0,0.0,0.0,0.0,0.0,0.0,0.0,0.0,0.0,0.0,0.0,0.0,0.0,0.0,0.0,0.0,0.0,0.0,0.0,0.0,0.0,0.0,0.0,0.0,0.0,0.0,0.0,0.0,0.0,0.0,0.0,0.0,0.0,0.0,0.0,0.0,0.0,0.0,0.0,0.0,0.0,0.0,0.0,0.0,0.0,0.0,0.0,0.0,0.0,0.0,0.0,0.0,0.0,0.0,0.0,0.0,0.0,0.0,0.0,0.0,0.0,0.0,0.0,0.0,0.0,0.0,0.0,0.0,0.0,0.0,0.0,0.0,0.0,0.0,0.0,0.0,0.0,0.0,0.0,0.0,0.0,0.0,0.0,0.0,0.0,0.0,0.0,0.0,0.0,0.0,0.0,0.0,0.0,0.0,0.0,0.0,0.0,0.0,0.0,0.0,0.0,0.0,0.0,0.0,0.0,0.0,0.0,0.0,0.0,0.0,0.0,0.0,0.0,0.0,0.0,0.0,0.0,0.0,0.0,0.0,0.0,0.0,0.0,0.0,0.0,0.0,0.0,0.0,0.0,0.0,0.0,0.0,0.0,0.0,0.0,0.0,0.0,0.0,0.0,0.0,0.0,0.0,0.0,0.0,0.0,0.0,0.0,0.0,0.0,0.0,0.0,0.0,0.0,0.0,0.0,0.0,0.0,0.0,0.0,0.0,0.0,0.0,0.0,0.0,0.0,0.0,0.0,0.0,0.0,0.0,0.0,0.0,0.0,0.0,0.0,0.0,0.0,0.0,0.0,0.0,0.0,0.0,0.0,0.0,0.0,0.0,0.0,0.0,0.0,0.0,0.0,0.0,0.0,0.0,0.0,0.0,0.0,0.0,0.0,0.0,0.0,0.0,0.0,0.0,0.0,0.0,0.0,0.0,0.0,0.0,0.0,0.0,0.0,0.0,0.0,0.0,0.0,0.0,0.0,0.0,0.0,0.0,0.0,0.0,0.0,0.0,0.0,0.0,0.0,0.0,0.0,0.0,0.0,0.0,0.0,0.0,0.0,0.0,0.0,0.0,0.0,0.0,0.0,0.0,0.0,0.0,0.0,0.0,0.0,0.0,0.0,0.0,0.0,0.0,0.0,0.0,0.0,0.0,0.0,0.0,0.0,0.0,0.0,0.0,0.0,0.0,0.0,0.0,0.0,0.0,0.0,0.0,0.0,0.0,0.0,0.0,0.0,0.0,0.0,0.0,0.0,0.0,0.0,0.0,0.0,0.0,0.0,0.0,0.0,0.0,0.0,0.0,0.0,0.0,0.0,0.0,0.0,0.0,0.0,0.0,0.0,0.0,0.0,0.0,0.0,0.0,0.0,0.0,0.0,0.0,0.0,0.0,0.0,0.0,0.0,0.0,0.0,0.0,0.0,0.0,0.0,0.0,0.0,0.0,0.0,0.0,0.0,0.0,0.0,0.0,0.0,0.0,0.0,0.0,0.0,0.0,0.0,0.0,0.0,0.0,0.0,0.0,0.0,0.0,0.0,0.0,0.0,0.0,0.0,0.0,0.0,0.0,0.0,0.0,0.0,0.0,0.0,0.0,0.0,0.0,0.0,0.0,0.0,0.0,0.0,0.0,0.0,0.0,0.0,0.0,0.0,0.0,0.0,0.0,0.0,0.0,0.0,0.0,0.0,0.0,0.0,0.0,0.0,0.0,0.0,0.0,0.0,0.0,0.0,0.0,0.0,0.0,0.0,0.0,0.0,0.0,0.0,0.0,0.0,0.0,0.0,0.0,0.0,0.0,0.0,0.0,0.0,0.0,0.0,0.0,0.0,0.0,0.0,0.0,0.0,0.0,0.0,0.0,0.0,0.0,0.0,0.0,0.0,0.0,0.0,0.0,0.0,0.0,0.0,0.0,0.0,0.0,0.0,0.0,0.0,0.0,0.0,0.0,0.0,0.0,0.0,0.0,0.0,0.0,0.0,0.0,0.0,0.0,0.0,0.0,0.0,0.0,0.0,0.0,-0.7999,0.0,0.0,0.0,0.0,0.0,0.0,0.0,0.0,0.0,0.0,0.0,0.0,0.0,0.0,0.0,0.0,0.0,0.0,0.0,0.0,0.0,0.0,0.0,0.0,0.0,0.0,0.0,0.0,0.0,0.0,0.0,0.0,0.0,0.0,0.0,0.0,0.0,0.0,0.0,0.0,0.0,0.0,0.0,0.0,0.0,0.0,0.0,0.0,0.0,0.0,0.0,0.0,0.0,0.0,0.0,0.0,0.0,0.0,0.0,0.0,0.0,0.0,0.0,0.0,0.0,0.0,0.0,0.0,0.0,0.0,0.0,0.0,0.0,0.0,0.0,0.0,0.0,0.0,0.0,0.0,0.0,0.0,0.0,0.0,0.0,0.0,0.0,0.0,0.0,0.0,0.0,0.0,0.0,0.0,0.0,0.0,0.0,0.0,0.0,0.0,0.0,0.0,0.0,0.0,0.0,0.0,0.0,0.0,0.0,0.0,0.0,0.0,0.0,0.0,0.0,0.0,-0.813,0.0,0.0,0.0,0.0,0.0,0.0,0.0,0.0,0.0,0.0,0.0,0.0,0.0,0.0,0.0,0.0,0.0,0.0,0.0,0.0,0.0,0.0,0.0,0.0,0.0,0.0,0.0,0.0,0.0,0.0,0.0,0.0,0.0,0.0,0.0,0.0,0.0,0.0,0.0,0.0,0.0,0.0,0.0,0.0,0.0,0.0,0.0,0.0,0.0,0.0,0.0,0.0,0.0,0.0,0.0,0.0,0.0,0.0,0.0,0.0,0.0,0.0,0.0,0.0,0.0,0.0,0.0,0.0,0.0,0.0,0.0,0.0,0.0,0.0,0.0,0.0,0.0,0.0,0.0,0.0,0.0,0.0,0.0,0.0,0.0,0.0,0.0,0.0,0.0,0.0,0.0,0.0,0.0,0.0,0.0,0.0,0.0,0.0,0.0,0.0,0.0,0.0,0.0,0.0,0.0,0.0,0.0,0.0,-0.8811,-0.8849,-0.8849,-0.8849,-0.8667,-0.8418,-0.9136,-0.9321,-0.9147,-0.8912,0.0,0.0,0.0,0.0,0.0,0.0,0.0,0.0,0.0,0.0,0.0,0.0,0.0,0.0,0.0,0.0,0.0,0.0,0.0,0.0,0.0,0.0,0.0,0.0,0.0,0.0,0.0,0.0,0.0,0.0,0.0,0.0,0.0,0.0,0.0,0.0,0.0,0.0,-0.7315,-0.7154,-0.6981,-0.6892,-0.7834,0.0,0.0,0.0,0.0,0.0,0.0,0.0,0.0,0.0,0.0,0.0,0.0,0.0,0.0,0.0,0.0,0.0,0.0,0.0,0.0,0.0,0.0,0.0,0.0,0.0,0.0,0.0,0.0,0.0,0.0,0.0,0.0,0.0,0.0,0.0,0.0,0.0,0.0,0.0,0.0,0.0,0.0,0.0,-0.9279,-0.9844,0.0,0.0,0.0,0.0,0.0,0.0,0.0,0.0,0.0,0.0,0.0,0.0,0.0,-0.8964,-0.9003,-0.9475,-0.9733,-0.9702,-1.012,-1.0313,-1.0313,-1.0313,-1.0281,-1.0223,-0.9516,0.0,-0.8941,-0.8976,0.0,0.0,0.0,0.0,0.0,0.0,0.0,0.0,0.0,0.0,0.0,0.0,0.0,0.0,0.0,0.0,0.0,0.0,0.0,0.0,0.0,0.0,0.0,0.0,0.0,0.0,0.0,0.0,0.0,0.0,0.0,0.0,0.0,0.0,0.0,0.0,-0.7349,-0.7588,-0.7704,-0.7632,-0.7561,-0.7605,-0.7992,-0.7999,-0.7679,-0.7358,0.0,0.0,0.0,0.0,0.0,0.0,0.0,0.0,0.0,0.0,0.0,0.0,0.0,0.0,0.0,0.0,0.0,0.0,0.0,0.0,0.0,0.0,0.0,0.0,0.0,0.0,0.0,0.0,0.0,0.0,0.0,0.0,0.0,0.0,0.0,0.0,0.0,0.0,0.0,-0.9396,-0.9668,-0.988,-0.9776,-0.9505,0.0,0.0,0.0,0.0,0.0,0.0,0.0,0.0,0.0,-0.9153,-0.9419,-0.9545,-0.9477,-1.0013,-1.0286,-1.0286,-1.0495,-1.0597,-1.0597,-1.0597,-1.0597,-1.0571,-1.0307,-1.0153,-1.003,-0.9381,-0.9306,-0.9528,0.0,0.0,0.0,0.0,-0.8639,-0.9273,0.0,0.0,0.0,0.0,0.0,0.0,0.0,0.0,0.0,0.0,0.0,0.0,0.0,0.0,0.0,-0.5908,0.0,0.0,0.0,0.0,0.0,0.0,0.0,0.0,0.0,0.0,0.0,-0.7483,-0.7693,-0.7882,-0.803,-0.7987,-0.7949,-0.7949,-0.7949,-0.784,-0.7617,-0.6961,-0.6823,0.0,0.0,0.0,0.0,0.0,0.0,0.0,0.0,0.0,0.0,0.0,0.0,0.0,0.0,0.0,0.0,0.0,0.0,0.0,0.0,0.0,0.0,0.0,0.0,0.0,0.0,0.0,0.0,0.0,0.0,0.0,0.0,0.0,0.0,0.0,0.0,0.0,0.0,-0.9886,-1.0034,-1.0103,-1.0073,-0.9906,0.0,0.0,0.0,0.0,0.0,0.0,-0.9562,-0.943,-0.9471,-0.9727,-1.003,-1.0176,-1.0095,-1.0552,-1.078,-1.078,-1.078,-1.078,-1.078,-1.078,-1.078,-1.0774,-1.0961,-1.1009,-1.1018,-1.0112,-0.9815,-0.9966,-0.998,-0.9765,-0.9426,-0.9141,-0.9489,-1.0074,0.0,0.0,0.0,0.0,0.0,0.0,0.0,0.0,0.0,0.0,0.0,0.0,0.0,0.0,-0.5921,-0.6261,-0.653,-0.6388,0.0,0.0,0.0,0.0,0.0,0.0,0.0,0.0,0.0,-0.7509,-0.7717,-0.7795,-0.7804,-0.7599,-0.7522,-0.7522,-0.7522,-0.7505,-0.7509,-0.7473,-0.7431,-0.7326,0.0,0.0,0.0,0.0,0.0,0.0,0.0,0.0,0.0,0.0,0.0,0.0,0.0,0.0,0.0,0.0,0.0,0.0,0.0,0.0,0.0,0.0,0.0,0.0,0.0,0.0,0.0,0.0,0.0,0.0,0.0,0.0,0.0,0.0,0.0,0.0,0.0,0.0,0.0,-1.093,-1.1304,0.0,0.0,0.0,0.0,-0.959,-0.9579,-0.9869,-1.0499,-1.034,-1.0539,-1.1183,-1.1031,-1.1036,-1.1219,-1.1252,-1.1268,-1.1268,-1.1268,-1.1268,-1.1268,-1.1268,-1.1268,-1.1257,-1.1069,-1.1091,-1.1272,-1.1231,-1.1312,-1.1436,-1.0933,-1.0834,-1.0875,-0.9844,-0.9749,-1.0123,0.0,0.0,0.0,0.0,0.0,0.0,0.0,0.0,0.0,0.0,0.0,0.0,0.0,-0.5599,-0.6151,-0.6298,-0.6725,-0.6724,-0.5969,0.0,0.0,0.0,0.0,0.0,0.0,0.0,-0.7165,-0.7492,-0.7555,-0.7603,-0.7603,-0.7522,-0.7484,-0.7484,-0.7484,-0.7487,-0.7518,-0.7638,-0.7676,-0.7656,-0.7587,-0.7409,0.0,0.0,0.0,0.0,0.0,0.0,0.0,0.0,0.0,0.0,0.0,0.0,0.0,0.0,0.0,0.0,0.0,0.0,0.0,0.0,0.0,0.0,0.0,0.0,0.0,0.0,0.0,0.0,0.0,0.0,0.0,0.0,0.0,0.0,0.0,0.0,0.0,-1.1059,-1.105,0.0,-1.0968,-1.0841,-1.0714,-1.0626,-1.0847,-1.1055,-1.1299,-1.1231,-1.138,-1.1788,-1.1755,-1.1754,-1.1795,-1.1795,-1.1795,-1.1795,-1.1795,-1.1795,-1.1795,-1.1795,-1.1795,-1.184,-1.1882,-1.1932,-1.1999,-1.2025,-1.1765,-1.1381,-1.1202,-1.1167,-1.1159,-1.0799,-1.1093,-1.1641,0.0,0.0,0.0,0.0,0.0,0.0,0.0,0.0,0.0,0.0,0.0,-0.4487,-0.4852,-0.5849,-0.6475,-0.6403,-0.7034,-0.7019,-0.6172,0.0,0.0,0.0,0.0,0.0,0.0,-0.7016,-0.7292,-0.7497,-0.7503,-0.7484,-0.7484,-0.7584,-0.7616,-0.7577,-0.7317,-0.7183,-0.7183,-0.6989,-0.7298,-0.7888,-0.7865,-0.7548,-0.7121,0.0,0.0,0.0,0.0,0.0,0.0,0.0,0.0,0.0,0.0,0.0,0.0,0.0,0.0,0.0,0.0,0.0,0.0,0.0,0.0,0.0,0.0,0.0,0.0,0.0,0.0,0.0,0.0,0.0,0.0,0.0,0.0,0.0,0.0,0.0,-1.084,-1.1366,-1.1308,-1.1299,-1.1439,-1.1485,-1.1519,-1.1602,-1.1969,-1.2186,-1.2165,-1.2086,-1.2113,-1.218,-1.214,-1.2094,-1.2094,-1.2094,-1.2094,-1.2094,-1.2094,-1.2094,-1.2094,-1.2094,-1.2053,-1.1957,-1.2206,-1.2275,-1.226,-1.235,-1.2194,-1.1895,-1.1645,-1.1576,-1.1647,-1.156,-1.1885,-1.2305,0.0,0.0,0.0,0.0,0.0,0.0,0.0,0.0,0.0,0.0,-0.3567,-0.4009,-0.4852,-0.6083,-0.6826,-0.6598,-0.7326,-0.7323,-0.6203,-0.6218,0.0,0.0,0.0,0.0,-0.7287,-0.7254,-0.7289,-0.7484,-0.7488,-0.7492,-0.7496,-0.7722,-0.7808,-0.7776,-0.6948,-0.6599,-0.6557,-0.5601,-0.631,-0.8012,-0.7638,-0.7571,-0.7661,0.0,0.0,0.0,0.0,0.0,0.0,0.0,0.0,0.0,0.0,0.0,0.0,0.0,0.0,0.0,0.0,0.0,0.0,0.0,0.0,0.0,0.0,0.0,0.0,0.0,0.0,0.0,0.0,0.0,0.0,0.0,0.0,0.0,-0.952,-1.0906,-1.188,-1.1916,-1.22,-1.2301,-1.206,-1.2283,-1.242,-1.2426,-1.2874,-1.3156,-1.3076,-1.2871,-1.2637,-1.2426,-1.2197,-1.2105,-1.2105,-1.2127,-1.2137,-1.2137,-1.2137,-1.2137,-1.2137,-1.2137,-1.1934,-1.1657,-1.1977,-1.2092,-1.2048,-1.2282,-1.2654,-1.3018,-1.2298,-1.2184,-1.24,-1.2141,-1.2046,-1.204,0.0,0.0,0.0,0.0,0.0,0.0,0.0,0.0,0.0,0.0,-0.3468,-0.4131,-0.5418,-0.6238,-0.6676,-0.6602,-0.7061,-0.7106,-0.6518,0.0,0.0,0.0,0.0,0.0,-0.7082,-0.7315,-0.7462,-0.7484,-0.7657,-0.7722,-0.7726,-0.7862,-0.7943,-0.7906,-0.6994,-0.6599,-0.6557,-0.5601,-0.5973,-0.7211,-0.7118,-0.7543,-0.8171,0.0,0.0,0.0,0.0,0.0,0.0,0.0,0.0,0.0,0.0,0.0,0.0,0.0,0.0,0.0,0.0,0.0,0.0,0.0,0.0,0.0,0.0,0.0,0.0,0.0,0.0,0.0,0.0,0.0,0.0,0.0,0.0,-1.1071,-1.1035,-1.1254,-1.1686,-1.2448,-1.2618,-1.2777,-1.3055,-1.3138,-1.3044,-1.2722,-1.2836,-1.2899,-1.2883,-1.2442,-1.236,-1.2623,-1.2359,-1.2359,-1.2546,-1.2672,-1.2877,-1.3137,-1.3137,-1.2982,-1.2728,-1.2728,-1.261,-1.2338,-1.2454,-1.2516,-1.2475,-1.2451,-1.2593,-1.2892,-1.2842,-1.2983,-1.3171,-1.2913,-1.2599,-1.2169,0.0,0.0,0.0,0.0,0.0,0.0,0.0,0.0,0.0,0.0,-0.3477,-0.4187,-0.571,-0.6473,-0.6834,-0.6714,-0.718,-0.724,-0.6765,0.0,0.0,0.0,0.0,-0.6771,-0.7318,-0.7454,-0.7559,-0.7637,-0.7747,-0.7837,-0.787,-0.7627,-0.7537,-0.7499,-0.6205,-0.5635,-0.5593,-0.4651,-0.4865,-0.5809,-0.5809,-0.6781,-0.8212,-0.8059,-0.793,-0.7801,-0.7624,-0.7726,-0.7884,-0.7704,0.0,0.0,0.0,0.0,0.0,0.0,0.0,0.0,0.0,0.0,0.0,0.0,0.0,0.0,0.0,0.0,0.0,0.0,0.0,0.0,0.0,0.0,0.0,0.0,-1.0977,-1.187,-1.1776,-1.182,-1.2134,-1.2845,-1.2837,-1.2982,-1.3469,-1.3553,-1.3426,-1.3101,-1.3298,-1.3244,-1.2895,-1.2571,-1.2383,-1.2273,-1.2361,-1.2372,-1.2273,-1.2665,-1.2956,-1.3111,-1.3111,-1.3008,-1.2848,-1.2848,-1.2695,-1.2465,-1.284,-1.2807,-1.2519,-1.2741,-1.2894,0.0,0.0,0.0,0.0,0.0,-1.3049,-1.2616,0.0,0.0,0.0,0.0,0.0,0.0,0.0,0.0,0.0,0.0,0.0,-0.4204,-0.5811,-0.6695,-0.7065,-0.6903,-0.7375,-0.7403,0.0,0.0,0.0,-0.6995,-0.6988,-0.7232,-0.7753,-0.7603,-0.7612,-0.78,-0.782,-0.7878,-0.8007,-0.725,-0.6939,-0.6857,-0.51,-0.43,-0.4255,-0.332,-0.3454,-0.43,-0.43,-0.5757,-0.7952,-0.7914,-0.7787,-0.7642,-0.7569,-0.7711,-0.7852,-0.7626,0.0,0.0,0.0,0.0,0.0,0.0,0.0,0.0,0.0,0.0,0.0,0.0,0.0,0.0,0.0,0.0,0.0,0.0,0.0,0.0,0.0,0.0,0.0,0.0,-1.126,-1.1972,-1.1989,-1.2434,-1.2845,-1.3066,-1.298,-1.3101,-1.3637,-1.3686,-1.3618,-1.3435,-1.3869,-1.3764,-1.3081,0.0,0.0,0.0,0.0,-1.235,-1.1862,-1.2415,-1.2742,-1.2742,-1.2742,-1.2742,-1.269,-1.2665,-1.2537,-1.2326,-1.3046,-1.2967,-1.2309,-1.3055,-1.3295,-1.3027,-1.2675,-1.2802,-1.3185,-1.3323,-1.3278,-1.3154,0.0,0.0,0.0,0.0,0.0,0.0,0.0,0.0,0.0,-0.3226,-0.3528,-0.4204,-0.5811,-0.6429,-0.6753,-0.6899,-0.6771,-0.6588,0.0,0.0,-0.6449,-0.6963,-0.6988,-0.7192,-0.7553,-0.7522,-0.7612,-0.78,-0.7898,-0.8057,-0.8239,-0.7418,-0.7051,-0.6967,-0.5134,-0.43,-0.4255,-0.332,-0.3454,-0.43,-0.43,-0.5703,-0.7819,-0.7436,-0.8087,-0.913,-0.8755,-0.8755,-0.8917,-0.8518,-0.8413,-0.8413,-0.8373,0.0,0.0,0.0,0.0,0.0,0.0,0.0,0.0,0.0,0.0,0.0,0.0,0.0,0.0,0.0,0.0,0.0,0.0,0.0,0.0,-1.1109,-1.1718,-1.2179,-1.201,-1.2226,-1.2565,-1.3098,-1.3277,-1.3539,-1.403,-1.4099,-1.3802,-1.3139,-1.335,-1.3404,-1.3227,-1.2991,-1.2869,-1.2931,-1.274,-1.2745,-1.2884,-1.3173,-1.3445,-1.3664,0.0,0.0,-1.3323,-1.3141,-1.2964,-1.2663,-1.267,-1.2608,-1.2472,-1.2688,-1.2874,-1.3041,-1.3219,-1.3212,-1.3043,-1.2574,-1.2692,-1.3005,0.0,0.0,0.0,0.0,0.0,0.0,0.0,0.0,0.0,0.0,-0.2911,-0.3441,-0.4606,-0.5066,-0.5421,-0.5864,-0.6313,0.0,0.0,-0.6662,-0.6849,-0.7237,-0.7253,-0.7339,-0.748,-0.7686,-0.7865,-0.8056,-0.8106,-0.7989,-0.7682,-0.6794,-0.6163,-0.563,-0.421,-0.3587,-0.3587,-0.3097,-0.3187,-0.3587,-0.3587,-0.465,-0.6195,-0.6337,-0.6915,-0.7661,-0.7933,-0.8157,-0.8436,-0.8563,-0.8373,-0.8025,-0.7897,-0.7567,-0.7115,0.0,0.0,0.0,0.0,0.0,0.0,0.0,0.0,0.0,0.0,0.0,0.0,0.0,0.0,-1.0104,0.0,0.0,-1.1017,-1.095,-1.1557,-1.1977,-1.1973,-1.2313,-1.2692,-1.2909,-1.3141,-1.3478,-1.4085,-1.4024,-1.3811,-1.3462,-1.352,-1.3472,-1.3194,-1.3048,-1.2886,-1.2674,-1.2817,-1.2831,-1.2669,-1.3092,-1.335,-1.3526,-1.3526,-1.3412,-1.3293,-1.3183,-1.3078,-1.2956,-1.3023,-1.2881,-1.2649,-1.2587,-1.2606,-1.2784,-1.2951,-1.3161,-1.3219,-1.2777,-1.2894,-1.3228,0.0,0.0,0.0,0.0,0.0,0.0,0.0,0.0,0.0,0.0,-0.231,-0.2678,-0.3456,-0.3712,-0.4092,0.0,0.0,0.0,0.0,-0.7153,-0.7399,-0.7621,-0.7561,-0.7522,-0.7599,-0.7861,-0.8089,-0.8312,-0.8124,-0.7698,-0.7095,-0.5941,-0.501,-0.4255,-0.332,-0.292,-0.292,-0.292,-0.292,-0.292,-0.292,-0.3452,-0.4338,-0.4919,-0.5408,-0.5852,-0.6561,-0.6959,-0.7224,-0.7852,-0.7628,-0.7092,-0.6915,-0.6384,-0.572,-0.5197,-0.5243,0.0,0.0,0.0,0.0,0.0,0.0,0.0,0.0,0.0,-1.0353,-1.0417,-1.0541,-1.0568,-1.0366,-1.0528,-1.0719,-1.082,-1.137,-1.176,-1.1848,-1.2395,-1.2738,-1.2639,-1.2905,-1.3361,-1.399,-1.3879,-1.3759,-1.3725,-1.3794,-1.359,-1.3188,-1.3226,-1.2956,-1.2455,-1.2928,-1.2947,-1.2446,-1.2937,-1.3245,-1.3245,-1.3245,-1.3245,-1.3245,-1.3203,-1.3188,-1.3174,-1.3367,-1.3204,-1.2794,-1.2572,-1.2462,-1.2496,-1.2486,-1.2802,-1.3267,-1.3133,-1.3209,-1.3337,0.0,0.0,0.0,0.0,0.0,0.0,0.0,0.0,0.0,0.0,0.0,0.0,0.0,0.0,0.0,0.0,0.0,0.0,-0.6348,-0.7239,-0.7832,-0.8016,-0.7676,-0.7676,-0.8025,-0.7735,-0.7801,-0.8312,-0.7458,-0.7073,-0.7051,-0.5275,-0.4389,-0.4255,-0.332,-0.292,-0.292,-0.292,-0.292,-0.292,-0.292,-0.2963,-0.3097,-0.3187,-0.4387,-0.6027,-0.5897,-0.5897,-0.5897,-0.5985,-0.5985,-0.5897,-0.5852,-0.6068,-0.6183,-0.539,0.0,-0.6084,-0.5239,-0.5509,-0.6218,-0.6828,-0.8136,-0.9398,0.0,0.0,-1.1683,-1.1031,-1.1451,-1.1868,-1.1765,-1.1781,-1.1806,-1.1766,-1.183,-1.1853,-1.1798,-1.2192,-1.2438,-1.2445,-1.3063,-1.3628,-1.3876,-1.3906,-1.37,-1.3231,-1.336,-1.3411,-1.3353,-1.3523,-1.3584,-1.3518,-1.3584,-1.3584,-1.3518,-1.3584,-1.3618,-1.3618,-1.3618,-1.3618,-1.3613,-1.3433,-1.3353,-1.3334,-1.305,-1.2879,-1.2804,-1.2502,-1.2403,-1.2384,-1.2234,-1.2351,-1.2623,-1.291,-1.2896,-1.2812,0.0,0.0,0.0,0.0,0.0,0.0,0.0,0.0,0.0,0.0,0.0,0.0,0.0,0.0,0.0,0.0,0.0,0.0,-0.5939,-0.6943,-0.7667,-0.8093,-0.7949,-0.7834,-0.7753,-0.7819,-0.7923,-0.8143,-0.775,-0.7061,-0.6115,-0.5317,-0.4295,-0.3048,-0.2647,-0.2513,-0.2513,-0.2513,-0.2513,-0.2513,-0.2604,-0.2649,-0.2694,-0.2829,-0.3452,-0.4283,-0.4654,-0.4782,0.0,0.0,-0.521,-0.4803,-0.4882,-0.4575,-0.4163,-0.3838,-0.3946,0.0,-0.544,-0.6268,0.0,0.0,-0.9952,-1.0892,-1.0921,-1.1529,-1.2051,-1.1849,-1.2161,-1.24,-1.2064,-1.1881,-1.1804,0.0,-1.1561,-1.163,-1.2101,-1.2436,-1.272,-1.2965,-1.3077,-1.3133,-1.3039,-1.3378,-1.3442,-1.2965,-1.331,-1.3566,-1.3566,-1.3646,-1.3688,-1.3688,-1.3688,-1.3688,-1.3688,-1.3688,-1.3688,-1.3688,-1.3688,-1.3688,-1.3688,-1.3603,-1.3499,-1.3381,-1.3206,-1.2994,-1.2818,-1.2668,-1.2554,-1.2377,-1.2292,-1.2313,-1.2432,-1.2514,-1.2582,-1.2654,0.0,0.0,0.0,0.0,0.0,0.0,0.0,0.0,0.0,0.0,0.0,0.0,0.0,0.0,0.0,0.0,0.0,0.0,0.0,-0.6438,-0.7326,-0.8055,-0.7987,-0.7906,-0.7825,-0.8,-0.8083,-0.802,-0.7792,-0.6847,-0.5225,-0.4989,-0.3937,-0.2199,-0.2199,-0.2199,-0.2199,-0.2199,-0.2199,-0.2199,-0.2379,-0.2513,-0.2602,-0.2738,-0.2853,-0.2987,-0.3527,-0.3693,0.0,0.0,-0.4253,-0.3745,-0.3798,-0.3315,-0.2688,-0.2672,-0.2674,-0.3146,-0.5337,0.0,0.0,-0.9966,-1.1245,-1.1984,-1.1929,-1.2154,-1.2435,-1.2565,-1.2797,-1.286,-1.2415,-1.2134,-1.1909,-1.1836,-1.1655,-1.177,-1.2436,-1.2767,-1.3008,-1.3197,-1.2951,-1.2647,-1.2192,-1.288,-1.3221,-1.3036,-1.3433,-1.3688,-1.3688,-1.3688,-1.3688,-1.3688,-1.3688,-1.3688,-1.3688,-1.3688,-1.3688,-1.3688,-1.3688,-1.3688,-1.3688,-1.3688,-1.3608,-1.3471,-1.3414,-1.3216,-1.2984,-1.287,-1.2673,-1.2521,-1.2405,-1.2387,-1.2403,-1.2312,-1.232,-1.2479,0.0,0.0,0.0,0.0,0.0,0.0,0.0,0.0,0.0,0.0,0.0,0.0,0.0,0.0,0.0,0.0,0.0,0.0,0.0,-0.5834,-0.6791,-0.8055,-0.7714,-0.7863,-0.8661,-0.8298,-0.8091,-0.8078,-0.7319,-0.6224,-0.4813,-0.403,-0.3135,-0.2199,-0.2199,-0.2199,-0.2199,-0.2199,-0.2199,-0.2199,-0.2199,-0.2466,-0.2868,-0.2603,-0.2712,-0.2994,-0.282,0.0,0.0,0.0,-0.2704,-0.2745,-0.2682,-0.2673,0.0,-0.2621,-0.2841,0.0,0.0,0.0,-0.7549,-0.944,-1.0818,-1.1833,-1.2296,-1.2748,-1.3077,-1.3082,-1.3281,-1.3408,-1.3146,-1.2777,-1.259,-1.2567,-1.2441,-1.2484,-1.2724,-1.3112,-1.3225,-1.2833,-1.2832,-1.2469,0.0,-1.2508,-1.3297,-1.3632,-1.3679,-1.3688,-1.3688,-1.3688,-1.3688,-1.3688,-1.3688,-1.3688,-1.3688,-1.3688,-1.3688,-1.3688,-1.3688,-1.3688,-1.3688,-1.3688,-1.3688,-1.367,-1.3476,-1.3381,-1.3339,-1.2932,-1.2818,-1.2739,-1.2521,-1.2387,-1.2382,-1.2427,-1.2299,-1.2129,0.0,0.0,0.0,0.0,0.0,0.0,0.0,0.0,0.0,0.0,0.0,0.0,0.0,0.0,0.0,0.0,0.0,0.0,0.0,-0.4927,-0.6002,-0.6791,-0.7529,-0.7906,-0.7902,-0.8025,-0.8082,-0.811,-0.7119,-0.6039,-0.493,-0.3968,-0.3047,-0.2199,-0.2199,-0.2378,-0.2644,-0.2644,-0.2644,-0.2689,-0.2825,-0.2959,-0.3083,-0.3041,-0.3107,-0.3162,0.0,0.0,0.0,-0.2543,-0.2566,-0.2586,-0.2604,-0.2512,0.0,-0.2346,-0.319,-0.4392,0.0,0.0,-0.9207,-1.0567,-1.1755,-1.2625,-1.259,-1.282,-1.3092,-1.33,-1.3145,-1.2894,-1.2681,-1.2501,-1.2329,-1.2154,-1.2093,-1.2308,-1.2913,-1.2729,-1.2762,-1.331,-1.289,0.0,0.0,0.0,0.0,-1.2687,-1.3332,-1.3688,-1.3688,-1.3688,-1.3688,-1.3688,-1.3688,-1.3622,-1.349,-1.349,-1.3419,-1.3277,-1.3277,-1.3277,-1.3282,-1.3424,-1.349,-1.3495,-1.3561,-1.3514,-1.3367,-1.3084,-1.2942,-1.2743,-1.2526,-1.2387,-1.2387,-1.2387,-1.2344,-1.2283,0.0,0.0,0.0,0.0,0.0,0.0,0.0,0.0,0.0,0.0,0.0,0.0,0.0,0.0,0.0,0.0,0.0,0.0,0.0,0.0,-0.4695,-0.5475,-0.6264,-0.6663,-0.6552,-0.6798,-0.6881,-0.6758,-0.6176,-0.533,-0.4141,-0.3612,-0.2841,-0.1909,-0.1922,-0.2063,-0.2376,-0.2376,-0.2376,-0.2372,-0.2469,-0.2674,-0.2879,-0.292,-0.3044,0.0,0.0,0.0,0.0,-0.253,-0.2514,-0.2493,-0.2539,-0.2437,-0.2367,-0.2781,-0.3904,-0.5345,-0.6928,-0.8776,-1.0569,-1.1586,-1.2541,-1.3188,-1.3037,-1.3166,-1.3335,-1.3547,-1.3396,-1.315,-1.2828,-1.2597,-1.242,-1.2299,-1.2251,-1.247,-1.3168,-1.3021,-1.3003,-1.3405,-1.2928,-1.271,0.0,0.0,0.0,-1.2559,-1.314,-1.3525,-1.3584,-1.3596,-1.3651,-1.3802,-1.3802,-1.3707,-1.3499,-1.3424,-1.3282,-1.3122,-1.3122,-1.3122,-1.3069,-1.3211,-1.3192,-1.3065,-1.3343,-1.3353,-1.3164,-1.3093,-1.2994,-1.2852,-1.2639,-1.2507,-1.2387,-1.2387,-1.2387,-1.2387,0.0,0.0,0.0,0.0,0.0,0.0,0.0,0.0,0.0,0.0,0.0,0.0,0.0,0.0,0.0,0.0,0.0,0.0,0.0,0.0,0.0,-0.4152,-0.4202,-0.4386,-0.476,-0.4844,-0.4726,-0.4326,-0.4647,-0.4048,-0.2619,-0.2909,-0.2455,-0.1426,-0.1412,-0.1426,-0.1471,-0.1471,-0.1471,-0.1466,-0.1408,-0.1761,-0.2335,-0.2268,0.0,0.0,0.0,0.0,0.0,0.0,0.0,0.0,0.0,0.0,-0.2566,-0.3747,-0.4875,-0.6124,-0.8177,-0.9925,-1.1413,-1.2386,-1.3044,-1.3497,-1.3497,-1.3674,-1.3778,-1.3756,-1.3896,-1.3885,-1.3459,-1.2917,-1.2589,-1.2893,-1.2883,-1.3012,-1.3399,-1.3849,-1.3844,0.0,0.0,0.0,0.0,0.0,0.0,-1.3112,0.0,-1.3231,-1.3413,-1.3441,-1.3618,-1.4014,-1.4014,-1.3906,-1.3693,-1.3471,-1.3254,-1.3051,-1.3098,-1.3032,-1.3032,-1.3103,-1.2833,-1.2424,-1.289,-1.3022,-1.2814,-1.3051,-1.3122,-1.3103,-1.2904,-1.2635,-1.2387,-1.2387,-1.2387,-1.2387,0.0,0.0,0.0,0.0,0.0,0.0,0.0,0.0,0.0,0.0,0.0,0.0,0.0,0.0,0.0,0.0,0.0,0.0,0.0,0.0,0.0,0.0,0.0,0.0,0.0,0.0,0.0,0.0,0.0,-0.342,-0.2873,-0.222,-0.1853,-0.177,-0.1811,-0.2033,-0.2359,-0.2359,-0.2359,-0.2356,0.0,-0.2438,-0.2623,0.0,0.0,0.0,0.0,0.0,0.0,0.0,0.0,0.0,0.0,-0.2501,-0.2563,-0.2775,-0.4163,-0.5746,-0.6302,-0.8782,-1.1253,-1.1461,-1.2638,-1.3733,-1.3733,-1.3705,-1.3619,-1.3325,-1.2243,-1.1344,-1.1613,-1.0833,-1.049,-1.1494,-1.1932,0.0,-1.2652,-1.2802,0.0,-1.3383,0.0,-1.3241,-1.3742,-1.3571,0.0,0.0,-1.3589,-1.3835,-1.4047,-1.4048,-1.4123,-1.4232,-1.4327,-1.4144,-1.3693,-1.3183,-1.2956,-1.2843,-1.2677,-1.2602,-1.2606,-1.2767,-1.2786,-1.2701,-1.2956,-1.3188,-1.3221,-1.3112,-1.3122,-1.3103,-1.2904,-1.2635,-1.2387,-1.2387,-1.2387,-1.2387,0.0,0.0,0.0,0.0,0.0,0.0,0.0,0.0,0.0,0.0,0.0,0.0,0.0,0.0,0.0,0.0,0.0,0.0,0.0,0.0,0.0,0.0,0.0,0.0,0.0,0.0,0.0,0.0,0.0,0.0,0.0,-0.1672,-0.1481,-0.1541,-0.1635,-0.1776,-0.2048,-0.2071,0.0,0.0,0.0,0.0,0.0,0.0,0.0,0.0,0.0,0.0,0.0,0.0,0.0,-0.25,-0.2557,-0.2605,-0.2707,-0.3265,0.0,-0.5659,-0.6463,-0.8394,-1.0174,-1.039,-1.1205,-1.1917,-1.1947,-1.1953,-1.1793,-1.1531,-1.0683,0.0,-0.999,-0.9737,0.0,0.0,0.0,0.0,-1.2578,-1.2904,-1.3251,0.0,-1.335,0.0,-1.4133,-1.3959,-1.3829,0.0,-1.3748,-1.3886,-1.4147,-1.419,-1.4265,-1.4449,-1.4524,-1.4336,-1.3933,-1.3394,-1.3077,-1.2976,-1.2595,-1.2387,-1.2391,-1.2569,-1.2526,-1.2365,0.0,-1.2862,-1.2975,-1.3041,-1.3122,-1.3112,-1.2998,-1.271,-1.2387,-1.2387,-1.2387,-1.2387,0.0,0.0,0.0,0.0,0.0,0.0,0.0,0.0,0.0,0.0,0.0,0.0,0.0,0.0,0.0,0.0,0.0,0.0,0.0,0.0,0.0,0.0,0.0,0.0,0.0,0.0,0.0,0.0,0.0,0.0,0.0,0.0,0.0,0.0,0.0,0.0,0.0,0.0,0.0,0.0,0.0,0.0,0.0,0.0,0.0,0.0,0.0,0.0,0.0,0.0,-0.2514,-0.2503,-0.2662,-0.268,-0.2884,-0.4082,-0.478,-0.5439,-0.7063,-0.8033,-0.8736,-0.918,-0.9444,-0.9574,-0.9696,-0.9624,-0.9522,-0.932,0.0,-0.904,-0.862,-0.8977,-0.9631,-1.037,0.0,-1.2276,-1.2631,-1.3406,-1.3841,-1.3532,-1.3487,-1.3693,-1.4192,-1.4077,-1.4095,-1.4288,-1.39,-1.382,-1.4082,-1.409,-1.4288,-1.4752,-1.4733,-1.4562,-1.4346,-1.3844,-1.3524,-1.3328,-1.2841,-1.2636,-1.2631,-1.2548,-1.2334,-1.2011,-1.2323,-1.2498,-1.2554,-1.2947,-1.3165,-1.3165,-1.3136,-1.2828,-1.2424,-1.2396,-1.2387,-1.2387,0.0,0.0,0.0,0.0,0.0,0.0,0.0,0.0,0.0,0.0,0.0,0.0,0.0,0.0,0.0,0.0,0.0,0.0,0.0,0.0,0.0,0.0,0.0,0.0,0.0,0.0,0.0,0.0,0.0,0.0,0.0,0.0,0.0,0.0,0.0,0.0,0.0,0.0,0.0,0.0,0.0,0.0,0.0,0.0,0.0,0.0,0.0,0.0,0.0,0.0,-0.2611,-0.2481,-0.279,-0.2835,-0.2868,-0.3078,-0.3596,-0.4169,-0.4246,-0.5999,-0.7801,-0.7715,-0.8751,-0.9904,-1.0114,-0.9805,0.0,0.0,0.0,-0.7162,-0.75,-0.7289,0.0,-0.9251,0.0,0.0,0.0,0.0,-1.3386,0.0,0.0,0.0,0.0,0.0,0.0,0.0,0.0,-1.5135,-1.4769,-1.4752,-1.4921,-1.5395,-1.5269,-1.5221,-1.5297,-1.4537,-1.4114,-1.4132,-1.3858,-1.3702,-1.3692,-1.3274,-1.3041,-1.2973,-1.2783,0.0,-1.2975,-1.323,-1.3334,-1.3315,-1.3136,-1.2923,-1.2687,-1.2507,-1.2387,-1.2387,0.0,0.0,0.0,0.0,0.0,0.0,0.0,0.0,0.0,0.0,0.0969,0.0362,0.0,0.0,0.0,0.0,0.0,0.0,0.0,0.0,0.0,0.0,0.0,0.0,0.0,0.0,0.0,0.0,0.0,0.0,0.0,0.0,0.0,0.0,0.0,0.0,0.0,0.0,0.0,0.0,0.0,0.0,0.0,0.0,0.0,0.0,0.0,0.0,0.0,0.0,-0.2379,-0.2355,-0.2759,-0.292,-0.2907,-0.2801,-0.3136,-0.3523,-0.3667,-0.4775,-0.5933,-0.6044,-0.6749,-0.7446,-0.7508,0.0,0.0,0.0,0.0,-0.5712,-0.5929,0.0,0.0,0.0,0.0,0.0,0.0,0.0,0.0,0.0,0.0,0.0,0.0,0.0,0.0,0.0,0.0,-1.5429,-1.5248,-1.5388,-1.5599,-1.5817,-1.5673,-1.5566,-1.5648,-1.495,-1.4544,-1.4544,-1.4208,-1.3987,-1.3982,-1.3758,-1.347,-1.3199,-1.3152,0.0,-1.2625,-1.3169,-1.3192,-1.2909,-1.3022,-1.3003,-1.2794,-1.2521,-1.2387,-1.2387,0.0,0.0,0.0,0.0,0.0,0.0,0.0,0.3767,0.3247,0.2376,0.1481,0.0704,0.0065,0.0,0.0,0.0,0.0,0.0,0.0,0.0,0.0,0.0,0.0,0.0,0.0,0.0,0.0,0.0,0.0,0.0,0.0,0.0,0.0,0.0,0.0,0.0,0.0,0.0,0.0,0.0,0.0,0.0,0.0,0.0,0.0,0.0,0.0,0.0,0.0,0.0,-0.2159,-0.2289,-0.2642,-0.2796,-0.2797,-0.2801,-0.2947,-0.3166,-0.3618,-0.4055,-0.4356,-0.464,-0.4955,-0.5145,-0.4913,-0.4759,0.0,0.0,-0.4704,-0.4752,-0.4836,0.0,0.0,0.0,0.0,0.0,0.0,0.0,0.0,0.0,0.0,0.0,0.0,0.0,0.0,0.0,0.0,0.0,-1.5639,-1.5909,-1.6104,-1.6104,-1.5987,-1.5934,-1.5934,-1.5292,-1.4971,-1.4971,-1.4557,-1.4333,-1.423,-1.4122,-1.3881,-1.3491,-1.3505,0.0,0.0,-1.3107,-1.3079,-1.255,-1.2923,-1.3027,-1.2856,-1.2535,-1.2387,-1.2387,0.0,0.0,0.0,0.0,0.0,0.0,0.0,0.4377,0.351,0.2515,0.1631,0.0813,0.0064,0.0,0.0,0.0,0.0,0.0,0.0,0.0,0.0,0.0,0.0,0.0,0.0,0.0,0.0,0.0,0.0,0.0,0.0,0.0,0.0,0.0,0.0,0.0,0.0,0.0,0.0,0.0,0.0,0.0,0.0,0.0,0.0,0.0,0.0,0.0,0.0,0.0,0.0,-0.2278,-0.2264,-0.2385,-0.2586,-0.2803,0.0,0.0,-0.3272,-0.367,-0.4051,-0.4126,-0.4702,-0.5111,-0.4853,0.0,0.0,0.0,-0.4414,-0.4357,-0.5182,-0.5477,-0.5919,0.0,0.0,0.0,0.0,0.0,0.0,0.0,0.0,0.0,0.0,0.0,0.0,0.0,0.0,0.0,-1.5974,-1.6239,-1.6434,-1.6434,-1.6308,-1.625,-1.625,-1.5757,-1.551,-1.551,-1.5483,-1.5306,-1.5093,-1.464,-1.4416,-1.4339,-1.374,0.0,0.0,-1.3432,-1.3296,-1.2818,-1.3036,-1.3112,-1.2994,-1.2587,-1.2387,-1.2387,0.0,0.0,0.0,0.0,0.0,0.0,0.0,0.475,0.4229,0.3833,0.2485,0.144,0.113,0.0351,-0.0099,0.0,0.0,0.0,0.0,0.0,0.0,0.0,0.0,0.0,0.0,0.0,0.0,0.0,0.0,0.0,0.0,0.0,0.0,0.0,0.0,0.0,0.0,0.0,0.0,0.0,0.0,0.0,0.0,0.0,0.0,0.0,0.0,0.0,0.0,0.0,0.0,0.0,-0.2087,-0.2311,0.0,0.0,-0.2755,-0.2989,-0.3029,-0.3529,-0.4001,-0.3869,-0.4293,-0.464,-0.4445,0.0,0.0,-0.4536,-0.4479,-0.4436,-0.4685,-0.5104,-0.546,0.0,0.0,0.0,0.0,0.0,0.0,0.0,0.0,0.0,0.0,0.0,0.0,0.0,0.0,0.0,-1.5359,-1.6289,-1.6818,-1.6818,-1.6497,-1.6312,-1.6312,-1.5838,-1.5531,-1.5333,-1.5333,-1.5262,-1.5025,-1.4815,-1.4654,-1.4489,-1.4354,0.0,0.0,-1.3596,-1.3384,-1.2466,-1.295,-1.3122,-1.3017,-1.2592,-1.2387,-1.2387,0.0,0.0,0.0,0.0,0.0,0.0,0.5136,0.4929,0.4672,0.4449,0.2995,0.1872,0.1596,0.0695,0.0033,-0.0133,0.0,0.0,0.0,0.0,0.0,0.0,0.0,0.0,0.0,0.0,0.0,0.0,0.0,0.0,0.0,0.0,0.0,0.0,0.0,0.0,0.0,0.0,0.0,0.0,0.0,0.0,0.0,0.0,0.0,0.0,0.0,0.0,0.0,0.0,0.0,0.0,0.0,0.0,0.0,0.0,-0.272,-0.2977,-0.2962,-0.3361,-0.3743,-0.3588,-0.3888,-0.4164,0.0,0.0,-0.3912,-0.4217,-0.4282,-0.4289,-0.4287,-0.4766,-0.5122,0.0,0.0,0.0,0.0,0.0,0.0,0.0,0.0,0.0,0.0,0.0,0.0,0.0,0.0,0.0,-1.4215,-1.5143,-1.6044,-1.6899,-1.6522,-1.628,-1.6204,-1.5736,-1.5232,-1.4713,-1.4645,-1.4189,-1.3553,-1.3688,-1.3561,-1.3289,-1.3934,0.0,0.0,-1.3739,-1.3635,-1.2689,-1.309,-1.3236,-1.3131,-1.2592,-1.2387,-1.2387,0.0,0.0,0.0,0.0,0.0,0.0,0.0,0.4987,0.4651,0.3912,0.2808,0.182,0.1104,0.0884,0.0451,-0.042,0.0,0.0,0.0,0.0,0.0,0.0,0.0,0.0,0.0,0.0,0.0,-0.1109,-0.1048,0.0,0.0,0.0,0.0,0.0,0.0,0.0,0.0,0.0,0.0,0.0,0.0,0.0,0.0,0.0,0.0,0.0,0.0,0.0,0.0,0.0,0.0,0.0,0.0,0.0,0.0,0.0,-0.2791,-0.3005,-0.3077,-0.3136,-0.323,-0.3232,-0.358,-0.3776,0.0,0.0,-0.3625,-0.3778,-0.3656,-0.3687,-0.4187,-0.4595,-0.4877,-0.5167,0.0,0.0,0.0,0.0,0.0,0.0,0.0,0.0,0.0,0.0,0.0,0.0,0.0,0.0,-1.2612,-1.25,-1.3753,-1.6593,-1.6436,-1.6199,-1.6012,-1.5488,-1.466,-1.3523,-1.326,-1.2153,-1.0358,-1.0824,-1.0792,-1.0428,0.0,0.0,0.0,-1.3922,-1.425,-1.3654,-1.3547,-1.3526,-1.3416,-1.2647,-1.2387,-1.2387,0.0,0.0,0.0,0.0,0.0,0.0,0.0,0.5075,0.4879,0.4636,0.3674,0.2829,0.2422,0.1876,0.1446,0.1158,0.0,0.0,0.0,0.0,0.0,0.0,0.0,0.0,0.0,0.0,-0.0566,-0.0687,-0.0908,-0.0991,-0.1003,0.0,0.0,0.0,0.0,0.0,0.0,0.0,0.0,0.0,0.0,0.0,0.0,0.0,0.0,0.0,0.0,0.0,0.0,0.0,0.0,0.0,0.0,0.0,0.0,0.0,0.0,0.0,-0.2754,-0.2862,-0.2977,-0.2935,-0.3063,-0.3178,-0.3073,0.0,-0.3318,-0.3707,-0.3756,-0.3656,-0.3558,-0.4159,-0.4627,-0.4453,-0.5095,0.0,0.0,0.0,0.0,0.0,0.0,0.0,0.0,0.0,0.0,0.0,0.0,0.0,-1.1008,-1.1921,-1.28,-1.3748,-1.3563,-1.3732,-1.443,-1.3313,-1.2802,-1.2994,-1.1659,-1.0734,-1.0141,-1.0143,-1.0241,0.0,0.0,0.0,0.0,-1.1762,-1.1633,-1.1046,-1.1139,-1.1207,-1.1235,-1.1711,-1.1732,-1.1618,0.0,0.0,0.0,0.0,0.0,0.0,0.0,0.5021,0.495,0.4995,0.4027,0.3315,0.317,0.2663,0.2176,0.1865,0.0,0.0,0.0,0.0,0.0,0.0,0.0,0.0,0.0,-0.0199,-0.0425,-0.0604,-0.0785,-0.0928,-0.0971,-0.0959,-0.0944,0.0,0.0,0.0,0.0,0.0,0.0,0.0,0.0,0.0,-0.0397,0.0,0.0,0.0,0.0,0.0,0.0,0.0,0.0,0.0,0.0,0.0,0.0,0.0,-0.2332,0.0,0.0,-0.2857,-0.2984,-0.2965,-0.2956,0.0,0.0,0.0,-0.3097,-0.3481,-0.3648,-0.3622,-0.3278,-0.3855,-0.4331,-0.413,-0.4885,0.0,0.0,0.0,0.0,0.0,0.0,0.0,0.0,0.0,0.0,0.0,0.0,0.0,-0.9469,-1.0239,-1.0677,-1.0623,-1.1563,-1.218,-1.2583,-1.1553,-1.0971,-1.0815,-0.9567,-0.8683,-0.8097,-0.8397,-0.854,0.0,0.0,0.0,0.0,-1.0758,-1.067,-1.0059,-1.0212,-1.0156,-1.0017,-1.069,-1.0794,-1.0739,0.0,0.0,0.0,0.0,0.0,0.0,0.0,0.0,0.0,0.0,0.4043,0.3418,0.3469,0.3237,0.2751,0.0,0.0,0.0,0.0,0.0,0.0,0.0,0.0,0.0,0.0,0.0129,-0.0127,-0.0615,-0.0598,-0.0647,-0.0763,-0.0768,-0.0785,-0.0785,-0.0926,-0.0898,-0.0731,-0.0204,0.0266,0.0622,0.0788,0.0807,0.0,0.0,0.0,0.0,0.0,0.0,0.0,0.0,0.0,0.0,0.0,0.0,0.0,0.0,0.0,0.0,0.0,0.0,0.0,0.0,0.0,0.0,0.0,0.0,0.0,-0.3169,-0.3418,-0.3515,-0.3241,-0.3628,-0.401,-0.408,0.0,0.0,0.0,0.0,0.0,0.0,0.0,0.0,0.0,0.0,0.0,0.0,0.0,0.0,-0.8016,-0.7846,-0.7738,-0.7633,-1.0113,-1.1177,-1.0531,-1.0052,-0.899,-0.7457,-0.7131,-0.6184,-0.4755,-0.5771,-0.6041,0.0,0.0,0.0,0.0,-1.0452,-1.0674,-1.0122,-1.0201,-0.9905,-0.9423,-0.957,-0.9574,-0.9574,0.0,0.0,0.0,0.0,0.0,0.0,0.0,0.0,0.0,0.0,0.0,0.4352,0.4239,0.4094,0.0,0.0,0.0,0.0,0.0,0.0,0.0,0.0,0.0,0.0,0.0,0.148,0.1257,0.104,0.0796,0.0609,0.0481,0.0366,0.0392,0.0475,0.0336,0.0364,0.0477,0.0357,0.0457,0.0673,0.052,0.0565,0.0,0.0,0.0,0.0,0.0908,0.047,0.0,0.0,0.0,0.0,0.0,0.0,0.0,0.0,-0.2034,-0.2296,-0.272,0.0,-0.2647,-0.2712,0.0,0.0,0.0,0.0,0.0,0.0,0.0,0.0,0.0,0.0,0.0,0.0,0.0,0.0,0.0,0.0,0.0,0.0,0.0,0.0,0.0,0.0,0.0,0.0,0.0,-0.7047,-0.7342,-0.6842,-0.67,-0.6855,-0.7023,-0.7602,-0.8768,-0.7345,-0.6835,-0.7098,-0.5827,-0.5073,-0.4758,-0.4984,-0.5092,0.0,0.0,0.0,-0.648,-0.6854,-0.6869,-0.6675,-0.6707,-0.6588,-0.6512,-0.7426,-0.7584,-0.7584,0.0,0.0,0.0,0.0,0.0,0.0,0.0,0.0,0.0,0.0,0.0,0.0,0.0,0.0,0.0,0.0,0.0,0.0,0.0,0.0,0.0,0.0,0.0,0.0,0.2114,0.1898,0.1721,0.1608,0.1408,0.1223,0.0978,0.0924,0.0895,0.0894,0.0811,0.0951,0.1206,0.1062,0.1175,0.1424,0.1448,0.0,0.0,0.0,0.0,0.0,0.1679,0.1133,0.0,0.0099,-0.0452,-0.1007,0.0,0.0,0.0,0.0,-0.1846,-0.2051,-0.2607,-0.2751,-0.2737,-0.2801,-0.287,-0.2861,0.0,0.0,0.0,0.0,0.0,0.0,0.0,0.0,0.0,0.0,0.0,0.0,0.0,0.0,0.0,0.0,0.0,0.0,0.0,0.0,0.0,0.0,0.0,-0.6637,-0.6693,-0.6226,-0.6031,-0.6163,-0.5516,-0.5662,-0.6581,-0.5618,-0.5246,-0.5395,-0.4647,-0.4274,-0.4311,-0.4613,-0.4796,0.0,0.0,0.0,-0.5572,-0.5467,-0.5271,-0.5104,-0.5348,-0.5246,-0.5093,-0.598,-0.6202,-0.6202,0.0,0.0,0.0,0.0,0.0,0.0,0.0,0.0,0.0,0.0,0.0,0.0,0.0,0.0,0.0,0.0,0.0,0.0,0.0,0.0,0.0,0.0,0.0,0.2304,0.228,0.2141,0.2014,0.1873,0.1863,0.1696,0.137,0.1334,0.1252,0.1146,0.1146,0.1373,0.1752,0.1782,0.199,0.2309,0.26,0.0,0.0,0.0,0.0,0.0,0.0,0.0,0.0,0.0328,-0.0384,-0.0986,-0.0977,0.0,0.0,0.0,0.0,0.0,-0.2424,-0.2751,-0.2927,-0.3039,-0.3116,-0.3111,0.0,0.0,0.0,0.0,0.0,0.0,0.0,0.0,0.0,0.0,0.0,0.0,0.0,0.0,0.0,0.0,0.0,0.0,0.0,0.0,0.0,0.0,0.0,-0.6183,-0.6007,-0.566,-0.5458,-0.5453,-0.4888,-0.4548,-0.4554,-0.4496,-0.4144,-0.3527,-0.3811,-0.386,-0.3754,-0.4352,-0.4657,-0.4704,0.0,0.0,-0.5348,-0.5115,-0.4775,-0.453,-0.4972,-0.4825,-0.4424,-0.4925,-0.5148,-0.5148,0.0,0.0,0.0,0.0,0.0,0.0,0.0,0.0,0.0,0.0,0.0,0.0,0.0,0.0,0.0,0.0,0.0,0.0,0.0,0.0,0.0,0.0,0.3742,0.3615,0.3597,0.3432,0.3263,0.3132,0.3015,0.2828,0.2633,0.2392,0.2288,0.2268,0.2268,0.2333,0.243,0.2205,0.2206,0.2297,0.2309,0.0,0.0,0.0,0.0,0.0,0.0,0.0,0.0,0.0732,-0.0061,-0.098,-0.0928,0.0,0.0,0.0,0.0,0.0,-0.2087,-0.2355,-0.2505,-0.2913,-0.294,-0.2843,0.0,0.0,0.0,0.0,0.0,0.0,0.0,0.0,0.0,0.0,0.0,0.0,0.0,0.0,0.0,0.0,0.0,0.0,0.0,0.0,0.0,0.0,0.0,-0.4908,-0.5079,-0.4574,-0.4428,-0.4763,-0.4147,-0.3885,-0.3931,-0.3931,-0.3835,-0.3653,-0.3852,-0.3883,-0.3818,-0.3941,-0.4059,-0.4057,0.0,-0.4109,-0.4142,-0.4102,-0.3979,-0.3849,-0.3954,-0.3859,-0.3755,-0.3866,-0.3867,-0.4033,0.0,0.0,0.0,0.0,0.0,0.0,0.0,0.0,0.0,0.0,0.0,0.0,0.0,0.0,0.0,0.0,0.0,0.0,0.0,0.0,0.0,0.4092,0.397,0.3873,0.3838,0.3648,0.3503,0.3404,0.3412,0.3303,0.3051,0.2816,0.268,0.2609,0.2569,0.2582,0.2598,0.2353,0.2261,0.2295,0.0,0.0,0.0,0.0,0.0,0.0,0.0,0.0,0.0,0.0,0.0421,-0.0419,-0.0174,0.0,0.0,0.0,0.0,0.0,-0.1911,-0.2188,-0.2413,-0.288,-0.2923,-0.2851,0.0,0.0,0.0,0.0,0.0,0.0,0.0,0.0,0.0,0.0,0.0,0.0,0.0,0.0,0.0,0.0,0.0,0.0,0.0,0.0,0.0,0.0,0.0,0.0,-0.4488,-0.4127,-0.3987,-0.419,-0.3935,-0.3849,-0.3877,-0.385,-0.3804,-0.368,-0.3835,-0.386,-0.3774,-0.3895,-0.3889,-0.3883,0.0,-0.3794,-0.3908,-0.3685,-0.3642,-0.3674,-0.3642,-0.3612,-0.3587,-0.3587,-0.3587,-0.3755,0.0,0.0,0.0,0.0,0.0,0.0,0.0,0.0,0.0,0.0,0.0,0.0,0.0,0.0,0.0,0.0,0.0,0.0,0.0,0.0,0.4199,0.4017,0.3923,0.3846,0.3815,0.359,0.3449,0.34,0.3441,0.3345,0.3151,0.2939,0.2805,0.2693,0.2533,0.2454,0.2481,0.2309,0.2242,0.2263,0.0,0.0,0.0,0.0,0.0,0.0,0.0,0.0,0.0,0.0,0.0,0.0,0.0,0.0,0.0,0.0028,-0.0336,-0.09,-0.1426,-0.1885,-0.2298,-0.272,0.0,0.0,0.0,0.0,0.0,0.0,0.0,0.0,0.0,0.0,0.0,0.0,0.0,0.0,0.0,0.0,0.0,0.0,0.0,0.0,0.0,0.0,0.0,0.0,0.0,0.0,-0.4047,-0.3861,-0.3834,-0.3849,-0.3895,-0.3927,-0.3882,-0.3928,-0.382,-0.3744,-0.3822,-0.3902,-0.3815,-0.3846,-0.3881,-0.392,-0.3732,-0.3714,-0.3859,-0.357,-0.3546,-0.3653,-0.3605,-0.3587,-0.3587,-0.3587,-0.3587,-0.3755,0.0,0.0,0.0,0.0,0.0,0.0,0.0,0.0,0.0,0.0,0.0,0.0,0.0,0.0,0.0,0.0,0.0,0.0,0.0,0.0,0.4129,0.374,0.3722,0.3756,0.3786,0.3539,0.3393,0.34,0.3164,0.3042,0.3019,0.2799,0.2719,0.2691,0.2245,0.2087,0.2122,0.2042,0.2042,0.2133,0.2196,0.0,0.0,0.0,0.0,0.0,0.0,0.0,0.0,0.0,0.0,0.0,0.0,0.0,0.0981,0.1007,0.0588,0.0057,-0.0181,-0.1066,-0.1989,-0.2216,0.0,0.0,0.0,0.0,0.0,0.0,0.0,0.0,0.0,0.0,0.0,0.0,0.0,0.0,0.0,0.0,0.0,0.0,0.0,0.0,0.0,0.0,0.0,0.0,0.0,0.0,-0.3822,-0.3826,-0.3855,-0.3912,-0.3919,-0.3887,-0.3883,-0.3887,-0.3883,-0.3869,-0.3883,-0.3884,-0.3876,-0.3885,-0.392,-0.3926,-0.3909,-0.3842,-0.3689,-0.3668,-0.3634,-0.3594,-0.3589,-0.3587,-0.3587,-0.3587,-0.3587,-0.3587,0.0,0.0,0.0,0.0,0.0,0.0,0.0,0.0,0.0,0.0,0.0,0.0,0.0,0.0,0.0,0.0,0.0,0.0,0.0,0.0,0.4081,0.385,0.377,0.3736,0.3679,0.3503,0.3358,0.3286,0.3175,0.3116,0.3128,0.3123,0.297,0.2695,0.2485,0.2307,0.2155,0.2096,0.2074,0.2094,0.2078,0.2059,0.0,0.0,0.0,0.0,0.0,0.0,0.0,0.0,0.1484,0.1316,0.1709,0.1427,0.1062,0.1538,0.1174,0.048,-0.0177,-0.0786,-0.1433,-0.2348,0.0,0.0,0.0,0.0,0.0,0.0,0.0,0.0,0.0,0.0,0.0,0.0,0.0,0.0,0.0,0.0,0.0,0.0,0.0,0.0,0.0,0.0,0.0,0.0,0.0,0.0,-0.3885,-0.3861,-0.3892,-0.3916,-0.3917,-0.3928,-0.3889,-0.3889,-0.3889,-0.3889,-0.3889,-0.3889,-0.3888,-0.3912,-0.3882,-0.3916,-0.3838,-0.3721,-0.3676,-0.3638,-0.3608,-0.3587,-0.3587,-0.3587,-0.3587,-0.3587,-0.3587,-0.3587,0.0,0.0,0.0,0.0,0.0,0.0,0.0,0.0,0.0,0.0,0.0,0.0,0.0,0.0,0.0,0.0,0.0,0.0,0.0,0.4186,0.4029,0.3847,0.3819,0.3728,0.353,0.3434,0.3364,0.325,0.3185,0.3146,0.3136,0.3095,0.2901,0.2567,0.247,0.2313,0.213,0.2079,0.2066,0.2063,0.202,0.1991,0.0,0.0,0.0,0.0,0.0,0.0,0.0,0.0,0.1847,0.1818,0.0,0.1958,0.151,0.2071,0.1493,0.0602,0.003,-0.0702,-0.1526,0.0,0.0,0.0,0.0,0.0,0.0,0.0,0.0,0.0,0.0,0.0,0.0,0.0,0.0,0.0,0.0,0.0,0.0,0.0,0.0,0.0,0.0,0.0,0.0,0.0,0.0,0.0,0.0,-0.3928,-0.3889,-0.3889,-0.3889,-0.3889,-0.3889,-0.3871,-0.3922,-0.3922,-0.3902,-0.3903,-0.392,-0.386,-0.3881,-0.3858,-0.3714,-0.3668,-0.3646,-0.3605,-0.3587,-0.3587,-0.3587,-0.3587,-0.3587,-0.3587,-0.3587,-0.3587,0.0,0.0,0.0,0.0,0.0,0.0,0.0,0.0,0.0,0.0,0.0,0.0,0.0,0.0,0.0,0.0,0.0,0.0,0.4264,0.4183,0.3964,0.3722,0.3754,0.3671,0.3418,0.3412,0.3403,0.3403,0.3135,0.2996,0.2985,0.2595,0.2365,0.2297,0.2099,0.2005,0.2002,0.2004,0.2004,0.2002,0.2001,0.1965,0.1909,0.0,0.0,0.0,0.0,0.0,0.0,0.0,0.1878,0.2015,0.0,0.0,0.0,0.2665,0.1575,0.0387,0.0634,-0.0855,-0.2385,0.0,0.0,0.0,0.0,0.0,0.0,0.0,0.0,0.0,0.0,0.0,0.0,0.0,0.0,0.0,0.0,0.0,0.0,0.0,0.0,0.0,0.0,0.0,0.0,0.0,0.0,0.0,0.0,-0.3889,-0.3889,-0.3889,-0.3888,-0.3888,-0.3888,-0.389,-0.392,-0.3919,-0.3856,-0.3859,-0.3917,-0.3856,-0.3736,-0.3679,-0.3677,-0.3643,-0.3587,-0.3587,-0.3587,-0.3587,-0.3587,-0.3587,-0.3587,-0.3587,-0.3587,-0.3587,0.0,0.0,0.0,0.0,0.0,0.0,0.0,0.0,0.0,0.0,0.0,0.0,0.0,0.0,0.0,0.0,0.0,0.0,0.0,0.3794,0.37,0.3779,0.3697,0.3656,0.3673,0.3667,0.3495,0.3112,0.2841,0.2795,0.2922,0.2761,0.255,0.2304,0.2434,0.2292,0.1947,0.2077,0.2058,0.1934,0.1865,0.1838,0.1823,0.0,0.0,0.0,0.0,0.0,0.0,0.0,0.0,0.0,0.2155,0.0,0.2327,0.2493,0.2231,0.1666,0.0861,0.0,0.0,0.0,0.0,0.0,0.0,0.0,0.0,0.0,0.0,0.0,0.0,0.0,0.0,0.0,0.0,0.0,0.0,0.0,0.0,0.0,0.0,0.0,0.0,0.0,0.0,0.0,0.0,0.0,0.0,-0.3889,-0.3889,-0.3889,-0.391,-0.3887,-0.3887,-0.3827,-0.3856,-0.3855,-0.3734,-0.3737,-0.3854,-0.3733,-0.3695,-0.3676,-0.3632,-0.3604,-0.3587,-0.3587,-0.3587,-0.3587,-0.3587,-0.3587,-0.3587,-0.3587,-0.3587,-0.3587,0.0,0.0,0.0,0.0,0.0,0.0,0.0,0.0,0.0,0.0,0.0,0.0,0.0,0.0,0.0,0.0,0.0,0.0,0.0,0.0,0.3573,0.3762,0.3713,0.3712,0.3809,0.3685,0.3446,0.3081,0.2825,0.2719,0.282,0.263,0.2394,0.2197,0.2417,0.2309,0.199,0.2077,0.2035,0.1905,0.182,0.1797,0.1797,0.0,0.0,0.0,0.0,0.0,0.0,0.0,0.0,0.0,0.2073,0.0,0.0,0.2156,0.1822,0.1238,0.0242,0.0,0.0,0.0,0.0,0.0,0.0,0.0,0.0,0.0,0.0,0.0,0.0,0.0,0.0,0.0,0.0,0.0,0.0,0.0,0.0,0.0,0.0,0.0,0.0,0.0,0.0,0.0,0.0,0.0,0.0,-0.3892,-0.3879,-0.3879,-0.3843,-0.3884,-0.3884,-0.3822,-0.3733,-0.3732,-0.3672,-0.3661,-0.3696,-0.3658,-0.3642,-0.364,-0.3604,-0.3587,-0.3587,-0.3587,-0.3587,-0.3587,-0.3587,-0.3587,-0.3587,-0.3587,-0.3587,-0.3587,0.0,0.0,0.0,0.0,0.0,0.0,0.0,0.0,0.0,0.0,0.0,0.0,0.0,0.0,0.0,0.0,0.0,0.0,0.0,0.0,0.3559,0.3696,0.3773,0.3816,0.3816,0.3585,0.3401,0.3274,0.2939,0.2754,0.2665,0.2287,0.2089,0.2009,0.2139,0.2152,0.2076,0.203,0.1969,0.1898,0.1817,0.1797,0.1797,0.1797,0.0,0.0,0.0,0.0,0.0,0.0,0.0,0.0,0.1933,0.2114,0.2166,0.1771,0.0891,-0.0102,0.0,0.0,0.0,0.0,0.0,0.0,0.0,0.0,0.0,0.0,0.0,0.0,0.0,0.0,0.0,0.0,0.0,0.0,0.0,0.0,0.0,0.0,0.0,0.0,0.0,0.0,0.0,0.0,0.0,0.0,0.0,-0.3859,-0.3829,-0.3829,-0.3822,-0.3819,-0.3819,-0.37,-0.367,-0.3669,-0.3615,-0.3587,-0.3587,-0.3587,-0.3587,-0.3587,-0.3587,-0.3587,-0.3587,-0.3587,-0.3587,-0.3587,-0.3587,-0.3587,-0.3587,-0.3587,-0.3587,-0.3587,0.0,0.0,0.0,0.0,0.0,0.0,0.0,0.0,0.0,0.0,0.0,0.0,0.0,0.0,0.0,0.0,0.0,0.0,0.0,0.0,0.353,0.3757,0.395,0.4039,0.4039,0.3879,0.377,0.3744,0.3118,0.2698,0.2449,0.2376,0.2202,0.201,0.215,0.2112,0.1957,0.204,0.1986,0.1813,0.1802,0.1797,0.1797,0.1797,0.1797,0.0,0.0,0.0,0.0,0.0,0.0,0.0,0.1824,0.188,0.1933,0.2099,0.1561,0.0801,0.0,0.0,0.0,0.0,0.0,0.0,0.0,0.0,0.0,0.0,0.0,0.0,0.0,0.0,0.0,0.0,0.0,0.0,0.0,0.0,0.0,0.0,0.0,0.0,0.0,0.0,0.0,0.0,0.0,0.0,-0.3848,-0.3836,-0.3829,-0.3829,-0.3724,-0.3698,-0.3698,-0.3638,-0.3606,0.0,-0.3594,-0.3587,-0.3587,-0.3587,-0.3587,-0.3587,-0.3587,-0.3587,-0.3587,-0.3587,-0.3587,-0.3587,-0.3587,-0.3587,-0.3587,-0.3587,-0.3587,-0.3587,0.0,0.0,0.0,0.0,0.0,0.0,0.0,0.0,0.0,0.0,0.0,0.0,0.0,0.0,0.0,0.0,0.0,0.0,0.0,0.0,0.0,0.3833,0.4018,0.4056,0.4,0.3909,0.3822,0.3767,0.3386,0.0,0.0,0.0,0.0,0.1965,0.0,0.2027,0.1915,0.198,0.1937,0.1797,0.1797,0.1797,0.1797,0.1797,0.1797,0.1797,0.1797,0.0,0.0,0.0,0.0,0.0,0.0,0.0,0.1925,0.1782,0.1464,0.0955,0.0,0.0,0.0,0.0,0.0,0.0,0.0,0.0,0.0,0.0,0.0,0.0,0.0,0.0,0.0,0.0,0.0,0.0,0.0,0.0,0.0,0.0,0.0,0.0,0.0,0.0,0.0,0.0,0.0,-0.3726,-0.3726,-0.3698,-0.3683,-0.3683,-0.3651,-0.3635,-0.3635,-0.3604,-0.3587,-0.3587,-0.3587,-0.3587,-0.3587,-0.3587,-0.3587,-0.3587,-0.3587,-0.3587,-0.3587,-0.3587,-0.3587,-0.3587,-0.3587,-0.3587,-0.3587,-0.3587,-0.3587,-0.3587,0.0,0.0,0.0,0.0,0.0,0.0,0.0,0.0,0.0,0.0,0.0,0.0,0.0,0.0,0.0,0.0,0.0,0.0,0.0,0.0,0.0,0.0,0.4008,0.4029,0.3905,0.3846,0.3736,0.3641,0.0,0.0,0.0,0.0,0.0,0.2081,0.0,0.1988,0.1909,0.19,0.1839,0.1797,0.1797,0.1797,0.1797,0.1797,0.1797,0.1797,0.1797,0.1797,0.1797,0.1797,0.0,0.0,0.0,0.0,0.1957,0.1407,0.12,0.0881,0.0,0.0,0.0,0.0,0.0,0.0,0.0,0.0,0.0,0.0,0.0,0.0,0.0,0.0,0.0,0.0,0.0,0.0,0.0,0.0,0.0,0.0,0.0,0.0,0.0,0.0,0.0,0.0,0.0,-0.3662,-0.3662,-0.3615,-0.3587,-0.3587,-0.3587,-0.3587,-0.3587,-0.3587,-0.3587,-0.3587,-0.3587,-0.3587,-0.3587,-0.3587,-0.3587,-0.3587,-0.3587,-0.3587,-0.3587,-0.3587,-0.3587,-0.3587,-0.3587,-0.3587,-0.3587,-0.3587,-0.3587,-0.3587,0.0,0.0,0.0,0.0,0.0,0.0,0.0,0.0,0.0,0.0,0.0,0.0,0.0,0.0,0.0,0.0,0.0,0.0,0.0,0.0,0.0,0.381,0.3996,0.4029,0.3905,0.3846,0.3804,0.3761,0.0,0.0,0.0,0.0,0.0,0.2742,0.0,0.0,0.1907,0.183,0.1804,0.1797,0.1797,0.1797,0.1797,0.1797,0.1797,0.1797,0.1797,0.1797,0.1797,0.1797,0.1797,0.0,0.0,0.0,0.1856,0.1884,0.1469,0.0,0.0,0.0,0.0,0.0,0.0,0.0,0.0,0.0,0.0,0.0,0.0,0.0,0.0,0.0,0.0,0.0,0.0,0.0,0.0,0.0,0.0,0.0,0.0,0.0,0.0,0.0,0.0,0.0,-0.3604,-0.36,-0.36,-0.3591,-0.3587,-0.3587,-0.3587,-0.3587,-0.3587,-0.3587,-0.3587,-0.3587,-0.3587,-0.3587,-0.3587,-0.3587,-0.3587,-0.3587,-0.3587,-0.3587,-0.3587,-0.3587,-0.3587,-0.3587,-0.3587,-0.3587,-0.3587,-0.3587,-0.3587,-0.3587,0.0,0.0,0.0,0.0,0.0,0.0,0.0,0.0,0.0,0.0,0.0,0.0,0.0,0.0,0.0,0.0,0.0,0.0,0.0,0.0,0.0,0.3857,0.3892,0.3917,0.3835,0.3747,0.3687,0.0,0.0,0.0,0.0,0.3739,0.3259,0.0,0.0,0.0,0.0,0.1944,0.1888,0.1797,0.1797,0.1797,0.1797,0.0,0.0,0.0,0.0,0.0,0.0,0.0,0.1797,0.1797,0.1797,0.0,0.0,0.0,0.0,0.0,0.0,0.0,0.0,0.0,0.0,0.0,0.0,0.0,0.0,0.0,0.0,0.0,0.0,0.0,0.0,0.0,0.0,0.0,0.0,0.0,0.0,0.0,0.0,0.0,0.0,0.0,0.0,0.0,-0.3587,-0.3587,-0.3587,-0.3587,-0.3587,-0.3587,-0.3587,-0.3587,-0.3587,-0.3587,-0.3587,-0.3587,-0.3587,-0.3587,-0.3587,-0.3587,-0.3587,-0.3587,-0.3587,-0.3587,-0.3587,-0.3587,-0.3587,-0.3587,-0.3587,-0.3587,-0.3587,-0.3587,-0.3587,-0.3587,0.0,0.0,0.0,0.0,0.0,0.0,0.0,0.0,0.0,0.0,0.0,0.0,0.0,0.0,0.0,0.0,0.0,0.0,0.0,0.0,0.0,0.3816,0.3933,0.3914,0.3739,0.3795,0.0,0.0,0.0,0.0,0.4553,0.4252,0.3771,0.0,0.305,0.2661,0.0,0.0,0.0,0.1865,0.1865,0.1838,0.1798,0.0,0.0,0.0,0.0,0.0,0.0,0.0,0.0,0.0,0.0,0.0,0.0,0.0,0.0,0.0,0.0,0.0,0.0,0.0,0.0,0.0,0.0,0.0,0.0,0.0,0.0,0.0,0.0,0.0,0.0,0.0,0.0,0.0,0.0,0.0,0.0,0.0,0.0,0.0,0.0,0.0,0.0,0.0,-0.3587,-0.3587,-0.3587,-0.3587,-0.3587,-0.3587,-0.3587,-0.3587,-0.3587,-0.3587,-0.3587,-0.3587,-0.3587,-0.3587,-0.3587,-0.3587,-0.3587,-0.3587,-0.3587,-0.3587,-0.3587,-0.3587,-0.3587,-0.3587,-0.3587,-0.3587,-0.3587,-0.3587,-0.3587,-0.3587,0.0,0.0,0.0,0.0,0.0,0.0,0.0,0.0,0.0,0.0,0.0,0.0,0.0,0.0,0.5642,0.5634,0.0,0.0,0.0,0.0,0.0,0.3613,0.4219,0.0,0.3624,0.4166,0.0,0.0,0.0,0.0,0.4153,0.4493,0.4465,0.409,0.3344,0.2973,0.2902,0.0,0.0,0.0,0.2081,0.1979,0.1802,0.0,0.0,0.0,0.0,0.0,0.0,0.0,0.0,0.0,0.0,0.1797,0.1797,0.0,0.0,0.0,0.0,0.0,0.0,0.0,0.0,0.0,0.0,0.0,0.0,0.0,0.0,0.0,0.0,0.0,0.0,0.0,0.0,0.0,0.0,0.0,0.0,0.0,0.0,0.0,0.0,0.0,0.0,0.0,-0.3587,-0.3587,-0.3587,-0.3587,-0.3587,-0.3587,-0.3587,-0.3587,-0.3587,-0.3587,-0.3587,-0.3587,-0.3587,-0.3587,-0.3587,-0.3587,-0.3587,-0.3587,-0.3587,-0.3587,-0.3587,-0.3587,-0.3587,-0.3587,-0.3587,-0.3587,-0.3587,-0.3587,-0.3587,-0.3587,0.0,0.0,0.0,0.0,0.0,0.0,0.0,0.0,0.0,0.0,0.0,0.0,0.0,0.706,0.6654,0.6205,0.5343,0.0,0.0,0.0,0.0,0.3725,0.3889,0.3851,0.3613,0.3805,0.0,0.0,0.0,0.3727,0.3973,0.4213,0.4399,0.453,0.4374,0.3758,0.2881,0.2933,0.0,0.0,0.2452,0.2378,0.2105,0.0,0.0,0.0,0.0,0.0,0.0,0.0,0.0,0.0,0.1864,0.1852,0.1843,0.1808,0.0,0.0,0.0,0.0,0.0,0.0,0.0,0.0,0.0,0.0,0.0,0.0,0.0,0.0,0.0,0.0,0.0,0.0,0.0,0.0,0.0,0.0,0.0,0.0,0.0,0.0,0.0,0.0,0.0,0.0,0.0,-0.3466,-0.358,-0.3478,-0.3469,-0.3583,-0.3587,-0.3587,-0.3587,-0.3587,-0.3587,-0.3587,-0.3587,-0.3587,-0.3587,-0.3587,-0.3587,-0.3587,-0.3587,-0.3587,-0.3587,-0.3587,-0.3587,-0.3587,-0.3587,-0.3587,-0.3587,-0.3587,-0.3587,-0.3587,0.0,0.0,0.0,0.0,0.0,0.0,0.0,0.0,0.0,0.0,0.0,0.0,0.0,0.0,0.7062,0.6343,0.5706,0.5126,0.4615,0.4436,0.4339,0.4292,0.4402,0.438,0.4187,0.0,0.0,0.0,0.0,0.0,0.0,0.3992,0.4243,0.4501,0.4818,0.426,0.0,0.0,0.0,0.2237,0.2688,0.2626,0.2331,0.0,0.0,0.0,0.0,0.0,0.0,0.0,0.0,0.0,0.0,0.2051,0.193,0.1842,0.0,0.0,0.0,0.0,0.0,0.0,0.0,0.0,0.0,0.0,0.0,0.0,0.0,0.0,0.0,0.0,0.0,0.0,0.0,0.0,0.0,0.0,0.0,0.0,0.0,0.0,0.0,0.0,0.0,0.0,0.0,0.0,-0.358,-0.3476,-0.3465,-0.3583,-0.3587,-0.3587,-0.3587,-0.3587,-0.3587,-0.3587,-0.3587,-0.3587,-0.3587,-0.3587,-0.3587,-0.3587,-0.3587,-0.3587,-0.3587,-0.3587,-0.3643,-0.3699,-0.3643,-0.3643,-0.3699,-0.3643,-0.3587,-0.3587,0.0,0.0,0.0,0.0,0.0,0.0,0.0,0.0,0.0,0.0,0.0,0.0,0.0,0.0,0.0,0.6104,0.5847,0.5668,0.5501,0.5489,0.5434,0.5317,0.0,0.0,0.0,0.0,0.0,0.0,0.0,0.0,0.0,0.0,0.407,0.4092,0.4569,0.4431,0.3849,0.0,0.3187,0.2791,0.0,0.2676,0.2528,0.0,0.0,0.0,0.2935,0.2939,0.0,0.3256,0.0,0.0,0.0,0.2311,0.1991,0.1932,0.0,0.0,0.0,0.0,0.0,0.0,0.0,0.0,0.0,0.0,0.0,0.0,0.0,0.0,0.0,0.0,0.0,0.0,0.0,0.0,0.0,0.0,0.0,0.0,0.0,0.0,0.0,0.0,0.0,0.0,-0.3576,-0.3576,-0.3582,-0.3583,-0.3585,-0.364,-0.3643,-0.3587,-0.3587,-0.3643,-0.3643,-0.3587,-0.3643,-0.3643,-0.3587,-0.3587,-0.3587,-0.3587,-0.3587,-0.3587,-0.3587,-0.3587,-0.3757,-0.398,-0.3699,-0.3813,-0.398,-0.3698,-0.364,-0.3585,0.0,0.0,0.0,0.0,0.0,0.0,0.0,0.0,0.0,0.0,0.0,0.0,0.7546,0.7758,0.7586,0.6867,0.6651,0.627,0.5562,0.5398,0.5329,0.5308,0.5469,0.0,0.0,0.0,0.0,0.0,0.0,0.0,0.0,0.0,0.0,0.0,0.4235,0.402,0.3354,0.3737,0.0,0.0,0.3178,0.31,0.0,0.0,0.0,0.0,0.0,0.3641,0.3531,0.0,0.3286,0.2742,0.0,0.0,0.0,0.0,0.0,0.0,0.2243,0.0,0.0,0.0,0.0,0.0,0.0,0.0,0.0,0.0,0.0,0.0,0.0,0.0,0.0,0.0,0.0,0.0,0.0,0.0,0.0,0.0,0.0,0.0,0.0,0.0,0.0,0.0,-0.3338,-0.3322,-0.3454,-0.3499,-0.3687,-0.4074,-0.3956,-0.3868,-0.3868,-0.4147,-0.4033,-0.3587,-0.4033,-0.4033,-0.3587,-0.3813,-0.3757,-0.3587,-0.3587,-0.3699,-0.3868,-0.3868,-0.3924,-0.4038,-0.4203,-0.4313,-0.4364,-0.4147,-0.3963,-0.3791,0.0,0.0,0.0,0.0,0.0,0.0,0.0,0.0,0.0,0.0,0.0,0.0,0.0,0.0,0.8027,0.7586,0.7385,0.7052,0.6487,0.6289,0.6174,0.6174,0.6092,0.6041,0.0,0.0,0.0,0.0,0.0,0.0,0.0,0.0,0.0,0.0,0.0,0.0,0.0,0.0,0.0,0.0,0.3298,0.0,0.0,0.3843,0.3935,0.0,0.0,0.0,0.3874,0.407,0.3587,0.0,0.0,0.0,0.0,0.0,0.0,0.0,0.0,0.0,0.0,0.0,0.0,0.0,0.2322,0.2353,0.2219,0.0,0.0,0.0,0.0,0.0,0.0,0.0,0.0,0.0,0.0,0.0,0.0,0.0,0.0,0.0,0.0,-0.3413,-0.3413,-0.3413,-0.3313,-0.3351,-0.3564,-0.3603,-0.3838,-0.4219,-0.415,-0.4063,-0.4063,-0.4311,-0.4103,-0.3549,-0.3965,-0.3811,-0.3253,-0.3365,-0.3421,-0.3417,-0.3504,-0.3717,-0.3992,-0.4182,-0.4297,-0.4325,-0.4381,-0.4471,-0.4545,-0.4341,-0.4164,-0.3995,0.0,0.0,0.0,0.0,0.0,0.0,0.0,0.0,0.0,0.0,0.0,0.0,0.0,0.0,0.0,0.0,0.8034,0.7857,0.7801,0.7602,0.746,0.7431,0.7279,0.7193,0.7193,0.0,0.0,0.0,0.0,0.0,0.0,0.0,0.0,0.0,0.0,0.0,0.0,0.0,0.0,0.2988,0.3298,0.3502,0.0,0.0,0.4113,0.4014,0.4555,0.4422,0.4043,0.4461,0.395,0.0,0.0,0.0,0.0,0.0,0.22,0.0,0.0,0.0,0.0,0.0,0.0,0.0,0.2255,0.2591,0.2763,0.0,0.0,0.0,0.0,0.0,0.0,0.0,0.0,0.0,0.0,0.0,0.0,0.0,0.0,0.0,-0.3445,-0.3392,-0.3392,-0.3445,-0.3444,-0.3601,-0.3862,-0.3764,-0.3928,-0.43,-0.4203,-0.4154,-0.4154,-0.4273,-0.3979,-0.3379,-0.3541,-0.329,-0.2678,-0.2735,-0.2844,-0.3062,-0.3345,-0.3651,-0.3918,-0.4498,-0.4725,-0.4736,-0.4468,-0.4532,-0.4733,-0.4408,-0.4247,-0.4194,0.0,0.0,0.0,0.0,0.0,0.0,0.0,0.0,0.0,0.0,0.0,0.0,0.0,0.0,0.0,0.0,0.8601,0.8309,0.7841,0.79,0.7878,0.7731,0.7682,0.7661,0.7661,0.7525,0.0,0.0,0.0,0.0,0.0,0.0,0.0,0.0,0.0,0.0,0.0,0.0,0.0,0.2867,0.3326,0.0,0.3581,0.432,0.4436,0.428,0.4822,0.482,0.4541,0.4445,0.4146,0.3658,0.0,0.0,0.0,0.0,0.0,0.0,0.0,0.0,0.0,0.0,0.0,0.0,0.2357,0.2451,0.2515,0.0,0.0,0.0,0.0,0.0,0.0,0.0,0.0,0.0,0.0,0.0,0.0,0.0,0.0,0.0,-0.3573,-0.3369,-0.3318,-0.3522,-0.3775,-0.3977,-0.4282,-0.3724,-0.3857,-0.4792,-0.4279,-0.394,-0.394,-0.4168,-0.3801,-0.2785,-0.3275,-0.3227,-0.2638,-0.2854,-0.2853,-0.2744,-0.3215,-0.3584,-0.3959,-0.4475,-0.4689,-0.4758,-0.4868,-0.4963,-0.4992,-0.487,-0.469,-0.4473,0.0,0.0,0.0,0.0,0.0,0.0,0.0,0.0,0.0,0.0,0.0,0.0,0.0,0.0,0.0,0.0,0.0,0.0,0.0,0.0,0.8191,0.8105,0.8015,0.7973,0.8056,0.7973,0.7795,0.0,0.0,0.0,0.0,0.0,0.0,0.0,0.0,0.0,0.0,0.0,0.2715,0.2852,0.3332,0.0,0.3977,0.4675,0.485,0.4812,0.513,0.5022,0.469,0.4419,0.4093,0.0,0.0,0.3074,0.2563,0.0,0.2318,0.2288,0.0,0.0,0.0,0.2188,0.0,0.0,0.0,0.257,0.2674,0.0,0.0,0.0,0.0,0.0,0.0,0.0,0.0,0.0,0.0,0.0,0.0,0.0,0.0,0.0,-0.3734,-0.3682,-0.3632,-0.3784,-0.3682,-0.3732,-0.3982,-0.341,-0.3376,-0.4091,-0.3768,-0.3526,-0.3526,-0.3765,-0.3415,-0.2576,-0.2917,-0.2716,-0.2131,-0.229,-0.2345,-0.2449,-0.3058,-0.3518,-0.3831,-0.4212,-0.4505,-0.4767,-0.4657,-0.4598,-0.4555,-0.4511,-0.4244,-0.3934,0.0,0.0,0.0,0.0,0.0,0.0,0.0,0.0,0.0,0.0,0.0,0.0,0.0,0.0,0.0,0.0,0.0,0.0,0.0,0.0,0.0,0.8425,0.8257,0.8237,0.8346,0.8231,0.793,0.0,0.0,0.0,0.0,0.0,0.0,0.0,0.0,0.0,0.0,0.0,0.0,0.3003,0.0,0.3977,0.4307,0.5006,0.5184,0.5208,0.5337,0.5167,0.4835,0.4519,0.4106,0.3792,0.3942,0.3371,0.0,0.0,0.0,0.0,0.0,0.0,0.0,0.0,0.0,0.2221,0.0,0.0,0.0,0.0,0.0,0.0,0.0,0.0,0.0,0.0,0.0,0.0,0.0,0.0,0.0,0.0,0.0,0.0,0.0,-0.3546,-0.3685,-0.4029,-0.3429,-0.3226,-0.3679,-0.3177,-0.2977,-0.318,-0.3079,-0.3029,-0.3029,-0.3173,-0.2887,-0.2323,-0.2358,-0.2162,-0.1687,-0.1687,-0.1846,-0.2108,-0.2801,-0.3247,-0.345,-0.3755,-0.4083,-0.444,-0.4152,-0.3985,-0.3982,-0.3882,-0.3581,-0.323,0.8127,0.7949,0.0,0.0,0.0,0.0,0.0,0.0,0.0,0.0,0.0,0.0,0.0,0.0,0.0,0.0,0.0,0.0,0.7607,0.0,0.0,0.0,0.8479,0.8463,0.8463,0.8463,0.8431,0.8334,0.0,0.0,0.0,0.0,0.0,0.0,0.3324,0.0,0.0,0.0,0.3188,0.0,0.424,0.4307,0.0,0.5028,0.5214,0.5037,0.529,0.5375,0.5267,0.0,0.4487,0.4287,0.0,0.3547,0.3107,0.0,0.0,0.0,0.0,0.0,0.0,0.0,0.2188,0.0,0.0,0.0,0.0,0.239,0.0,0.0,0.0,0.0,0.0,0.0,0.0,0.0,0.0,0.0,0.0,0.0,0.0,0.0,0.0,-0.203,-0.2571,-0.4221,-0.3219,-0.2917,-0.3882,-0.343,-0.318,-0.318,-0.2725,-0.2472,-0.2472,-0.2528,-0.2227,-0.1723,-0.1727,-0.1677,-0.1626,-0.1626,-0.1626,-0.1677,-0.228,-0.253,-0.258,-0.308,-0.3331,-0.3381,-0.3338,-0.3589,-0.3932,-0.3482,-0.323,-0.318,0.8091,0.7991,0.0,0.0,0.0,0.0,0.0,0.0,0.0,0.0,0.0,0.0,0.0,0.0,0.0,0.0,0.0,0.9473,0.0,0.0,0.0,0.0,0.0,0.0,0.8679,0.8673,0.8673,0.8673,0.8673,0.0,0.0,0.0,0.0,0.0,0.4189,0.0,0.3326,0.0,0.3502,0.0,0.0,0.0,0.0,0.5108,0.531,0.5204,0.5159,0.5247,0.5316,0.0,0.4669,0.0,0.0,0.0,0.0,0.0,0.0,0.0,0.0,0.0,0.0,0.0,0.0,0.0,0.2561,0.0,0.2322,0.0,0.0,0.0,0.0,0.0,0.0,0.0,0.2143,0.0,0.0,0.0,0.0,0.0,0.0,0.0,0.0,0.0,0.0,0.0,-0.3061,-0.2685,-0.368,-0.3103,-0.2725,-0.2725,-0.2221,-0.1919,-0.1919,-0.1919,-0.1818,-0.1617,-0.1617,-0.1617,-0.1617,-0.1617,-0.1617,-0.1617,-0.217,-0.2422,-0.2422,-0.2623,-0.2927,-0.313,-0.2524,-0.2574,-0.3026,-0.2825,-0.2523,-0.2323,0.0,0.0,0.0,0.0,0.0,0.0,0.0,0.0,0.0,0.0,0.0,0.0,1.053,1.0453,0.0,0.0,1.0309,1.044,0.0,0.0,1.0293,0.0,0.0,0.0,0.0,0.0,0.8706,0.8635,0.0,0.0,0.0,0.0,0.0,0.0,0.0,0.4051,0.3581,0.0,0.0,0.4227,0.4628,0.4843,0.4878,0.5149,0.5316,0.5355,0.5155,0.5212,0.531,0.4792,0.4737,0.0,0.4505,0.0,0.0,0.0,0.0,0.0,0.3182,0.0,0.0,0.0,0.0,0.0,0.0,0.0,0.0,0.0,0.0,0.0,0.0,0.0,0.0,0.0,0.0,0.0,0.0,0.0,0.0,0.0,0.0,0.0,0.0,0.0,0.0,-0.3567,-0.2341,-0.197,-0.3094,-0.2662,-0.2321,-0.217,-0.1818,-0.1617,-0.1617,-0.1617,-0.1617,-0.1617,-0.1617,-0.1617,-0.1617,-0.1617,-0.1617,-0.1617,-0.2019,-0.217,-0.217,-0.217,-0.2423,-0.2676,-0.192,-0.1818,-0.217,-0.217,-0.1919,-0.1667,0.8669,0.8415,0.0,0.0,0.0,0.0,0.0,0.0,0.0,0.0,0.0,0.0,0.0,0.0,0.0,0.0,0.0,0.9567,1.0217,0.0,1.026,0.0,0.0,0.9339,0.0,0.0,0.0,0.0,0.0,0.0,0.0,0.0,0.0,0.0,0.0,0.3896,0.3046,0.362,0.3961,0.4201,0.505,0.5355,0.5328,0.0,0.5151,0.538,0.5371,0.0,0.0,0.4849,0.4818,0.0,0.0,0.0,0.0,0.0,0.0,0.0,0.0,0.0,0.0,0.311,0.0,0.0,0.0,0.0,0.2391,0.0,0.0,0.0,0.0,0.0,0.0,0.0,0.0,0.0,0.0,0.0,0.0,0.0,0.0,0.0,0.0,0.0,0.0,-0.2087,-0.0726,-0.0492,-0.2154,-0.2323,-0.217,-0.1667,-0.1617,-0.1617,-0.1617,-0.1617,-0.1617,-0.1617,-0.1617,-0.1617,-0.1617,-0.1617,-0.1617,-0.1617,-0.1617,-0.1617,-0.1617,-0.1617,-0.1617,-0.1667,-0.1617,-0.1617,-0.1617,-0.1617,-0.1617,-0.1617,0.0,0.0,0.0,0.0,0.0,0.0,0.0,0.8877,0.0,0.0,0.0,0.0,0.0,1.2035,1.1466,0.0,0.0,1.2094,1.1096,1.1637,0.0,0.0,0.0,1.0557,0.0,0.0,0.0,0.0,0.0,0.0,0.0,0.0,0.0,0.0,0.0,0.5417,0.0,0.0,0.0,0.0,0.0,0.5163,0.512,0.0,0.53,0.539,0.5445,0.5429,0.0,0.5083,0.5091,0.5212,0.4978,0.4861,0.4883,0.5075,0.4684,0.0,0.0,0.0,0.4068,0.3884,0.0,0.0,0.0,0.0,0.0,0.0,0.0,0.0,0.0,0.0,0.0,0.0,0.0,0.0,0.0,0.0,0.0,0.0,0.0,0.0,0.0,0.0,0.0,-0.1265,-0.036,-0.033,-0.1792,-0.1863,-0.1918,-0.2012,-0.1723,-0.1617,-0.1617,-0.1617,-0.1617,-0.1617,-0.1617,-0.1617,-0.1617,-0.1617,-0.1617,-0.1617,-0.1617,-0.1617,-0.1617,-0.1617,-0.1617,-0.1617,-0.1617,-0.1617,-0.1617,-0.1617,-0.1617,-0.1617,0.9495,0.0,0.0,0.0,0.0,0.0,0.0,0.0,0.0,0.0,1.1154,0.0,1.2856,0.0,1.2597,0.0,1.2974,1.3277,1.2457,1.2537,0.0,1.3103,1.209,0.0,0.0,0.0,0.0,0.0,0.0,0.8917,0.0,0.0,0.0,0.0,0.0,0.0,0.5517,0.0,0.4758,0.0,0.0,0.5112,0.0,0.0,0.5324,0.539,0.0,0.5429,0.5363,0.5245,0.5284,0.5351,0.5173,0.5118,0.5153,0.5331,0.5039,0.466,0.4832,0.4812,0.0,0.4374,0.4092,0.0,0.3565,0.0,0.0,0.0,0.0,0.0,0.0,0.0,0.0,0.0,0.0,0.0,0.0,0.1797,0.0,0.0,0.0,0.0,0.0,0.0,0.1182,-0.0213,0.0219,0.0096,0.0,0.0,-0.1024,-0.1569,-0.1213,-0.1212,-0.1617,-0.1617,-0.1617,-0.1617,-0.1617,-0.1617,-0.1617,-0.1617,-0.1617,-0.1617,-0.1617,-0.1617,-0.1617,-0.1617,-0.1617,-0.1617,-0.1617,-0.1617,-0.1617,-0.1617,-0.1617,-0.1617,0.0,0.0,0.0,0.0,0.8761,0.0,0.0,0.0,1.1097,0.0,1.2678,1.256,1.2856,1.2683,1.2579,1.2791,1.2789,1.3144,1.4051,1.2657,0.0,0.0,1.241,1.1762,1.2521,0.0,0.0,0.0,0.0,0.0,0.0,0.0,0.0,0.0,0.8179,0.0,0.5217,0.5667,0.5138,0.4044,0.4805,0.5258,0.5404,0.5229,0.5277,0.5437,0.5442,0.5386,0.5384,0.5444,0.5442,0.5382,0.5437,0.5437,0.5382,0.5382,0.5382,0.5382,0.5382,0.5318,0.506,0.4568,0.4363,0.0,0.0,0.0,0.3783,0.0,0.0,0.0,0.0,0.0,0.0,0.0,0.0,0.0,0.0,0.0,0.0,0.0,0.0,0.0,0.0,0.1976,0.1832,0.0997,0.0998,0.0836,0.0,0.0,0.0435,-0.0402,-0.0144,-0.0451,-0.1414,-0.1461,-0.1461,-0.1465,-0.1465,-0.1465,-0.1465,-0.1465,-0.1465,-0.1516,-0.1516,-0.1566,-0.1617,-0.1617,-0.1617,-0.1617,-0.1617,-0.1617,-0.1617,-0.1617,-0.1617,-0.1617,0.9947,0.9733,0.9754,0.0,1.0186,1.0333,0.0,0.0,0.0,0.0,1.2862,1.3215,1.3782,1.4077,1.3899,1.3082,1.3337,0.0,0.0,0.0,0.0,1.4159,1.3728,1.3274,1.2973,1.2614,0.0,1.182,0.0,0.0,1.038,0.0,0.0,0.0,0.0,0.0,0.657,0.6596,0.6135,0.5375,0.5431,0.5586,0.0,0.0,0.5872,0.6005,0.5623,0.5435,0.5448,0.574,0.566,0.5437,0.5656,0.5547,0.5382,0.5382,0.5382,0.5382,0.5382,0.5365,0.5308,0.504,0.4683,0.434,0.0,0.0,0.0,0.0,0.0,0.0,0.0,0.0,0.0,0.0,0.0,0.0,0.0,0.0,0.0,0.1797,0.0,0.0,0.1775,0.1679,0.154,0.1367,0.1326,0.1174,0.0,0.0,0.0,0.0829,0.0477,0.0455,0.0756,0.0387,0.029,0.0504,0.0504,0.0504,0.0504,0.0706,0.0353,-0.0403,-0.0403,-0.0858,-0.1617,-0.1617,-0.1617,-0.1617,-0.1617,-0.1617,-0.1617,-0.1617,-0.1617,-0.1617,0.9909,0.0,0.0,1.0243,0.0,0.0,1.1318,1.1717,0.0,1.3284,1.3534,0.0,1.4444,1.4729,1.4616,1.3938,1.375,0.0,1.3742,0.0,0.0,1.4304,1.4046,1.3636,1.3114,1.3104,0.0,1.2559,0.0,0.0,1.1107,0.0,0.0,0.0,0.0,0.8723,0.0,0.6879,0.6645,0.6621,0.6026,0.0,0.0,0.6044,0.6143,0.6281,0.5944,0.5816,0.5841,0.6107,0.6019,0.5828,0.5993,0.5826,0.5603,0.5603,0.5491,0.5382,0.5382,0.5268,0.5135,0.5047,0.4669,0.4347,0.438,0.4258,0.4112,0.0,0.4203,0.417,0.0,0.0,0.0,0.0,0.0,0.0,0.0,0.0,0.0,0.0,0.1807,0.0,0.1717,0.1558,0.1475,0.1532,0.1461,0.139,0.0,0.0,0.0,0.123,0.1326,0.1276,0.106,0.0765,0.0778,0.1214,0.1117,0.1181,0.1361,0.1513,0.126,0.0706,0.0706,0.0353,-0.0202,-0.0202,-0.0202,-0.0252,-0.0707,-0.0908,-0.0959,-0.1414,-0.1617,-0.1617,0.0,0.0,0.0,0.0,0.0,0.0,0.0,1.2725,0.0,1.4352,0.0,1.4471,1.4842,1.4939,1.495,1.4891,0.0,1.3965,1.4783,1.3464,1.3227,1.4525,1.3959,1.3513,1.3297,1.326,0.0,0.0,0.0,0.0,0.0,0.0,0.0,0.0,0.0,0.0,0.0,0.6997,0.7021,0.7935,0.6637,0.6388,0.6817,0.6483,0.649,0.6664,0.6677,0.6507,0.6289,0.6429,0.6409,0.6291,0.6332,0.6114,0.5895,0.5882,0.5714,0.5493,0.5493,0.5324,0.5081,0.5005,0.4762,0.4555,0.468,0.4683,0.4644,0.4819,0.4595,0.4373,0.0,0.0,0.0,0.0,0.0,0.0,0.0,0.0,0.0,0.0,0.0,0.0,0.1615,0.1543,0.1518,0.1561,0.147,0.0,0.0,0.0,0.0,0.1352,0.2193,0.2048,0.0864,0.0,0.1049,0.1588,0.1394,0.1576,0.1966,0.2017,0.1966,0.1815,0.1815,0.1714,0.1613,0.1613,0.1613,0.1513,0.0554,0.0202,0.0101,-0.0858,-0.1162,-0.1212,0.0,0.0,0.0,0.0,0.0,1.168,1.3575,1.4239,1.4464,1.4475,1.4786,1.4963,1.4896,1.5235,1.5316,1.4918,1.4557,0.0,0.0,0.0,0.0,1.4794,1.4519,1.4276,1.4288,1.4099,1.4003,0.0,0.0,0.0,0.0,0.0,0.0,0.0,0.0,0.0,0.9826,0.792,0.0,0.9671,0.7533,0.7818,0.9508,0.871,0.8436,0.8439,0.8551,0.7629,0.6332,0.657,0.6508,0.6438,0.6575,0.6495,0.6266,0.624,0.6163,0.6163,0.6163,0.6107,0.6047,0.6028,0.5905,0.578,0.5798,0.5505,0.5178,0.5004,0.4687,0.4325,0.413,0.0,0.0,0.0,0.0,0.0,0.0,0.0,0.0,0.0,0.0,0.0,0.0,0.0,0.0,0.0,0.0,0.0,0.0,0.0,0.0,0.0,0.2732,0.0,0.0,0.0,0.3311,0.3524,0.3606,0.3728,0.3934,0.4131,0.3778,0.2922,0.2922,0.2418,0.1613,0.1613,0.1613,0.1563,0.1412,0.131,0.131,0.1109,0.1059,0.0807,0.0,0.0,0.0,0.0,0.0,0.0,0.0,1.4684,1.5305,1.4899,1.5156,1.5386,1.5268,1.5461,1.551,1.5273,1.4923,1.4821,1.5068,1.4638,1.4584,1.5052,1.4842,0.0,1.3997,1.4239,1.4126,1.3631,0.0,0.0,0.0,0.0,0.0,0.0,0.0,1.0668,0.0,0.0,0.0,1.1088,0.9488,0.9505,1.0482,1.0007,0.9853,0.986,0.988,0.9362,0.8445,0.7471,0.7,0.6878,0.7059,0.6886,0.6643,0.6596,0.6486,0.6274,0.6274,0.6161,0.6049,0.6049,0.5897,0.5738,0.585,0.5712,0.5508,0.5455,0.5144,0.4702,0.4035,0.3607,0.0,0.0,0.0,0.0,0.0,0.0,0.0,0.0,0.0,0.0,0.0,0.0,0.0,0.0,0.0,0.0,0.0,0.0,0.0,0.0,0.0,0.0,0.0,0.0,0.0,0.4196,0.421,0.433,0.4638,0.4734,0.4533,0.4029,0.4029,0.3728,0.3274,0.3274,0.3274,0.3224,0.267,0.2418,0.2368,0.1815,0.1513,0.126,0.0,1.1444,0.0,0.0,1.2604,1.3513,1.3757,1.4886,1.5644,1.5376,1.5601,1.5752,1.5752,1.5752,1.5693,1.5537,1.5268,1.5165,1.5295,1.4961,1.4829,1.5102,1.5036,1.4616,1.3868,1.4299,1.4164,0.0,0.0,0.0,0.0,0.0,0.0,0.0,0.0,0.0,0.0,0.0,1.1904,1.2429,1.1203,1.1,1.1442,1.1164,1.1051,1.1051,1.1051,1.0891,1.0445,0.8775,0.8005,0.7669,0.7514,0.7261,0.7088,0.7288,0.714,0.6826,0.6826,0.6657,0.6376,0.6156,0.5931,0.5797,0.5996,0.5961,0.5894,0.5867,0.5538,0.5061,0.4478,0.4009,0.0,0.0,0.0,0.0,0.0,0.0,0.0,0.0,0.0,0.0,0.0,0.0,0.0,0.0,0.0,0.0,0.0,0.0,0.0,0.0,0.0,0.3374,0.3547,0.0,0.3909,0.4379,0.4342,0.445,0.4784,0.4784,0.4784,0.4784,0.4784,0.4784,0.4784,0.4784,0.4784,0.4734,0.3879,0.3525,0.3425,0.2569,0.2167,0.1965,0.0,0.0,0.0,0.0,0.0,1.3754,1.5696,1.5455,1.5221,1.5833,1.6097,1.6247,1.6247,1.6247,1.5989,1.5285,1.5628,1.5472,1.439,1.5063,1.5327,1.4934,1.5054,1.5118,1.5033,1.4668,1.4437,0.0,0.0,1.2571,0.0,0.0,0.0,0.0,0.0,0.0,0.0,1.2064,1.2593,1.3798,1.1588,1.1991,1.3753,1.2639,1.2254,1.2254,1.2254,1.1596,1.07,1.0563,0.9867,0.8916,0.7723,0.7363,0.7652,0.8609,0.8756,0.8647,0.8647,0.8647,0.8367,0.7318,0.7043,0.7041,0.703,0.678,0.6403,0.6071,0.5375,0.5135,0.5986,0.5351,0.4696,0.0,0.0,0.0,0.0,0.0,0.0,0.0,0.0,0.0,0.0,0.1767,0.0,0.0,0.0,0.0,0.0,0.0,0.0,0.2571,0.0,0.2941,0.299,0.3737,0.4239,0.4403,0.4492,0.4657,0.4784,0.4784,0.4784,0.4784,0.4784,0.4784,0.4784,0.4784,0.4784,0.4784,0.4684,0.4634,0.4634,0.4533,0.4481,0.4433,0.0,0.0,0.0,0.0,0.0,0.0,0.0,1.5737,1.6105,1.635,1.6339,1.6312,1.6312,1.6312,1.6199,1.5914,1.6059,1.5903,1.5342,1.5655,1.5661,1.5327,1.5408,1.5333,1.5194,1.5006,1.4834,0.0,0.0,0.0,0.0,0.0,0.0,0.0,0.0,1.2931,1.3086,1.3153,1.3586,1.4137,1.3202,1.3364,1.4137,1.364,1.3472,1.3472,1.3472,1.3197,1.2718,1.2023,1.1063,1.014,0.9656,0.9478,0.956,1.0002,1.0032,0.9962,0.9962,0.9962,0.9853,0.9409,0.9299,0.9299,0.9299,0.8598,0.7919,0.7675,0.6448,0.571,0.6686,0.5723,0.4961,0.551,0.0,0.0,0.0,0.0,0.0,0.0,0.0,0.0,0.0,0.0,0.0,0.0,0.0,0.0,0.0,0.0,0.0,0.2987,0.0,0.3467,0.4036,0.4129,0.4359,0.4636,0.4714,0.4767,0.4784,0.4784,0.4784,0.4784,0.4784,0.4784,0.4784,0.4784,0.4784,0.4784,0.4784,0.4784,0.4784,0.4784,0.4686,0.4537,1.5009,0.0,1.4539,0.0,1.5094,1.5558,1.5242,1.6137,1.6689,1.6542,1.649,1.6517,1.6517,1.6517,1.6431,1.6226,1.6334,1.6194,1.5726,1.5888,1.5872,1.551,1.5628,0.0,1.5301,1.5295,1.5235,1.4993,1.375,0.0,0.0,0.0,0.0,0.0,1.3104,1.3427,1.3459,1.3976,1.4196,1.4196,1.4196,1.4196,1.4196,1.4196,1.4196,1.4196,1.4196,1.4196,1.4083,1.3246,1.2412,1.1677,1.1122,1.0867,1.0884,1.122,1.1257,1.1214,1.1214,1.1214,1.1109,1.0781,1.0726,1.0726,1.0726,1.0017,0.9315,0.8777,0.7824,0.7247,0.7852,0.7001,0.6306,0.6636,0.0,0.0,0.0,0.0,0.0,0.0,0.3377,0.3061,0.274,0.2592,0.0,0.0,0.0,0.0,0.0,0.0,0.0,0.0,0.0,0.0,0.4364,0.4284,0.4422,0.4784,0.4784,0.4784,0.4784,0.4784,0.4784,0.4784,0.4784,0.4784,0.4784,0.4784,0.4784,0.4784,0.4784,0.4784,0.4784,0.4784,0.4686,0.4487,1.6296,1.6291,1.6361,1.6592,1.664,1.6547,1.6072,1.6544,1.6748,1.6109,1.6565,1.6996,1.6996,1.6996,1.671,1.6072,1.645,1.6217,1.4972,1.5618,1.5741,0.0,0.0,1.5893,1.5601,1.5596,1.5478,1.5188,0.0,0.0,1.3464,0.0,1.3082,1.3125,1.3857,1.418,1.4186,1.4191,1.4196,1.4196,1.4196,1.4196,1.4196,1.4196,1.4196,1.4196,1.4196,1.4196,1.4196,1.4191,1.4196,1.3741,1.1501,1.0775,1.1052,1.2227,1.2473,1.2358,1.2358,1.2358,1.2091,1.1,1.0726,1.0726,1.0726,1.0672,1.0292,0.8993,0.9391,0.9922,0.9774,0.963,0.9328,0.8603,0.0,0.0,0.0,0.0,0.0,0.0,0.3841,0.3576,0.3056,0.2999,0.0,0.0,0.0,0.0,0.0,0.0,0.0,0.2896,0.2972,0.0,0.3415,0.3952,0.4389,0.4784,0.4784,0.4784,0.4784,0.4784,0.4784,0.4784,0.4784,0.4784,0.4784,0.4784,0.4784,0.4784,0.4784,0.4784,0.4784,0.4784,0.4784,0.4734,1.5198,1.6011,1.6657,1.6309,1.6571,1.6845,1.6689,1.6856,1.6926,1.67,1.6867,1.7001,1.7001,1.7001,1.691,0.0,1.6428,1.6217,0.0,1.5854,1.5715,1.5725,1.5564,1.5359,1.5117,1.5112,1.5074,1.4999,0.0,0.0,0.0,1.3803,1.4019,1.4326,1.4557,1.4573,1.4428,1.4428,1.4336,1.4196,1.4196,1.4196,1.4196,1.4196,1.4196,1.4196,1.4196,1.4196,1.4196,1.4196,1.4196,1.4094,1.3341,1.3143,1.3197,1.358,1.3637,1.364,1.364,1.364,1.3527,1.3202,1.3088,1.3088,1.3088,1.2427,1.1489,1.0168,1.0151,1.0468,1.0886,1.0381,0.9911,0.9908,0.8679,0.0,0.0,0.0,0.0,0.0,0.4174,0.3659,0.3369,0.3449,0.0,0.0,0.0,0.0,0.0,0.0,0.0,0.0,0.3779,0.0,0.4344,0.4272,0.4418,0.4784,0.4784,0.4784,0.4784,0.4784,0.4784,0.4784,0.4784,0.4784,0.4784,0.4784,0.4784,0.4784,0.4784,0.4784,0.4784,0.4784,0.4784,0.4784,1.5548,1.6296,1.6867,1.642,1.671,1.6915,1.6646,1.6834,1.691,1.664,1.684,1.7001,1.7001,1.7001,0.0,1.7001,1.6597,1.6468,1.677,1.6296,1.6064,1.6271,1.5854,1.5537,1.5347,1.5284,0.0,1.5155,1.4864,1.46,1.4303,1.4514,1.4697,1.4885,1.4885,1.4805,1.4665,1.4665,1.4584,1.4455,1.4455,1.4401,1.432,1.432,1.4266,1.4196,1.4196,1.4196,1.4196,1.4196,1.4196,1.4196,1.4196,1.4196,1.4196,1.4196,1.4196,1.4196,1.4196,1.4196,1.4196,1.4196,1.4196,1.4196,1.4196,1.364,1.2714,1.1496,1.1465,1.1762,1.1723,1.1443,1.1118,1.0938,0.9956,0.8995,0.8353,0.0,0.0,0.0,0.0,0.0,0.0,0.4051,0.393,0.0,0.0,0.0,0.0,0.0,0.0,0.3922,0.4092,0.0,0.4584,0.4411,0.4506,0.4784,0.4784,0.4802,0.4885,0.48,0.4802,0.4883,0.4798,0.4784,0.4784,0.4784,0.4784,0.4784,0.4784,0.4784,0.4784,0.4784,0.4784,0.4784,1.6867,1.6937,1.699,1.6937,1.6974,1.678,1.6185,1.6581,1.677,1.6169,1.6597,1.7001,1.7001,1.7001,1.7001,1.7001,0.0,0.0,1.7001,1.6759,1.6693,1.6725,1.6425,1.6167,1.5963,1.5958,1.5861,1.5601,1.5601,1.5488,1.5215,1.5215,1.5155,1.4934,1.4934,1.4923,1.4907,1.4907,1.4902,1.4885,1.4885,1.4751,1.4502,1.4502,1.4417,1.4218,1.4218,1.4207,1.4196,1.4196,1.4196,1.4196,1.4196,1.4196,1.4196,1.4196,1.4196,1.4196,1.4196,1.4196,1.4196,1.4196,1.4196,1.4196,1.4196,1.4196,1.3862,1.2748,1.324,1.352,1.2438,1.273,1.2791,1.1802,1.1375,1.0828,0.9788,0.0,0.0,0.0,0.0,0.0,0.5139,0.4682,0.4404,0.0,0.0,0.0,0.0,0.0,0.3519,0.3663,0.4042,0.4253,0.4227,0.4499,0.4675,0.4794,0.48,0.49,0.4977,0.4892,0.49,0.4975,0.4883,0.4794,0.4794,0.4786,0.4784,0.4784,0.4784,0.4784,0.4784,0.4784,0.4784,0.4784,1.5494,0.0,1.6834,1.6353,1.6646,1.6947,1.678,1.6894,1.6942,1.6775,1.6899,1.7001,1.7001,1.7001,1.7001,1.7001,1.6511,1.6425,1.6969,1.6509,1.6342,1.6709,1.632,1.5844,1.5424,1.5418,1.5478,1.5601,1.5601,1.5569,1.5515,1.5515,1.5488,1.5429,1.5429,1.5332,1.5108,1.5108,1.5058,1.4885,1.4885,1.4853,1.4805,1.4805,1.4659,1.4455,1.4455,1.4342,1.4196,1.4196,1.4196,1.4196,1.4196,1.4196,1.4196,1.4196,1.4196,1.4196,1.4196,1.4196,1.4196,1.4196,1.4196,1.4196,1.4196,1.4196,1.4137,1.3802,1.3927,1.3939,1.3483,1.3514,1.3426,1.2807,1.1999,1.1044,0.989,0.9082,0.0,0.0,0.6669,0.6407,0.5199,0.5241,0.496,0.0,0.0,0.0,0.0,0.3696,0.3892,0.4506,0.4606,0.4649,0.464,0.4712,0.4828,0.4941,0.501,0.5055,0.5075,0.5053,0.5055,0.5071,0.4979,0.4939,0.4934,0.4863,0.4784,0.4784,0.4784,0.4784,0.4784,0.4784,0.4784,0.4784,1.593,1.6474,1.6883,1.6501,1.6748,1.7001,1.7001,1.7001,1.7001,1.7001,1.7001,1.7001,1.7001,1.7001,1.7001,1.7001,1.6651,1.6592,1.698,1.6646,1.6549,1.6807,1.6531,1.6108,1.5687,1.5628,1.558,1.5601,1.5601,1.5601,1.5601,1.5601,1.5601,1.5601,1.5601,1.5531,1.5349,1.5349,1.5332,1.5208,1.5208,1.5144,1.5052,1.5052,1.4902,1.4681,1.4518,1.4455,1.4331,1.4229,1.4196,1.4196,1.4196,1.4196,1.4196,1.4196,1.4196,1.4196,1.4196,1.4196,1.4196,1.4196,1.4196,1.4196,1.4196,1.4196,1.4196,1.4196,1.4196,1.4153,1.4013,1.3895,1.3733,1.3475,1.2568,1.1697,1.1096,1.0036,0.9039,0.822,0.8137,0.766,0.6546,0.6363,0.5932,0.5032,0.4382,0.0,0.4265,0.3885,0.3938,0.4425,0.4624,0.4696,0.4696,0.4836,0.4932,0.4876,0.4923,0.5022,0.5116,0.4967,0.5024,0.5165,0.5073,0.501,0.5019,0.4918,0.4873,0.4784,0.4784,0.4784,0.4784,0.4784,0.4784,0.4834,1.7001,1.7001,1.7001,1.7001,1.7001,1.7001,1.7001,1.7001,1.7001,1.7001,1.7001,1.7001,1.7001,1.7001,1.7001,1.7001,1.7001,1.7001,1.7001,1.7001,1.7001,1.7001,1.6818,1.6603,1.6371,1.6091,1.5893,1.5601,1.5601,1.5601,1.5601,1.5601,1.5601,1.5601,1.5601,1.5601,1.5601,1.5601,1.5601,1.5601,1.5601,1.5478,1.5247,1.5247,1.5155,1.4912,1.4713,1.4539,1.4453,1.4309,1.4223,1.4196,1.4196,1.4196,1.4196,1.4196,1.4196,1.4202,1.4239,1.4245,1.4239,1.4202,1.4196,1.4196,1.4196,1.4196,1.4196,1.4196,1.4196,1.4196,1.4196,1.4019,1.383,1.3685,1.299,1.2404,1.2221,0.0,1.0348,1.0462,0.9923,0.9237,0.84,0.7785,0.7086,0.6343,0.5241,0.4665,0.4924,0.4379,0.4034,0.4063,0.4389,0.4531,0.4531,0.4872,0.4914,0.4699,0.4712,0.4864,0.5152,0.4805,0.4918,0.5314,0.5221,0.5189,0.5168,0.5242,0.5131,0.4954,0.5041,0.5035,0.5035,0.5035,0.5035,0.5085,1.7001,1.7001,1.7001,1.7001,1.7001,1.7001,1.7001,1.7001,1.7001,1.7001,1.7001,1.7001,1.7001,1.7001,1.7001,1.7001,1.7001,1.7001,1.7001,1.7001,1.7001,1.7001,1.6969,1.6845,1.6614,1.6234,1.5893,1.5601,1.5601,1.5601,1.5601,1.5601,1.5601,1.5601,1.5601,1.5601,1.5601,1.5601,1.5601,1.5601,1.5601,1.558,1.5542,1.5542,1.5397,1.5129,1.5097,1.4823,1.4475,1.4437,1.4352,1.4196,1.4196,1.4196,1.4196,1.4196,1.4196,1.4239,1.4428,1.4427,1.4433,1.4245,1.4196,1.4196,1.4196,1.4196,1.4196,1.4196,1.4196,1.4196,1.4196,1.4164,1.3868,1.3055,1.2856,1.2355,1.1348,0.0,1.1641,1.0621,1.1058,1.1036,1.0054,0.902,0.8138,0.7562,0.7349,0.6627,0.5242,0.5507,0.5287,0.4278,0.4237,0.4244,0.4244,0.4638,0.4841,0.4787,0.4856,0.4899,0.491,0.4673,0.4951,0.5684,0.5641,0.5753,0.5943,0.6287,0.6146,0.5658,0.6022,0.6137,0.6137,0.6137,0.6137,0.6187,1.7453,1.7265,1.7001,1.7001,1.7001,1.7001,1.7001,1.7001,1.7001,1.7001,1.7001,1.7001,1.7001,1.7001,1.7001,1.7001,1.7001,1.7001,1.7001,1.7001,1.7001,1.7001,1.7001,1.684,1.6484,1.619,1.5893,1.5601,1.5601,1.5601,1.5601,1.5601,1.5601,1.5601,1.5601,1.5601,1.5601,1.5601,1.5601,1.5601,1.5601,1.5601,1.5601,1.5601,1.5531,1.5424,1.5236,1.5049,1.4823,1.4566,1.4466,1.4358,1.4234,1.4196,1.4196,1.4196,1.4196,1.4218,1.432,1.4352,1.4326,1.4218,1.4196,1.4196,1.4196,1.4196,1.4196,1.4196,1.4196,1.4196,1.4196,1.4196,1.4051,1.3604,1.3206,0.0,1.2204,1.2398,1.2416,1.1825,1.2343,1.2324,1.1286,1.0707,0.9767,0.8357,0.7938,0.7185,0.577,0.5656,0.5407,0.4922,0.4341,0.407,0.4108,0.4579,0.4707,0.4376,0.491,0.515,0.515,0.5206,0.5543,0.6102,0.6162,0.6272,0.6376,0.6752,0.6628,0.6305,0.6505,0.6494,0.6387,0.6387,0.6387,0.6437,1.8168,1.784,1.7459,1.726,1.726,1.7201,1.7001,1.7001,1.7001,1.7001,1.7001,1.7001,1.7001,1.7001,1.7001,1.7001,1.7001,1.7001,1.7001,1.7001,1.7001,1.7001,1.7001,1.6786,1.6328,1.6129,1.5892,1.5601,1.5601,1.5601,1.5601,1.5601,1.5601,1.5601,1.5601,1.5601,1.5601,1.5601,1.5601,1.5601,1.5601,1.5601,1.5601,1.5601,1.5601,1.5575,1.5397,1.5236,1.5129,1.4705,1.4523,1.4437,1.4266,1.4196,1.4196,1.4196,1.4196,1.4196,1.4196,1.4234,1.4261,1.4207,1.4196,1.4196,1.4196,1.4196,1.4196,1.4196,1.4196,1.4196,1.4196,1.4196,1.4137,1.3965,0.0,1.3104,1.3104,1.2953,1.2904,1.3126,1.3421,1.3325,1.2529,1.2154,1.1308,0.9625,0.9093,0.8348,0.7228,0.6896,0.6441,0.581,0.4645,0.4038,0.4091,0.4651,0.4651,0.4204,0.5094,0.5483,0.5483,0.5652,0.5935,0.6383,0.6604,0.6774,0.6855,0.7148,0.7186,0.6958,0.7056,0.6972,0.6829,0.6701,0.6739,0.6836,1.9014,1.9008,1.8752,1.8039,1.7905,1.7711,1.7066,1.7001,1.7001,1.7001,1.7001,1.7001,1.7001,1.7001,1.7001,1.7001,1.7001,1.7001,1.7001,1.7001,1.7001,1.7001,1.7001,1.6786,1.6328,1.6296,1.6059,1.5601,1.5601,1.5601,1.5601,1.5601,1.5601,1.5601,1.5601,1.5601,1.5601,1.5601,1.5601,1.5601,1.5601,1.5601,1.5601,1.5601,1.5601,1.5596,1.558,1.5435,1.5156,1.495,1.4713,1.4437,1.4266,1.4196,1.4196,1.4196,1.4196,1.4196,1.4196,1.4347,1.4405,1.425,1.4196,1.4196,1.4196,1.4196,1.4196,1.4196,1.4196,1.4196,1.4196,1.4196,1.3976,1.3292,0.0,0.0,1.3104,1.3087,1.333,1.4008,1.4121,1.4143,1.403,1.3033,1.2316,1.2149,1.2095,1.1561,1.0433,1.0795,0.9811,0.7083,0.5361,0.4474,0.448,0.4761,0.4873,0.4819,0.5487,0.5766,0.5766,0.5541,0.5875,0.6659,0.6715,0.6988,0.7584,0.801,0.7996,0.7731,0.8063,0.816,0.8082,0.7695,0.7693,0.7839,1.9641,1.9392,1.9008,1.8752,1.8682,1.8623,1.8361,1.8296,1.8296,1.8296,1.8109,1.8045,1.8302,1.8109,1.8109,1.8302,1.8296,1.8296,1.8296,1.784,1.7453,1.7001,1.7001,1.6786,1.6328,1.6312,1.6081,1.5601,1.5601,1.5601,1.5601,1.5601,1.5601,1.5601,1.5601,1.5601,1.5601,1.5601,1.5601,1.5601,1.5601,1.5601,1.5601,1.5601,1.5601,1.5601,1.5601,1.5542,1.5408,1.5015,1.4826,1.4686,1.4309,1.4196,1.4196,1.4196,1.4196,1.4196,1.4196,1.4256,1.4304,1.4218,1.4196,1.4196,1.4196,1.4196,1.4196,1.4196,1.4196,1.4196,1.4196,1.4196,1.4105,1.3825,0.0,1.3782,1.3782,1.3782,1.3884,1.4159,1.4196,1.4196,1.4196,1.3802,1.3197,1.2472,1.2417,1.1928,1.0781,1.0887,1.0495,0.9347,0.8348,0.6914,0.5093,0.532,0.5375,0.5206,0.5989,0.6267,0.6098,0.6374,0.671,0.7046,0.716,0.7382,0.7604,0.7993,0.7974,0.7822,0.7852,0.7833,0.7683,0.7441,0.7437,0.749,2.0335,2.0392,2.0265,2.0081,2.0322,2.0436,2.0189,2.0062,1.9998,1.9998,1.9437,1.913,1.9374,1.8816,1.8495,1.8752,1.8746,1.8746,1.8746,1.8296,1.7776,1.7324,1.706,1.6838,1.6628,1.636,1.6,1.5601,1.572,1.5779,1.5779,1.5779,1.5779,1.572,1.5661,1.5601,1.5601,1.5601,1.5601,1.5601,1.5601,1.5601,1.5601,1.5601,1.5601,1.5601,1.5601,1.5601,1.5537,1.5133,1.495,1.4815,1.4422,1.425,1.4196,1.4196,1.4196,1.4196,1.4196,1.4196,1.4196,1.4196,1.4196,1.4196,1.4196,1.4196,1.4196,1.4196,1.4196,1.4196,1.4196,1.4196,1.4196,1.4196,1.4196,1.4196,1.4196,1.4196,1.4196,1.4196,1.4196,1.4196,1.4196,1.4196,1.3862,1.3029,1.297,1.2644,1.1823,1.1823,1.1605,1.1269,1.0824,0.9449,0.7085,0.6702,0.6207,0.5706,0.6487,0.6768,0.6596,0.6988,0.721,0.721,0.7379,0.7549,0.7607,0.7826,0.788,0.7838,0.7707,0.7574,0.744,0.7202,0.7175,0.7238,2.1109,2.2153,2.2889,2.2201,2.286,2.3274,2.2589,2.2215,2.2027,2.2027,2.0846,2.0036,2.0036,1.8844,1.8033,1.8033,1.8033,1.8033,1.8033,1.8033,1.8033,1.8033,1.7169,1.6921,1.728,1.6425,1.5893,1.5601,1.5963,1.6087,1.6087,1.6087,1.6087,1.6087,1.5726,1.5601,1.5601,1.5601,1.5601,1.5601,1.5601,1.5601,1.5601,1.5601,1.5601,1.5601,1.5601,1.5601,1.5564,1.5269,1.5085,1.4842,1.4606,1.4374,1.4196,1.4196,1.4196,1.4196,1.4196,1.4196,1.4196,1.4196,1.4196,1.4196,1.4196,1.4196,1.4196,1.4196,1.4196,1.4196,1.4196,1.4196,1.4196,1.4196,1.4196,1.4196,1.4196,1.4196,1.4196,1.4196,1.4196,1.4196,1.4196,1.4196,1.4196,1.4196,1.4196,1.4196,1.4196,1.4196,1.3635,1.2472,1.2417,1.1873,1.0726,0.891,0.7423,0.6318,0.6932,0.721,0.721,0.721,0.721,0.721,0.721,0.7324,0.7607,0.7607,0.7771,0.7974,0.7838,0.7707,0.7527,0.7136,0.7107,0.7138,2.0736,2.167,2.2348,2.2097,2.3139,2.3869,2.3621,2.3559,2.3497,2.3497,2.2937,2.2625,2.2875,2.2313,2.1999,2.225,2.1454,2.0265,1.888,1.858,1.8479,1.8479,1.7771,1.7213,1.7028,1.6761,1.6489,1.6242,1.6307,1.6366,1.6371,1.6541,1.6476,1.6092,1.6199,1.5997,1.5601,1.5601,1.5601,1.5601,1.5601,1.5601,1.5601,1.5601,1.5601,1.5601,1.5601,1.5601,1.5564,1.5269,1.5085,1.4815,1.4422,1.425,1.4196,1.4196,1.4196,1.4196,1.4196,1.4196,1.4196,1.4196,1.4196,1.4196,1.4196,1.4196,1.4196,1.4196,1.4196,1.4196,1.4196,1.4196,1.4196,1.4196,1.4196,1.4196,1.4196,1.4196,1.4196,1.4196,1.4196,1.4196,1.4196,1.4196,1.4196,1.4196,1.3975,1.3862,1.3862,1.3862,1.3694,1.3305,1.3527,1.3083,1.1928,1.0558,0.9185,0.7864,0.8029,0.7593,0.655,0.655,0.6659,0.6824,0.6824,0.7046,0.7324,0.7324,0.7379,0.7421,0.7299,0.7231,0.7121,0.6854,0.6751,0.6757,2.1172,2.2536,2.3658,2.3658,2.4633,2.5423,2.5423,2.537,2.5264,2.5264,2.4633,2.4263,2.4448,2.3822,2.345,2.3698,2.2959,2.1916,2.0532,2.0306,2.0165,1.999,1.9604,1.8721,1.7336,1.6931,1.6686,1.6478,1.6655,1.672,1.6726,1.6974,1.6894,1.6595,1.6784,1.6513,1.5981,1.5981,1.5807,1.5601,1.5601,1.5601,1.5601,1.5601,1.5601,1.5601,1.5601,1.5601,1.558,1.5435,1.516,1.4805,1.4342,1.4196,1.4196,1.4196,1.4196,1.4196,1.4196,1.4196,1.4196,1.4196,1.4196,1.4196,1.4196,1.4196,1.4196,1.4196,1.4196,1.4196,1.4196,1.4196,1.4196,1.4196,1.4196,1.4196,1.4196,1.4196,1.4196,1.4196,1.4196,1.4196,1.4196,1.4196,1.4196,1.4196,1.4029,1.3916,1.3916,1.3916,1.3916,1.3916,1.4083,1.3862,1.3137,1.2427,1.1164,0.935,0.935,0.8913,0.8039,0.7429,0.7263,0.7374,0.6935,0.6824,0.699,0.7154,0.721,0.7202,0.7133,0.7024,0.6961,0.6763,0.6662,0.6603,2.223,2.427,2.6014,2.6014,2.6796,2.7461,2.7461,2.7237,2.7073,2.7073,2.6014,2.5264,2.5264,2.4193,2.345,2.345,2.3296,2.3024,2.2532,2.2459,2.2288,2.2036,2.1984,2.0803,1.8307,1.7298,1.6708,1.6596,1.6903,1.702,1.7026,1.7368,1.7426,1.7414,1.7395,1.706,1.6502,1.6502,1.6183,1.5661,1.5601,1.5601,1.5601,1.5601,1.5601,1.5601,1.5601,1.5601,1.5596,1.5575,1.5262,1.4805,1.4363,1.4213,1.4196,1.4196,1.4196,1.4196,1.4196,1.4196,1.4196,1.4196,1.4196,1.4196,1.4196,1.4196,1.4196,1.4196,1.4196,1.4202,1.4218,1.4223,1.4223,1.4223,1.4223,1.4218,1.4196,1.4213,1.4218,1.4196,1.4213,1.4218,1.4196,1.4196,1.4196,1.4196,1.4196,1.4142,1.4142,1.4142,1.4142,1.4142,1.4191,1.4196,1.4196,1.4196,1.3039,1.0836,1.0836,1.0726,1.0562,0.9237,0.8634,0.8579,0.7374,0.6824,0.6935,0.7099,0.7154,0.721,0.721,0.7147,0.6986,0.6864,0.6741,0.6565,2.327,2.4386,2.5317,2.5317,2.638,2.7185,2.7185,2.7133,2.7073,2.7073,2.6822,2.67,2.67,2.6388,2.6258,2.6258,2.4992,2.3695,2.2579,2.1991,2.1825,2.2013,2.1825,2.1519,2.1111,1.9802,1.8512,1.7309,1.7367,1.7367,1.7379,1.7859,1.7845,1.7426,1.7822,1.7578,1.6793,1.6563,1.6303,1.5963,1.572,1.5601,1.5601,1.5601,1.5601,1.5601,1.5601,1.5601,1.5569,1.5386,1.5128,1.4837,1.4552,1.4342,1.4196,1.4196,1.4196,1.4196,1.4196,1.4196,1.4196,1.4196,1.4196,1.4196,1.4196,1.4196,1.4196,1.4196,1.4196,1.425,1.4428,1.4405,1.4405,1.4405,1.4405,1.4401,1.4218,1.4347,1.4396,1.4213,1.4352,1.439,1.4213,1.4196,1.4196,1.4196,1.3975,1.3807,1.3807,1.3807,1.3807,1.3807,1.4083,1.4196,1.4196,1.4196,1.3364,1.171,1.171,1.1101,1.0002,0.9669,0.9622,0.9735,0.8306,0.798,0.8315,0.7265,0.699,0.721,0.721,0.7193,0.7158,0.6989,0.676,0.6412,2.4324,2.5256,2.6075,2.6075,2.664,2.7073,2.7073,2.7073,2.7073,2.7073,2.7073,2.7073,2.7073,2.7073,2.7004,2.6807,2.5989,2.5001,2.3937,2.3581,2.3468,2.3739,2.3617,2.3399,2.3095,2.2315,2.0845,1.8577,1.8577,1.8233,1.7491,1.7901,1.8028,1.7857,1.825,1.8081,1.7509,1.7209,1.6778,1.6248,1.5947,1.572,1.5601,1.5779,1.5839,1.5839,1.5839,1.572,1.5564,1.5269,1.5085,1.4842,1.4606,1.4379,1.4196,1.4196,1.4196,1.4196,1.4196,1.4196,1.4196,1.4196,1.4299,1.4396,1.4396,1.4396,1.4455,1.4563,1.4563,1.4548,1.456,1.4527,1.4527,1.4374,1.4374,1.4369,1.4358,1.4405,1.4536,1.4525,1.4627,1.4611,1.4379,1.4261,1.4196,1.4196,1.4029,1.3916,1.3916,1.3916,1.3916,1.3916,1.4083,1.4196,1.4196,1.4196,1.3807,1.3029,1.3029,1.2644,1.1869,1.1156,1.0937,1.0996,0.9625,0.9244,0.9467,0.8861,0.8364,0.7983,0.7983,0.7654,0.7196,0.7027,0.6712,0.6271,2.5448,2.6327,2.7073,2.7073,2.7073,2.7073,2.7073,2.7073,2.7073,2.7073,2.7073,2.7073,2.7073,2.7013,2.6842,2.6516,2.6371,2.6028,2.5469,2.5366,2.541,2.5586,2.5624,2.5276,2.4625,2.4625,2.3159,2.0178,2.0178,1.937,1.7889,1.8161,1.8324,1.8306,1.8565,1.8554,1.8279,1.7999,1.7372,1.6607,1.6345,1.6055,1.5774,1.6081,1.614,1.614,1.614,1.6016,1.5688,1.5434,1.518,1.4966,1.4654,1.4412,1.4196,1.4196,1.4245,1.4245,1.4245,1.4245,1.4299,1.4353,1.445,1.4654,1.4713,1.4713,1.4713,1.4928,1.4987,1.4945,1.4764,1.4721,1.4667,1.4467,1.4413,1.4413,1.4504,1.4564,1.465,1.4751,1.4799,1.4762,1.4611,1.439,1.4256,1.4256,1.4218,1.4196,1.4196,1.4196,1.4196,1.4196,1.4196,1.4196,1.4196,1.4196,1.4196,1.4196,1.4196,1.4196,1.4142,1.292,1.2368,1.2313,1.1055,1.0507,1.0558,1.0617,1.0069,0.9196,0.9196,0.8644,0.7741,0.7325,0.6878,0.6478,2.6822,2.6952,2.7073,2.7073,2.7073,2.7073,2.7073,2.7073,2.7073,2.7073,2.7073,2.7073,2.7073,2.6773,2.6542,2.6491,2.5891,2.5537,2.5434,2.5069,2.4975,2.5284,2.5276,2.545,2.5844,2.5835,2.4475,2.1692,2.1692,2.0959,1.9499,1.9737,1.9328,1.8306,1.8565,1.8686,1.8617,1.8256,1.7843,1.7221,1.694,1.6612,1.636,1.6419,1.6425,1.6425,1.6425,1.6419,1.6354,1.6042,1.5668,1.5281,1.4961,1.4541,1.4196,1.4196,1.4347,1.4552,1.4552,1.4552,1.4606,1.4826,1.4713,1.4713,1.5261,1.5148,1.4982,1.4982,1.4987,1.505,1.5261,1.53,1.5306,1.5251,1.5251,1.5074,1.4624,1.4795,1.4757,1.4364,1.446,1.4649,1.4821,1.4627,1.4432,1.4432,1.4304,1.4196,1.4196,1.4196,1.4196,1.4196,1.4196,1.4196,1.4196,1.4196,1.4196,1.4196,1.4196,1.4196,1.4191,1.3975,1.3916,1.3807,1.2368,1.1869,1.2032,1.0777,1.0343,1.0453,1.0453,1.0343,1.0026,0.8332,0.779,0.7675,2.7073,2.7073,2.7073,2.7073,2.7073,2.7073,2.7073,2.7073,2.7073,2.7073,2.7073,2.7073,2.7073,2.6722,2.6319,2.59,2.5614,2.5283,2.5078,2.4907,2.4923,2.5165,2.5221,2.5395,2.5852,2.5907,2.5276,2.4078,2.3559,2.2533,2.1023,2.031,2.0189,2.053,1.9846,2.0113,2.0909,1.9946,1.9322,1.8838,1.7624,1.7026,1.6785,1.7515,1.7349,1.6779,1.6779,1.6661,1.6478,1.6366,1.6032,1.5614,1.5445,1.5055,1.4671,1.4671,1.4719,1.4821,1.4821,1.4821,1.4874,1.4987,1.5041,1.5154,1.5428,1.5523,1.5517,1.5517,1.5517,1.5499,1.546,1.5478,1.5369,1.5201,1.5201,1.5158,1.5078,1.5021,1.4889,1.4634,1.4552,1.4627,1.4859,1.467,1.448,1.448,1.4444,1.4326,1.4202,1.4196,1.4196,1.4196,1.4196,1.4196,1.4196,1.4196,1.4196,1.4196,1.4196,1.4196,1.4196,1.4196,1.4196,1.4142,1.3532,1.3305,1.3359,1.2703,1.2096,1.1655,1.1655,1.1273,1.0585,0.9468,0.8955,0.8692]}]]